[[{"header":{"parameterUnit":"m.s-1","parameterCategory":1,"la1":30.6,"la2":28.766,"lo1":-90.7593,"lo2":-88.6598,"dy":0.0162,"dx":0.0183,"nx":116,"ny":114,"refTime":"2024-04-03T18:00:00:Z","depth":0,"parameterNumber":2,"parameterNumberName":"U-component_of_WINDS"},"data":[0.0,0.0,0.0,0.0,0.0,0.0,0.0,0.0,0.0,0.0,0.0,0.0,0.0,0.0,0.0,0.0,0.0,0.0,0.0,0.0,0.0,0.0,0.0,0.0,0.0,0.0,0.0,0.0,0.0,0.0,0.0,0.0,0.0,0.0,0.0,0.0,0.0,0.0,0.0,0.0,0.0,0.0,0.0,0.0,0.0,0.0,0.0,0.0,0.0,0.0,0.0,0.0,0.0,0.0,0.0,0.0,0.0,0.0,0.0,0.0,0.0,0.0,0.0,0.0,0.0,0.0,0.0,0.0,0.0,0.0,0.0,0.0,0.0,0.0,0.0,0.0,0.0,0.0,0.0,0.0,0.0,0.0,0.0,0.0,0.0,0.0,0.0,0.0,0.0,0.0,0.0,0.0,0.0,0.0,0.0,0.0,0.0,0.0,0.0,0.0,0.0,0.0,0.0,0.0,0.0,0.0,0.0,0.0,0.0,0.0,0.0,0.0,0.0,0.0,0.0,0.0,0.0,0.0,0.0,0.0,0.0,0.0,0.0,0.0,0.0,0.0,0.0,0.0,0.0,0.0,0.0,0.0,0.0,0.0,0.0,0.0,0.0,0.0,0.0,0.0,0.0,0.0,0.0,0.0,0.0,0.0,0.0,0.0,0.0,0.0,0.0,0.0,0.0,0.0,0.0,0.0,0.0,0.0,0.0,0.0,0.0,0.0,0.0,0.0,0.0,0.0,0.0,0.0,0.0,0.0,0.0,0.0,0.0,0.0,0.0,0.0,0.0,0.0,0.0,0.0,0.0,0.0,0.0,0.0,0.0,0.0,0.0,0.0,0.0,0.0,0.0,0.0,0.0,0.0,0.0,0.0,0.0,0.0,0.0,0.0,0.0,0.0,0.0,0.0,0.0,0.0,0.0,0.0,0.0,0.0,0.0,0.0,0.0,0.0,0.0,0.0,0.0,0.0,0.0,0.0,0.0,0.0,0.0,0.0,0.0,0.0,0.0,0.0,0.0,0.0,0.0,0.0,0.0,0.0,0.0,0.0,0.0,0.0,0.0,0.0,0.0,0.0,0.0,0.0,0.0,0.0,0.0,0.0,0.0,0.0,0.0,0.0,0.0,0.0,0.0,0.0,0.0,0.0,0.0,0.0,0.0,0.0,0.0,0.0,0.0,0.0,0.0,0.0,0.0,0.0,0.0,0.0,0.0,0.0,0.0,0.0,0.0,0.0,0.0,0.0,0.0,0.0,0.0,0.0,0.0,0.0,0.0,0.0,0.0,0.0,0.0,0.0,0.0,0.0,0.0,0.0,0.0,0.0,0.0,0.0,0.0,0.0,0.0,0.0,0.0,0.0,0.0,0.0,0.0,0.0,0.0,0.0,0.0,0.0,0.0,0.0,0.0,0.0,0.0,0.0,0.0,0.0,0.0,0.0,0.0,0.0,0.0,0.0,0.0,0.0,0.0,0.0,0.0,0.0,0.0,0.0,0.0,0.0,0.0,0.0,0.0,0.0,0.0,0.0,0.0,0.0,0.0,0.0,0.0,0.0,0.0,0.0,0.0,0.0,0.0,0.0,0.0,0.0,0.0,0.0,0.0,0.0,0.0,0.0,0.0,0.0,0.0,0.0,0.0,0.0,0.0,0.0,0.0,0.0,0.0,0.0,0.0,0.0,0.0,0.0,0.0,0.0,0.0,0.0,0.0,0.0,0.0,0.0,0.0,0.0,0.0,0.0,0.0,0.0,0.0,0.0,0.0,0.0,0.0,0.0,0.0,0.0,0.0,0.0,0.0,0.0,0.0,0.0,0.0,0.0,0.0,0.0,0.0,0.0,0.0,0.0,0.0,0.0,0.0,0.0,0.0,0.0,0.0,0.0,0.0,0.0,0.0,0.0,0.0,0.0,0.0,0.0,0.0,0.0,0.0,0.0,0.0,0.0,0.0,0.0,0.0,0.0,0.0,0.0,0.0,0.0,0.0,0.0,0.0,0.0,0.0,0.0,0.0,0.0,0.0,0.0,0.0,0.0,0.0,0.0,0.0,0.0,0.0,0.0,0.0,0.0,0.0,0.0,0.0,0.0,0.0,0.0,0.0,0.0,0.0,0.0,0.0,0.0,0.0,0.0,0.0,0.0,0.0,0.0,0.0,0.0,0.0,0.0,0.0,0.0,0.0,0.0,0.0,0.0,0.0,0.0,0.0,0.0,0.0,0.0,0.0,0.0,0.0,0.0,0.0,0.0,0.0,0.0,0.0,0.0,0.0,0.0,0.0,0.0,0.0,0.0,0.0,0.0,0.0,0.0,0.0,0.0,0.0,0.0,0.0,0.0,0.0,0.0,0.0,0.0,0.0,0.0,0.0,0.0,0.0,0.0,0.0,0.0,0.0,0.0,0.0,0.0,0.0,0.0,0.0,0.0,0.0,0.0,0.0,0.0,0.0,0.0,0.0,0.0,0.0,0.0,0.0,0.0,0.0,0.0,0.0,0.0,0.0,0.0,0.0,0.0,0.0,0.0,0.0,0.0,0.0,0.0,0.0,0.0,0.0,0.0,0.0,0.0,0.0,0.0,0.0,0.0,0.0,0.0,0.0,0.0,0.0,0.0,0.0,0.0,0.0,0.0,0.0,0.0,0.0,0.0,0.0,0.0,0.0,0.0,0.0,0.0,0.0,0.0,0.0,0.0,0.0,0.0,0.0,0.0,0.0,0.0,0.0,0.0,0.0,0.0,0.0,0.0,0.0,0.0,0.0,0.0,0.0,0.0,0.0,0.0,0.0,0.0,0.0,0.0,0.0,0.0,0.0,0.0,0.0,0.0,0.0,0.0,0.0,0.0,0.0,0.0,0.0,0.0,0.0,0.0,0.0,0.0,0.0,0.0,0.0,0.0,0.0,0.0,0.0,0.0,0.0,0.0,0.0,0.0,0.0,0.0,0.0,0.0,0.0,0.0,0.0,0.0,0.0,0.0,0.0,0.0,0.0,0.0,0.0,0.0,0.0,0.0,0.0,0.0,0.0,0.0,0.0,0.0,0.0,0.0,0.0,0.0,0.0,0.0,0.0,0.0,0.0,0.0,0.0,0.0,0.0,0.0,0.0,0.0,0.0,0.0,0.0,0.0,0.0,0.0,0.0,0.0,0.0,0.0,0.0,0.0,0.0,0.0,0.0,0.0,0.0,0.0,0.0,0.0,0.0,0.0,0.0,0.0,0.0,0.0,0.0,0.0,0.0,0.0,0.0,0.0,0.0,0.0,0.0,0.0,0.0,0.0,0.0,0.0,0.0,0.0,0.0,0.0,0.0,0.0,0.0,0.0,0.0,0.0,0.0,0.0,0.0,0.0,0.0,0.0,0.0,0.0,0.0,0.0,0.0,0.0,0.0,0.0,0.0,0.0,0.0,0.0,0.0,0.0,0.0,0.0,0.0,0.0,0.0,0.0,0.0,0.0,0.0,0.0,0.0,0.0,0.0,0.0,0.0,0.0,0.0,0.0,0.0,0.0,0.0,0.0,0.0,0.0,0.0,0.0,0.0,0.0,0.0,0.0,0.0,0.0,0.0,0.0,0.0,0.0,0.0,0.0,0.0,0.0,0.0,0.0,0.0,0.0,0.0,0.0,0.0,0.0,0.0,0.0,0.0,0.0,0.0,0.0,0.0,0.0,0.0,0.0,0.0,0.0,0.0,0.0,0.0,0.0,0.0,0.0,0.0,0.0,0.0,0.0,0.0,0.0,0.0,0.0,0.0,0.0,0.0,0.0,0.0,0.0,0.0,0.0,0.0,0.0,0.0,0.0,0.0,0.0,0.0,0.0,0.0,0.0,0.0,0.0,0.0,0.0,0.0,0.0,0.0,0.0,0.0,0.0,0.0,0.0,0.0,0.0,0.0,0.0,0.0,0.0,0.0,0.0,0.0,0.0,0.0,0.0,0.0,0.0,0.0,0.0,0.0,0.0,0.0,0.0,0.0,0.0,0.0,0.0,0.0,0.0,0.0,0.0,0.0,0.0,0.0,0.0,0.0,0.0,0.0,0.0,0.0,0.0,0.0,0.0,0.0,0.0,0.0,0.0,0.0,0.0,0.0,0.0,0.0,0.0,0.0,0.0,0.0,0.0,0.0,0.0,0.0,0.0,0.0,0.0,0.0,0.0,0.0,0.0,0.0,0.0,0.0,0.0,0.0,0.0,0.0,0.0,0.0,0.0,0.0,0.0,0.0,0.0,0.0,0.0,0.0,0.0,0.0,0.0,0.0,0.0,0.0,0.0,0.0,0.0,0.0,0.0,0.0,0.0,0.0,0.0,0.0,0.0,0.0,0.0,0.0,0.0,0.0,0.0,0.0,0.0,0.0,0.0,0.0,0.0,0.0,0.0,0.0,0.0,0.0,0.0,0.0,0.0,0.0,0.0,0.0,0.0,0.0,0.0,0.0,0.0,0.0,0.0,0.0,0.0,0.0,0.0,0.0,0.0,0.0,0.0,0.0,0.0,0.0,0.0,0.0,0.0,0.0,0.0,0.0,0.0,0.0,0.0,0.0,0.0,0.0,0.0,0.0,0.0,0.0,0.0,0.0,0.0,0.0,0.0,0.0,0.0,0.0,0.0,0.0,0.0,0.0,0.0,0.0,0.0,0.0,0.0,0.0,0.0,0.0,0.0,0.0,0.0,0.0,0.0,0.0,0.0,0.0,0.0,0.0,0.0,0.0,0.0,0.0,0.0,0.0,0.0,0.0,0.0,0.0,0.0,0.0,0.0,0.0,0.0,0.0,0.0,0.0,0.0,0.0,0.0,0.0,0.0,0.0,0.0,0.0,0.0,0.0,0.0,0.0,0.0,0.0,0.0,0.0,0.0,0.0,0.0,0.0,0.0,0.0,0.0,0.0,0.0,0.0,0.0,0.0,0.0,0.0,0.0,0.0,0.0,0.0,0.0,0.0,0.0,0.0,0.0,0.0,0.0,0.0,0.0,0.0,0.0,0.0,0.0,0.0,0.0,0.0,0.0,0.0,0.0,0.0,0.0,0.0,0.0,0.0,0.0,0.0,0.0,0.0,0.0,0.0,0.0,0.0,0.0,0.0,0.0,0.0,0.0,0.0,0.0,0.0,0.0,0.0,0.0,0.0,0.0,0.0,0.0,0.0,0.0,0.0,0.0,0.0,0.0,0.0,0.0,0.0,0.0,0.0,0.0,0.0,0.0,0.0,0.0,0.0,0.0,0.0,0.0,0.0,0.0,0.0,0.0,0.0,0.0,0.0,0.0,0.0,0.0,0.0,0.0,0.0,0.0,0.0,0.0,0.0,0.0,0.0,0.0,0.0,0.0,0.0,0.0,0.0,0.0,0.0,0.0,0.0,0.0,0.0,0.0,0.0,0.0,0.0,0.0,0.0,0.0,0.0,0.0,0.0,0.0,0.0,0.0,0.0,0.0,0.0,0.0,0.0,0.0,0.0,0.0,0.0,0.0,0.0,0.0,0.0,0.0,0.0,0.0,0.0,0.0,0.0,0.0,0.0,0.0,0.0,0.0,0.0,0.0,0.0,0.0,0.0,0.0,0.0,0.0,0.0,0.0,0.0,0.0,0.0,0.0,0.0,0.0,0.0,0.0,0.0,0.0,0.0,0.0,0.0,0.0,0.0,0.0,0.0,0.0,0.0,0.0,0.0,0.0,0.0,0.0,0.0,0.0,0.0,0.0,0.0,0.0,0.0,0.0,0.0,0.0,0.0,0.0,0.0,0.0,0.0,0.0,0.0,0.0,0.0,0.0,0.0,0.0,0.0,0.0,0.0,0.0,0.0,0.0,0.0,0.0,0.0,0.0,0.0,0.0,0.0,0.0,0.0,0.0,0.0,0.0,0.0,0.0,0.0,0.0,0.0,0.0,0.0,0.0,0.0,0.0,0.0,0.0,0.0,0.0,0.0,0.0,0.0,0.0,0.0,0.0,0.0,0.0,0.0,0.0,0.0,0.0,0.0,0.0,0.0,0.0,0.0,0.0,0.0,0.0,0.0,0.0,0.0,0.0,0.0,0.0,0.0,0.0,0.0,0.0,0.0,0.0,0.0,0.0,0.0,0.0,0.0,0.0,0.0,0.0,0.0,0.0,0.0,0.0,0.0,0.0,-4.673,-4.7803,0.0,0.0,0.0,0.0,0.0,0.0,0.0,0.0,0.0,0.0,0.0,0.0,0.0,0.0,0.0,0.0,0.0,0.0,0.0,0.0,0.0,0.0,0.0,-4.9018,-4.9018,-4.9018,-4.9018,-4.9018,-4.9018,-4.9018,0.0,0.0,0.0,0.0,-4.9018,-4.9018,-4.8849,-4.8477,-4.8075,-4.7534,-4.6853,-4.6481,-4.6312,-4.6244,0.0,0.0,0.0,0.0,0.0,0.0,0.0,0.0,0.0,0.0,0.0,0.0,0.0,0.0,0.0,0.0,0.0,0.0,0.0,0.0,0.0,0.0,0.0,0.0,0.0,0.0,0.0,0.0,0.0,0.0,0.0,0.0,0.0,0.0,0.0,0.0,0.0,0.0,0.0,0.0,0.0,0.0,0.0,0.0,0.0,0.0,0.0,0.0,0.0,0.0,0.0,0.0,0.0,0.0,0.0,0.0,0.0,0.0,0.0,0.0,0.0,0.0,0.0,0.0,0.0,0.0,0.0,0.0,0.0,0.0,-4.6067,-4.6662,0.0,0.0,0.0,0.0,0.0,0.0,0.0,0.0,0.0,0.0,0.0,0.0,0.0,0.0,0.0,0.0,0.0,0.0,0.0,0.0,0.0,-4.9018,-4.9018,-4.9018,-4.9018,-4.9018,-4.9018,-4.9018,-4.9018,-4.9018,-4.9018,-4.9018,-4.9018,-4.9018,-4.9018,-4.8883,-4.8511,-4.7906,-4.7635,-4.6853,-4.55,-4.4886,-4.4925,-4.5466,-4.4886,0.0,0.0,0.0,0.0,0.0,0.0,0.0,0.0,0.0,0.0,0.0,0.0,0.0,0.0,0.0,0.0,0.0,0.0,0.0,0.0,0.0,0.0,0.0,0.0,0.0,0.0,0.0,0.0,0.0,0.0,0.0,0.0,0.0,0.0,0.0,0.0,0.0,0.0,0.0,0.0,0.0,0.0,0.0,0.0,0.0,0.0,0.0,0.0,0.0,0.0,0.0,0.0,0.0,0.0,0.0,0.0,0.0,0.0,0.0,0.0,0.0,0.0,0.0,-4.5674,-4.5674,-4.5674,-4.5674,-4.5269,-4.4586,-4.5379,-4.5342,-4.4924,-4.6486,0.0,0.0,0.0,0.0,0.0,0.0,0.0,0.0,0.0,0.0,0.0,0.0,0.0,0.0,0.0,0.0,0.0,0.0,0.0,-4.9018,-4.9018,-4.9018,-4.9018,-4.9018,-4.9018,-4.9018,-4.9018,-4.9018,-4.9018,-4.9018,-4.9018,-4.9018,-4.9018,-4.8376,-4.7973,-4.7906,-4.6616,-4.5568,-4.475,-4.4649,-4.4649,-4.475,-4.4649,-4.4615,-4.4615,0.0,0.0,0.0,0.0,0.0,0.0,0.0,0.0,0.0,0.0,0.0,0.0,0.0,0.0,0.0,0.0,0.0,0.0,0.0,0.0,0.0,0.0,0.0,0.0,0.0,0.0,0.0,0.0,0.0,0.0,0.0,0.0,0.0,0.0,0.0,0.0,0.0,0.0,0.0,0.0,0.0,-4.6349,-4.6208,0.0,0.0,0.0,0.0,0.0,0.0,0.0,0.0,0.0,0.0,0.0,0.0,0.0,-4.5384,-4.3693,-4.4548,-4.4548,-4.3693,-4.3693,-4.3693,-4.3693,-4.3693,-4.3615,-4.3527,-4.3615,0.0,-4.4812,-4.5042,0.0,0.0,0.0,0.0,0.0,0.0,0.0,0.0,0.0,0.0,0.0,0.0,0.0,0.0,0.0,0.0,0.0,0.0,0.0,0.0,0.0,-4.9018,-4.9018,-4.9018,-4.9018,-4.9018,-4.9018,-4.9018,-4.9018,-4.9018,-4.9018,-4.8815,-4.8409,-4.8041,-4.7466,-4.6684,-4.5602,-4.4919,-4.4615,-4.4615,-4.4355,-4.3889,-4.3889,-4.3889,-4.386,-4.335,0.0,0.0,0.0,0.0,0.0,0.0,0.0,0.0,0.0,0.0,0.0,0.0,0.0,0.0,0.0,0.0,0.0,0.0,0.0,0.0,0.0,0.0,0.0,0.0,0.0,0.0,0.0,0.0,0.0,0.0,0.0,0.0,0.0,0.0,0.0,0.0,0.0,0.0,0.0,-4.4899,-4.4562,-4.4562,-4.4562,-4.4787,0.0,0.0,0.0,0.0,0.0,0.0,0.0,0.0,0.0,-4.3966,-4.4365,-4.4136,-4.329,-4.3732,-4.3732,-4.329,-4.329,-4.329,-4.329,-4.329,-4.329,-4.329,-4.329,-4.3566,-4.4004,-4.4548,-4.5042,-4.5452,0.0,0.0,0.0,0.0,-4.5636,-4.5813,0.0,0.0,0.0,0.0,0.0,0.0,0.0,0.0,0.0,0.0,0.0,0.0,-4.9018,-4.9018,-4.9018,-4.9018,-4.9018,-4.9018,-4.9018,-4.9018,-4.9018,-4.9018,-4.8815,-4.8477,-4.7906,-4.75,-4.6718,-4.5432,-4.4886,-4.4615,-4.4615,-4.4384,-4.3919,-4.3259,-4.28,-4.2738,-4.2925,-4.23,-4.1981,-4.2078,0.0,0.0,0.0,0.0,0.0,0.0,0.0,0.0,0.0,0.0,0.0,0.0,0.0,0.0,0.0,0.0,0.0,0.0,0.0,0.0,0.0,0.0,0.0,0.0,0.0,0.0,0.0,0.0,0.0,0.0,0.0,0.0,0.0,0.0,0.0,0.0,0.0,-4.3771,-4.329,-4.329,-4.329,-4.3576,0.0,0.0,0.0,0.0,0.0,0.0,-4.329,-4.329,-4.329,-4.329,-4.329,-4.329,-4.329,-4.329,-4.329,-4.329,-4.329,-4.329,-4.329,-4.329,-4.329,-4.329,-4.329,-4.329,-4.3369,-4.412,-4.4396,-4.4472,-4.5196,-4.5457,-4.5348,-4.4668,-4.4396,-4.4282,0.0,0.0,0.0,0.0,0.0,0.0,0.0,0.0,0.0,0.0,0.0,-4.9018,-4.9018,-4.9018,-4.9018,-4.9018,-4.9018,-4.9018,-4.9018,-4.9018,-4.9018,-4.9018,-4.8342,-4.7939,-4.7906,-4.6549,-4.5432,-4.4682,-4.4615,-4.4615,-4.4587,-4.3739,-4.3353,-4.3229,-4.156,-4.1264,-4.2045,-4.2013,-4.1981,-4.1981,-4.2045,0.0,0.0,0.0,0.0,0.0,0.0,0.0,0.0,0.0,0.0,0.0,0.0,0.0,0.0,0.0,0.0,0.0,0.0,0.0,0.0,0.0,0.0,0.0,0.0,0.0,0.0,0.0,0.0,0.0,0.0,0.0,0.0,0.0,0.0,0.0,0.0,0.0,0.0,-4.329,-4.329,0.0,0.0,0.0,0.0,-4.3369,-4.3329,-4.329,-4.329,-4.329,-4.329,-4.329,-4.329,-4.329,-4.329,-4.329,-4.329,-4.329,-4.329,-4.329,-4.329,-4.329,-4.329,-4.329,-4.329,-4.329,-4.329,-4.3369,-4.3369,-4.3369,-4.3448,-4.3448,-4.3448,-4.3409,-4.3369,-4.3369,0.0,0.0,0.0,0.0,0.0,-4.9184,-4.9012,-4.9018,-4.9018,-4.9018,-4.9018,-4.9018,-4.9018,-4.9018,-4.9018,-4.9018,-4.9018,-4.9018,-4.9018,-4.9018,-4.8781,-4.8311,-4.8041,-4.7432,-4.6515,-4.55,-4.4857,-4.4615,-4.4615,-4.4615,-4.4587,-4.371,-4.3017,-4.2426,-4.1231,-4.0554,-4.0309,-4.0309,-4.0309,-4.0378,-4.0927,-4.1164,0.0,0.0,0.0,0.0,0.0,0.0,0.0,0.0,0.0,0.0,0.0,0.0,0.0,0.0,0.0,0.0,0.0,0.0,0.0,0.0,0.0,0.0,0.0,0.0,0.0,0.0,0.0,0.0,0.0,0.0,0.0,0.0,0.0,0.0,0.0,0.0,0.0,-4.329,-4.329,0.0,-4.329,-4.329,-4.329,-4.329,-4.329,-4.329,-4.329,-4.329,-4.329,-4.329,-4.329,-4.329,-4.329,-4.329,-4.329,-4.329,-4.329,-4.329,-4.329,-4.329,-4.329,-4.329,-4.329,-4.329,-4.329,-4.329,-4.329,-4.329,-4.329,-4.329,-4.329,-4.329,-4.329,-4.329,0.0,0.0,0.0,0.0,-4.9756,-4.9833,-4.9402,-4.9168,-4.9018,-4.9018,-4.9018,-4.9018,-4.9018,-4.9018,-4.9018,-4.9018,-4.9018,-4.9018,-4.9018,-4.9018,-4.868,-4.7906,-4.7398,-4.6583,-4.5365,-4.4852,-4.4615,-4.4615,-4.4615,-4.4615,-4.4587,-4.341,-4.2552,-4.1949,-4.0792,-3.992,-3.9373,-3.9373,-3.9373,-3.9445,-4.0025,-4.0274,-4.0343,0.0,0.0,0.0,0.0,0.0,0.0,0.0,0.0,0.0,0.0,0.0,0.0,0.0,0.0,0.0,0.0,0.0,0.0,0.0,0.0,0.0,0.0,0.0,0.0,0.0,0.0,0.0,0.0,0.0,0.0,0.0,0.0,0.0,0.0,-4.3559,-4.329,-4.329,-4.329,-4.329,-4.329,-4.329,-4.329,-4.329,-4.329,-4.329,-4.329,-4.329,-4.329,-4.329,-4.329,-4.329,-4.329,-4.329,-4.329,-4.329,-4.329,-4.329,-4.329,-4.329,-4.329,-4.329,-4.329,-4.329,-4.329,-4.329,-4.329,-4.329,-4.329,-4.329,-4.329,-4.329,-4.329,-4.329,0.0,0.0,0.0,-5.0898,-5.0426,-5.0033,-5.0004,-4.9432,-4.9015,-4.8984,-4.9018,-4.9018,-4.9018,-4.9018,-4.9018,-4.9018,-4.9018,-4.9018,-4.9018,-4.8984,-4.8646,-4.7838,-4.6447,-4.5331,-4.4615,-4.4615,-4.4615,-4.4615,-4.4615,-4.4615,-4.4587,-4.2831,-4.2013,-4.1949,-4.0235,-3.9445,-3.9445,-3.9409,-3.9373,-3.9373,-3.9373,-3.9373,-3.9373,0.0,0.0,0.0,0.0,0.0,0.0,0.0,0.0,0.0,0.0,0.0,0.0,0.0,0.0,0.0,0.0,0.0,0.0,0.0,0.0,0.0,0.0,0.0,0.0,0.0,0.0,0.0,0.0,0.0,0.0,0.0,0.0,0.0,-4.3499,-4.329,-4.329,-4.329,-4.329,-4.329,-4.329,-4.329,-4.329,-4.329,-4.329,-4.329,-4.329,-4.329,-4.329,-4.329,-4.325,-4.325,-4.325,-4.321,-4.321,-4.321,-4.321,-4.321,-4.321,-4.321,-4.321,-4.325,-4.325,-4.325,-4.329,-4.329,-4.329,-4.329,-4.329,-4.329,-4.329,-4.329,-4.329,-4.329,0.0,0.0,-5.0926,-5.1016,-5.0918,-5.0608,-5.009,-4.9833,-4.9551,-4.9046,-4.9018,-4.9018,-4.9018,-4.9018,-4.9018,-4.9018,-4.9018,-4.9018,-4.9018,-4.8511,-4.7631,-4.638,-4.5399,-4.4818,-4.4615,-4.4615,-4.4615,-4.4615,-4.4615,-4.4615,-4.4587,-4.3439,-4.2956,-4.2894,-4.1129,-4.0343,-4.0309,-3.9666,-3.9373,-3.9373,-3.9373,-3.9373,-3.9373,0.0,0.0,0.0,0.0,0.0,0.0,0.0,0.0,0.0,0.0,0.0,0.0,0.0,0.0,0.0,0.0,0.0,0.0,0.0,0.0,0.0,0.0,0.0,0.0,0.0,0.0,0.0,0.0,0.0,0.0,0.0,-4.5424,-4.5005,-4.4167,-4.3589,-4.329,-4.329,-4.329,-4.329,-4.329,-4.329,-4.329,-4.329,-4.329,-4.329,-4.329,-4.329,-4.329,-4.329,-4.2508,-4.207,-4.207,-4.1253,-4.0831,-4.0831,-4.0831,-4.0831,-4.0831,-4.0831,-4.1323,-4.207,-4.207,-4.2548,-4.329,-4.329,-4.329,-4.329,-4.329,-4.329,-4.329,-4.329,-4.329,-4.329,0.0,-5.1609,-5.1883,-5.1946,-5.1728,-5.1368,-5.0955,-5.039,-4.9833,-4.9462,-4.9199,-4.9018,-4.9018,-4.9018,-4.9018,-4.9018,-4.9018,-4.9018,-4.9018,-4.8037,-4.6921,-4.5771,-4.4993,-4.4615,-4.4615,-4.4615,-4.4615,-4.4615,-4.4615,-4.4615,-4.4587,-4.371,-4.3323,-4.3199,-4.1462,-4.069,-4.0656,-3.9773,-3.9373,-3.9373,-3.9373,-3.9373,-3.9373,-3.9373,-3.9373,-3.9589,-4.0905,-4.1422,-4.1564,-4.2841,0.0,0.0,0.0,0.0,0.0,0.0,0.0,0.0,0.0,0.0,0.0,0.0,0.0,0.0,0.0,0.0,0.0,0.0,0.0,0.0,0.0,0.0,0.0,0.0,-4.5304,-4.4975,-4.3977,-4.3529,-4.329,-4.329,-4.329,-4.329,-4.329,-4.3529,-4.3708,-4.3708,-4.3988,-4.4167,-4.4167,-4.4167,-4.4167,-4.4167,-4.3496,-4.3136,-4.3136,-4.1939,-4.1377,-4.1334,-4.0602,-4.0272,-4.0244,-4.0023,-4.0275,-4.0873,-4.0873,-4.1253,-4.1906,-4.2386,-4.2589,0.0,0.0,0.0,0.0,0.0,-4.329,-4.329,0.0,-5.2711,-5.3203,-5.3203,-5.2644,-5.2183,-5.2112,-5.1025,-5.0167,-5.0033,-4.9492,-4.9077,-4.9018,-4.9018,-4.9018,-4.9018,-4.9018,-4.8951,-4.8748,-4.753,-4.6413,-4.5602,-4.4925,-4.4615,-4.4615,-4.4615,-4.4615,-4.4615,-4.4615,-4.4615,-4.4587,-4.3831,-4.3443,-4.3383,-4.1723,-4.0961,-4.0792,-3.992,-3.9481,-3.9373,-3.9373,-3.9373,-3.9373,-3.9373,-3.9373,-3.9589,-4.0816,-4.1324,-4.1564,-4.2821,0.0,0.0,0.0,0.0,0.0,0.0,0.0,0.0,0.0,0.0,0.0,0.0,0.0,0.0,0.0,0.0,0.0,0.0,0.0,0.0,0.0,0.0,0.0,0.0,-4.5364,-4.4945,-4.3589,-4.3469,-4.3499,-4.3409,-4.3409,-4.3439,-4.3499,-4.4077,-4.4436,-4.4436,-4.4975,-4.5304,-4.5304,-4.5304,0.0,0.0,0.0,-4.5025,-4.4899,-4.3661,-4.2934,-4.2773,-4.1145,-4.0377,-4.0295,-3.982,-3.9662,-3.9711,-3.9711,-3.9754,-4.0,-4.1,-4.142,-4.1545,-4.282,-4.329,-4.329,-4.317,-4.313,-4.313,0.0,-5.3093,-5.3203,-5.3203,-5.3082,-5.2791,-5.2183,-5.1862,-5.1317,-5.0174,-4.989,-4.9576,-4.9046,-4.9018,-4.9018,-4.9018,-4.9018,-4.8511,-4.7293,-4.6955,-4.621,-4.4886,-4.4682,-4.4615,-4.4615,-4.4615,-4.4615,-4.4615,-4.4615,-4.4615,-4.4615,-4.4412,-4.4355,-4.4298,-4.3259,-4.2426,-4.1691,-4.0826,-4.006,-3.9373,-3.9373,-3.9373,-3.9373,-3.9373,-3.9373,-3.9529,-4.0307,-4.0935,-4.1542,-4.2321,-4.291,-4.329,-4.329,-4.329,0.0,0.0,0.0,0.0,0.0,0.0,0.0,0.0,0.0,0.0,0.0,0.0,0.0,0.0,0.0,0.0,0.0,0.0,0.0,-4.5514,-4.5753,-4.5663,-4.4317,-4.4586,-4.4706,-4.4197,-4.4137,-4.4347,-4.4855,-4.5035,-4.5095,-4.5095,-4.5214,-4.5304,-4.5304,-4.5304,-4.5304,-4.5304,-4.4405,-4.3429,-4.243,-4.1223,-4.0059,-3.9062,-3.8669,0.0,-3.7855,-3.7753,-3.7981,-3.8469,-3.8469,-3.9006,-3.9913,-4.0145,-4.0232,-4.0447,-4.2508,-4.329,-4.321,-4.2275,-4.1947,-4.1947,0.0,-5.3203,-5.3203,-5.3203,-5.3203,-5.3082,-5.2725,-5.2335,-5.1838,-5.1128,-5.0445,-4.9861,-4.9551,-4.9195,-4.9018,-4.9018,-4.9018,-4.8376,-4.6887,-4.6786,-4.6143,-4.4682,-4.4615,-4.4615,-4.4615,-4.4615,-4.4615,-4.4615,-4.4615,-4.4615,-4.4615,-4.4615,-4.4615,-4.4559,-4.368,-4.3078,-4.2552,-4.1231,-4.0447,-4.0025,-3.9589,-3.9373,-3.9373,-3.9373,-3.9373,-3.9499,-4.0157,-4.0816,-4.1512,-4.2171,-4.2791,-4.329,-4.329,-4.329,-4.329,0.0,0.0,0.0,0.0,0.0,0.0,0.0,0.0,0.0,0.0,0.0,0.0,0.0,0.0,-4.7309,-4.7309,0.0,-4.698,-4.5963,-4.6082,-4.592,-4.4945,-4.5095,-4.5185,-4.4855,-4.4796,-4.4945,-4.5274,-4.5603,-4.5813,-4.5813,-4.6112,-4.6292,-4.6292,-4.6292,-4.6007,-4.5375,-4.4777,-4.3901,-4.2592,-4.1367,-4.0428,-3.9767,-3.8892,-3.8291,-3.8015,-3.7437,-3.7346,-3.7629,-3.7371,-3.7586,-3.8179,-3.8738,-3.936,-4.0015,-4.1155,-4.1616,-4.1532,-4.0958,-4.0746,-4.0746,0.0,-5.3203,-5.3203,-5.3203,-5.3203,-5.3203,-5.3203,-5.2702,-5.2289,-5.2112,-5.1102,-5.0362,-5.0223,-4.9576,-4.9138,-4.8984,-4.9018,-4.8443,-4.709,-4.6887,-4.621,-4.4886,-4.4682,-4.4615,-4.4615,-4.4615,-4.4615,-4.4615,-4.4615,-4.4615,-4.4615,-4.4615,-4.4615,-4.4587,-4.3889,-4.3472,-4.3199,-4.1788,-4.1028,-4.0622,-3.992,-3.9553,-3.9373,-3.9373,-3.9373,-3.9463,-4.0008,-4.0726,-4.1474,-4.2021,-4.2671,-4.329,-4.329,-4.329,-4.329,-4.329,-4.329,0.0,0.0,0.0,0.0,0.0,0.0,0.0,0.0,-4.701,-4.716,-4.7279,-4.7309,-4.7309,-4.7309,-4.7309,-4.71,-4.6399,-4.6399,-4.6262,-4.5603,-4.5603,-4.5693,-4.5693,-4.5574,-4.5544,-4.5663,-4.6202,-4.6459,-4.6459,-4.701,-4.7222,-4.6931,-4.6931,-4.6344,-4.507,-4.5024,-4.4396,-4.3122,-4.2133,-4.1468,-4.1219,-3.9753,-3.8969,-3.8894,-3.7814,-3.7287,-3.7161,-3.6656,-3.6405,-3.6452,-3.7356,-3.8334,-3.9227,-3.9227,-3.9227,-3.9227,-3.9448,-3.9536,-3.9536,0.0,-5.3203,-5.3203,-5.3203,-5.3203,-5.3203,-5.3203,-5.3124,-5.2813,-5.2183,-5.1934,-5.1643,-5.1034,-5.0342,-4.9634,-4.9046,-4.9018,-4.8646,-4.7804,-4.7158,-4.6413,-4.5602,-4.4925,-4.4615,-4.4615,-4.4615,-4.4615,-4.4615,-4.4615,-4.4615,-4.4615,-4.4615,-4.4615,-4.4615,-4.4497,-4.4035,-4.3292,-4.3078,-4.2141,-4.069,-4.0588,-4.0095,-3.9373,-3.9373,-3.9373,-3.9403,-3.9463,-4.0337,-4.1384,-4.1512,-4.2312,-4.329,-4.329,-4.329,-4.329,-4.329,-4.329,-4.3319,-4.3379,-4.3828,-4.4347,-4.4496,-4.4975,-4.5424,0.0,-4.5992,-4.6591,-4.7189,-4.7309,-4.7309,-4.7309,-4.7309,-4.71,-4.6399,-4.68,-4.695,-4.6249,-4.6711,-4.707,-4.707,-4.6561,-4.6441,-4.701,-4.716,-4.7189,-4.7189,-4.7279,-4.6814,-4.5689,-4.5598,-4.5024,-4.374,-4.3693,-4.3122,-4.1838,-4.164,-4.1019,-3.9929,-3.9725,-3.9346,-3.8894,-3.8216,-3.7638,-3.7161,-3.6656,-3.6405,-3.6405,-3.6546,-3.6662,-3.6803,-3.6803,-3.6803,-3.6896,-3.7952,-3.8289,-3.8289,0.0,0.0,-5.3203,-5.3203,-5.3203,-5.3203,-5.3203,-5.3203,-5.3082,-5.2769,-5.2358,-5.2018,-5.1716,-5.106,-5.0335,-4.9634,-4.9576,-4.9095,-4.797,-4.7225,-4.6481,-4.5737,-4.4993,-4.4615,-4.4615,-4.4615,-4.4615,-4.4615,-4.4615,-4.4615,-4.4615,-4.4615,-4.4615,-4.4615,-4.4615,-4.4384,-4.4035,-4.3532,-4.2894,-4.2109,-4.1098,-4.0451,-4.0095,-3.9559,-3.9373,-3.9373,-3.9373,-4.0008,0.0,-4.1302,-4.1983,-4.2851,-4.317,-4.329,-4.329,-4.329,-4.329,-4.329,-4.329,-4.3499,-4.3798,-4.4227,-4.4526,-4.4825,-4.5214,-4.5843,-4.6411,-4.6681,-4.704,-4.7309,-4.7309,-4.7309,-4.7219,-4.695,-4.713,-4.7219,-4.692,-4.713,-4.7309,-4.7309,-4.707,-4.701,-4.7279,-4.7309,-4.7309,-4.7309,-4.7309,-4.7062,-4.655,-4.5779,-4.484,-4.3551,-4.2786,-4.1789,-4.0516,-4.0516,-4.0211,-3.9697,-3.9697,-3.9572,-3.932,-3.8417,-3.7538,-3.6732,-3.6505,-3.6405,-3.6405,-3.6405,-3.6405,-3.6405,-3.6405,-3.6405,-3.6452,-3.6943,-3.7103,-3.7103,0.0,0.0,0.0,-5.3203,-5.3203,-5.3203,-5.3203,-5.3203,-5.3203,-5.3203,-5.2747,-5.2335,-5.2112,-5.1667,-5.1086,-5.0362,-5.0118,-4.9568,-4.8567,-4.7412,-4.6549,-4.6041,-4.5094,-4.4615,-4.4615,-4.4615,-4.4615,-4.4615,-4.4615,-4.4615,-4.4615,-4.4615,-4.4615,-4.4615,-4.4615,-4.4615,-4.4559,-4.3948,-4.3532,-4.3169,-4.1917,-4.1264,-4.0961,-4.0095,-3.9773,-3.9737,-3.9481,-3.9828,-4.0487,-4.1145,-4.1871,-4.253,-4.312,-4.329,-4.329,-4.329,-4.329,-4.329,-4.329,-4.329,-4.3409,-4.3888,-4.4007,-4.4227,-4.4885,-4.5544,-4.6082,-4.6249,-4.686,-4.7309,-4.7309,-4.7309,-4.7309,-4.7309,-4.7309,-4.7309,-4.7309,-4.7309,-4.7309,-4.7309,-4.7309,-4.7149,-4.6814,-4.7062,-4.7309,-4.7309,-4.7309,-4.7149,-4.677,-4.5913,-4.4627,-4.3026,-4.2084,-4.0969,-3.9697,-3.9697,-3.9697,-3.9697,-3.9697,-3.9697,-3.9647,-3.8517,-3.7412,-3.6405,-3.6405,-3.6405,-3.6405,-3.6405,-3.6405,-3.6405,-3.6405,-3.6405,-3.6405,-3.6405,-3.6405,-3.6405,0.0,0.0,0.0,0.0,-5.3203,-5.3203,-5.3203,-5.3203,-5.3203,-5.3203,-5.3203,-5.2893,-5.2183,-5.2089,-5.179,-5.1138,-5.039,-5.0004,-4.9941,-4.7972,-4.6786,-4.6752,-4.5393,-4.4615,-4.4615,-4.4615,-4.4615,-4.4615,-4.4615,-4.4615,-4.4615,-4.4615,-4.4615,-4.4615,-4.4615,-4.4615,-4.4615,-4.4587,-4.4064,-4.3323,-4.3229,-4.2707,-4.1885,-4.0995,-4.0656,-4.0554,-3.9702,-3.9828,-4.0487,-4.1145,-4.1871,-4.253,-4.312,-4.329,-4.329,-4.329,-4.329,-4.329,-4.329,-4.329,-4.329,-4.3319,-4.3319,-4.3499,-4.4197,-4.4855,-4.5514,-4.6202,-4.686,-4.7309,-4.7309,-4.7309,-4.7309,-4.7309,-4.7309,-4.7309,-4.7309,-4.7309,-4.7309,-4.7309,-4.7309,-4.6814,-4.5598,-4.6594,-4.7309,-4.7309,-4.7309,-4.677,-4.5553,-4.5389,-4.4256,-4.1739,-4.1591,-4.0969,-3.9697,-3.9697,-3.9697,-3.9697,-3.9697,-3.9697,-3.9647,-3.8517,-3.7412,-3.6405,-3.6405,-3.6405,-3.6405,-3.6405,-3.6405,-3.6405,-3.6405,-3.6405,-3.6405,-3.6405,-3.6405,-3.6405,0.0,0.0,0.0,0.0,0.0,-5.3203,-5.3203,-5.3203,-5.3203,-5.3203,-5.3203,0.0,0.0,0.0,0.0,0.0,-5.1544,-5.1215,-5.077,-4.9581,-4.8491,-4.7485,-4.6943,-4.6204,-4.5222,-4.5597,-4.5597,-4.5222,-4.5222,-4.5015,-4.4615,-4.4615,-4.4615,-4.4615,-4.4615,-4.4615,-4.4615,-4.4615,-4.4412,-4.4093,-4.3532,-4.3108,-4.2707,-4.1231,-4.069,-4.0588,0.0,-3.9523,-3.9918,-4.0995,-4.1572,-4.1893,-4.2961,-4.329,-4.329,-4.329,-4.329,-4.329,-4.329,-4.329,-4.329,-4.329,-4.329,-4.3469,-4.4167,-4.4825,-4.5484,-4.613,-4.686,-4.7309,-4.7309,-4.7309,-4.7309,-4.7309,-4.7309,-4.7309,-4.7309,-4.7309,-4.7309,-4.7309,-4.7309,-4.7106,-4.6682,-4.6299,-4.6032,-4.6032,-4.5252,-4.5343,-4.6594,-4.507,-4.4116,-4.4116,-4.2496,-4.1419,-4.0995,-4.0134,-3.9697,-3.9697,-3.932,-3.8944,-3.8542,-3.7814,-3.7061,-3.6405,-3.6405,-3.6405,-3.6405,-3.6405,-3.6405,-3.6405,-3.6405,-3.6405,-3.6405,-3.6405,-3.6405,-3.6405,0.0,0.0,0.0,0.0,0.0,0.0,0.0,0.0,0.0,0.0,0.0,0.0,0.0,0.0,0.0,0.0,0.0,-5.1946,-5.1494,-5.0556,-4.9447,-4.8207,-4.7844,-4.7093,-4.585,-4.6209,-4.6233,-4.5815,-4.5815,-4.5494,-4.4934,-4.4934,-4.4831,-4.4615,-4.4615,-4.4615,-4.4615,-4.4615,-4.4615,-4.4559,-4.4006,-4.3739,-4.3621,-4.2173,-4.1626,0.0,-4.0274,-3.9849,-3.9995,-4.0778,-4.1175,-4.1564,-4.2641,-4.315,-4.329,-4.329,-4.329,-4.329,-4.329,-4.329,-4.329,-4.329,-4.3469,-4.3768,-4.4227,-4.5005,-4.5783,-4.619,-4.686,-4.7309,-4.7309,-4.7309,-4.7309,-4.7309,-4.7309,-4.7309,-4.7309,-4.7309,-4.7309,-4.7309,-4.7309,-4.7106,-4.6682,-4.5869,-4.5389,-4.5389,-4.421,-4.4396,-4.6506,-4.4627,-4.4069,-4.5343,-4.293,-4.1591,-4.1591,-4.0364,-3.9697,-3.9697,-3.9145,-3.8567,-3.799,-3.7437,-3.6933,-3.6405,-3.6405,-3.6405,-3.6405,-3.6405,-3.6405,-3.6405,-3.6405,-3.6405,-3.6405,-3.6405,-3.6405,-3.6405,0.0,0.0,0.0,0.0,0.0,0.0,0.0,0.0,0.0,0.0,0.0,0.0,0.0,0.0,0.0,0.0,0.0,0.0,-5.2159,-5.089,-4.9795,-4.893,-4.8234,-4.7453,-4.6507,-4.6495,-4.646,-4.6436,-4.6436,-4.6161,-4.5545,-4.5545,-4.5214,-4.4671,-4.4671,-4.4643,-4.4615,-4.4615,-4.4615,-4.4615,-4.4615,-4.4615,-4.4497,-4.3621,-4.3323,-4.3078,-4.1363,-4.0758,-4.0677,-4.0486,-4.0846,-4.1602,-4.2261,-4.2851,-4.329,-4.329,-4.329,-4.329,-4.329,-4.329,-4.329,-4.329,-4.3798,-4.4317,-4.4347,-4.5364,-4.6279,-4.6339,-4.686,-4.7309,-4.7309,-4.7309,-4.7309,-4.7309,-4.7309,-4.7309,-4.7309,-4.7309,-4.7309,-4.7309,-4.7309,-4.6814,-4.5598,-4.5434,-4.5389,-4.5389,-4.4163,-4.3975,-4.5343,-4.4116,-4.3975,-4.5252,-4.2978,-4.164,-4.1591,-4.0364,-3.9672,-3.9647,-3.9094,-3.8517,-3.7939,-3.7387,-3.6908,-3.6405,-3.6405,-3.6405,-3.6405,-3.6405,-3.6405,-3.6405,-3.6405,-3.6405,-3.6405,-3.6405,-3.6405,-3.6405,0.0,0.0,0.0,0.0,0.0,0.0,0.0,0.0,0.0,0.0,0.0,0.0,0.0,0.0,0.0,0.0,0.0,0.0,-5.2915,-5.2565,-5.181,-5.0494,-5.0134,-4.9394,-4.8088,-4.7901,-4.7596,-4.7168,-4.7168,-4.6819,-4.6185,-4.6185,-4.584,-4.5267,-4.5267,-4.5008,-4.4615,-4.4615,-4.4615,-4.4615,-4.4615,-4.4615,-4.4497,-4.3621,-4.3323,-4.3139,-4.2078,-4.1231,-4.0677,-4.0486,-4.1175,-4.2261,-4.288,-4.317,-4.329,-4.329,-4.329,-4.329,-4.329,-4.329,-4.329,-4.329,-4.3798,-4.4436,-4.4915,-4.5723,-4.6471,-4.695,-4.7189,-4.7309,-4.7309,-4.7309,-4.7309,-4.7309,-4.7309,-4.7309,-4.7309,-4.7309,-4.7309,-4.7309,-4.7309,-4.7149,-4.6844,-4.5958,-4.5389,-4.5389,-4.3361,-4.3074,-4.5252,-4.3313,-4.2689,-4.3929,-4.3361,-4.2544,-4.1591,-4.0364,-3.9496,-3.9069,-3.8492,-3.7939,-3.7387,-3.6883,-3.6531,-3.6405,-3.6405,-3.6405,-3.6405,-3.6405,-3.6405,-3.6405,-3.6405,-3.6405,-3.6405,-3.6405,-3.6405,-3.6405,0.0,0.0,0.0,0.0,0.0,0.0,0.0,0.0,0.0,0.0,0.0,0.0,0.0,0.0,0.0,0.0,0.0,0.0,0.0,-5.3203,-5.2694,-5.1479,-5.1391,-5.0586,-4.9091,-4.8939,-4.8536,-4.7797,-4.7797,-4.747,-4.6842,-4.6842,-4.6519,-4.589,-4.589,-4.5724,-4.5372,-4.5115,-4.4981,0.0,0.0,-4.4615,-4.4559,-4.4064,-4.3889,-4.3739,-4.2862,-4.1946,-4.1175,-4.1351,-4.1851,-4.253,-4.312,-4.329,-4.329,-4.329,-4.329,-4.329,-4.329,-4.329,-4.329,-4.329,-4.4047,-4.4855,-4.5214,-4.6052,-4.686,-4.7219,-4.7309,-4.7309,-4.7309,-4.7309,-4.7309,-4.7309,-4.7309,-4.7309,-4.7309,-4.7309,-4.7309,-4.7309,-4.7309,-4.7062,-4.655,-4.5824,-4.5389,-4.5389,-4.3026,-4.2447,-4.4442,-4.2181,-4.1591,-4.3456,-4.2398,-4.1518,-4.0794,-4.0083,-3.9421,-3.8919,-3.8291,-3.7713,-3.7161,-3.6656,-3.6405,-3.6405,-3.6405,-3.6405,-3.6405,-3.6405,-3.6405,-3.6405,-3.6405,-3.6405,-3.6405,-3.6405,-3.6405,-3.6405,0.0,0.0,0.0,0.0,0.0,0.0,0.0,0.0,0.0,0.0,-5.3203,0.0,0.0,0.0,0.0,0.0,0.0,0.0,0.0,0.0,-5.2894,-5.2197,-5.205,-5.1353,-4.9941,-4.9721,-4.9224,-4.8489,-4.8379,-4.8035,-4.7512,-4.7512,-4.7154,-4.6507,-4.6507,-4.646,-4.6342,-4.5775,-4.5494,-4.5451,-4.4824,-4.4615,-4.4615,0.0,-4.4615,-4.4502,-4.3721,-4.2848,-4.2066,-4.2674,-4.2663,-4.253,-4.312,-4.329,-4.329,-4.329,-4.329,-4.329,-4.329,-4.329,-4.329,-4.329,-4.4317,-4.5304,-4.5304,-4.6352,-4.7309,-4.7309,-4.7309,-4.7309,-4.7309,-4.7309,-4.7309,-4.7309,-4.7309,-4.7309,-4.7309,-4.7309,-4.7309,-4.7309,-4.7309,-4.677,-4.5553,-4.5389,-4.5389,-4.5389,-4.3218,-4.2301,-4.3456,-4.1219,-4.0995,-4.317,-4.1069,-3.9929,-3.9929,-3.9929,-3.9575,-3.8743,-3.8241,-3.7688,-3.7061,-3.6631,-3.6405,-3.6405,-3.6405,-3.6405,-3.6405,-3.6405,-3.6405,-3.6405,-3.6405,-3.6405,-3.6405,-3.6405,-3.6405,-3.6405,0.0,0.0,0.0,0.0,0.0,0.0,0.0,0.0,0.0,0.0,-5.3203,-5.3203,0.0,0.0,0.0,0.0,0.0,0.0,0.0,0.0,0.0,-5.3004,-5.2344,-5.1867,-5.1573,-5.0271,-4.9537,-4.939,-4.8636,-4.8248,-4.8134,-4.8134,-4.7818,-4.7234,-4.7234,-4.6932,-4.6342,-4.5775,-4.5494,-4.5451,-4.4824,-4.4615,-4.4615,-4.4615,0.0,0.0,-4.4284,-4.3945,-4.3622,-4.3577,-4.3067,-4.253,-4.312,-4.329,-4.329,-4.329,-4.329,-4.329,-4.329,-4.329,-4.329,-4.329,-4.4317,-4.5304,-4.5304,-4.6352,-4.7309,-4.7309,-4.7309,-4.7309,-4.7309,-4.7309,-4.7309,-4.7309,-4.7309,-4.7309,-4.7309,-4.7309,-4.7309,-4.7309,-4.7309,-4.677,-4.5553,-4.5389,-4.5389,-4.5389,-4.4022,-4.3266,-4.3504,-4.2084,-4.1468,-4.1936,-4.1518,-4.1269,-4.1269,-4.1269,-4.0201,-3.814,-3.8065,-3.7487,-3.6556,-3.6455,-3.6405,-3.6405,-3.6405,0.0,-3.6405,-3.6405,-3.6405,-3.6405,-3.6405,-3.6405,-3.6405,-3.6405,-3.6405,-3.6405,0.0,0.0,0.0,0.0,0.0,0.0,0.0,-5.3203,-5.3203,-5.3203,-5.3203,-5.3203,-5.3203,-5.3203,-5.3203,0.0,0.0,0.0,0.0,0.0,0.0,0.0,0.0,0.0,-5.2013,-5.1242,-5.0639,-5.0215,0.0,-4.9591,-4.9591,-4.9591,-4.9451,-4.917,-4.917,-4.8986,-4.8648,-4.7628,-4.7241,-4.714,-4.615,-4.5737,-4.5737,0.0,0.0,0.0,0.0,-4.5175,-4.4564,-4.4531,-4.3747,-4.291,-4.32,-4.329,-4.329,-4.329,-4.329,-4.329,-4.329,-4.329,-4.329,-4.329,-4.4317,-4.5304,-4.5304,-4.6352,-4.7309,-4.7309,-4.7309,-4.7309,-4.7309,-4.7309,-4.7309,-4.7309,-4.7309,-4.7309,-4.7309,-4.7309,-4.7309,-4.7309,-4.7309,-4.677,-4.5553,-4.4794,-4.4674,-4.5343,-4.421,-4.3504,-4.3504,-4.164,-4.0592,-4.0592,-4.1269,-4.1269,-4.0592,-4.0981,-4.0112,-3.8015,-3.7713,-3.7161,-3.6405,-3.6405,-3.6405,-3.6405,-3.6405,-3.6405,-3.6405,-3.6405,-3.6405,-3.6405,-3.6405,-3.6405,-3.6405,-3.6405,-3.6405,-3.6405,0.0,0.0,0.0,0.0,0.0,0.0,0.0,-5.3203,-5.3203,-5.3203,-5.3203,-5.3203,-5.3203,-5.3203,-5.3203,0.0,0.0,0.0,0.0,0.0,0.0,0.0,0.0,0.0,0.0,0.0,0.0,-5.1059,-5.0875,0.0,0.0,0.0,0.0,0.0,-5.0802,-5.0802,-5.0741,-4.9539,-4.8933,0.0,0.0,-4.6927,0.0,0.0,0.0,0.0,0.0,-4.6311,-4.5387,-4.5344,-4.4574,-4.3576,-4.3369,-4.329,-4.329,-4.329,-4.329,-4.329,-4.329,-4.329,-4.329,-4.329,-4.4227,-4.5095,-4.5095,-4.6112,-4.71,-4.71,-4.7219,-4.7309,-4.7309,-4.7309,-4.7309,-4.7309,-4.7309,-4.7309,-4.7309,-4.7309,-4.7309,-4.7309,-4.7309,-4.677,-4.5553,-4.4256,-4.3929,-4.4932,-4.4069,-4.3504,-4.3504,-4.1069,-3.9697,-3.9697,-4.1219,-4.1269,-3.9749,-4.0694,-4.0118,-3.799,-3.7437,-3.6933,-3.6405,-3.6405,-3.6405,-3.6405,-3.6405,-3.6405,-3.6405,-3.6405,-3.6405,-3.6405,-3.6405,-3.6405,-3.6405,-3.6405,-3.6405,-3.6405,0.0,0.0,0.0,0.0,0.0,0.0,0.0,-5.3203,-5.3203,-5.3203,-5.3203,-5.3203,-5.3203,-5.3203,-5.3203,0.0,0.0,0.0,0.0,0.0,0.0,0.0,0.0,0.0,0.0,0.0,0.0,-5.1867,-5.1169,0.0,0.0,0.0,0.0,0.0,0.0,-5.0802,-5.0762,-5.0025,0.0,0.0,0.0,0.0,0.0,0.0,0.0,0.0,0.0,-4.7154,-4.6323,-4.6164,-4.5462,-4.451,-4.3606,-4.329,-4.329,-4.329,-4.329,-4.329,-4.329,-4.329,-4.329,-4.329,-4.3828,-4.4407,-4.4407,-4.5454,-4.6369,-4.6369,-4.689,-4.7309,-4.7309,-4.7309,-4.7309,-4.7309,-4.7309,-4.7309,-4.7309,-4.7309,-4.7309,-4.7309,-4.7309,-4.677,-4.5553,-4.4256,-4.3551,-4.3693,-4.3551,-4.3504,-4.3504,-4.1069,-3.9697,-3.9697,-4.2084,-4.2181,-3.9749,-4.1593,-4.0977,-3.799,-3.7437,-3.6933,-3.6405,-3.6405,-3.6405,-3.6405,-3.6405,-3.6405,0.0,-3.6405,-3.6405,-3.6405,-3.6405,-3.6405,-3.6405,-3.6405,-3.6405,-3.6405,0.0,0.0,0.0,0.0,0.0,0.0,-5.3203,-5.3203,-5.3203,-5.3203,-5.3203,-5.3203,-5.3203,-5.2791,-5.2725,-5.3146,0.0,0.0,0.0,0.0,0.0,0.0,0.0,0.0,0.0,0.0,-5.2711,-5.2711,-5.2417,0.0,0.0,0.0,0.0,0.0,0.0,-5.2234,-5.2171,-5.1034,0.0,0.0,0.0,0.0,0.0,0.0,0.0,0.0,0.0,0.0,-4.7078,-4.6426,-4.5561,-4.4624,-4.3645,-4.329,-4.329,-4.329,-4.329,-4.329,-4.329,-4.329,-4.329,-4.329,-4.3798,-4.4317,-4.4317,-4.5035,-4.5693,-4.5693,-4.6232,-4.6711,-4.6711,-4.704,-4.7309,-4.7309,-4.7309,-4.7309,-4.7309,-4.7309,-4.7309,-4.7309,-4.7309,-4.677,-4.5553,-4.4256,-4.3504,-4.3504,-4.3504,-4.3834,-4.4581,-4.223,-4.0516,-3.9749,-4.2181,-4.2641,-4.0844,-4.1741,-4.1117,-3.9132,-3.8178,-3.7288,-3.6405,-3.7103,-3.7057,-3.6405,-3.6405,-3.6405,0.0,-3.6405,-3.6405,-3.6405,-3.6405,-3.6405,-3.6405,-3.6405,-3.6405,-3.6405,0.0,0.0,0.0,0.0,0.0,-5.3203,-5.3203,-5.3203,-5.3124,-5.2915,-5.2893,-5.2791,-5.2613,-5.2125,-5.2018,-5.2531,-5.259,0.0,0.0,0.0,0.0,0.0,0.0,0.0,0.0,0.0,-5.3203,-5.3203,-5.3203,-5.3203,0.0,0.0,-5.3203,-5.3203,0.0,0.0,0.0,0.0,0.0,0.0,0.0,0.0,0.0,0.0,0.0,0.0,0.0,0.0,0.0,0.0,0.0,-4.5005,-4.3693,-4.329,-4.329,-4.329,-4.329,-4.329,-4.329,-4.329,-4.329,-4.329,-4.3648,-4.4018,-4.4018,-4.4526,-4.5005,-4.5005,-4.5544,-4.6082,-4.6249,-4.6711,-4.707,0.0,0.0,-4.7309,-4.7309,-4.7309,-4.7309,-4.7309,-4.7309,-4.6975,-4.6077,-4.4442,-4.3504,-4.3504,-4.3504,-4.3882,-4.4794,-4.3122,-4.1591,-4.0313,-4.235,-4.2882,-4.1591,-4.1704,-4.1334,-4.0435,-3.8845,-3.7861,-3.7474,-3.7906,-3.7678,-3.6896,-3.6546,-3.6593,0.0,-3.6546,-3.6593,-3.6896,-3.6546,-3.6405,-3.6405,-3.6405,-3.6405,-3.6405,0.0,0.0,0.0,0.0,0.0,0.0,-5.3203,-5.3203,-5.2937,-5.2206,-5.2112,-5.1838,-5.1189,-5.1112,-5.1112,-5.1112,-5.1112,0.0,0.0,0.0,0.0,0.0,0.0,0.0,0.0,0.0,-5.3203,-5.3203,-5.3203,-5.3203,-5.3203,-5.3203,-5.3203,-5.3203,0.0,0.0,0.0,0.0,0.0,0.0,0.0,0.0,-4.9018,0.0,0.0,0.0,0.0,0.0,0.0,0.0,0.0,0.0,0.0,-4.329,-4.329,-4.329,-4.329,-4.329,-4.329,-4.329,-4.329,-4.329,-4.329,-4.329,-4.329,-4.3798,-4.4317,-4.4317,-4.4855,-4.5514,-4.6202,-4.6322,-4.6561,-4.7189,-4.7309,0.0,-4.7309,-4.7309,-4.7309,-4.7309,-4.7309,-4.7309,-4.7266,-4.4978,-4.3504,-4.3504,-4.3504,-4.3504,-4.3504,-4.3504,-4.2882,-4.1591,-4.2834,-4.2882,-4.1591,-4.1704,-4.1744,-4.1635,-3.9256,-3.8738,-3.9798,-3.8649,-3.8107,-3.8017,-3.6896,-3.701,0.0,-3.6896,-3.7057,-3.7971,-3.6849,-3.6405,-3.6405,-3.6405,-3.6405,-3.6405,0.0,0.0,0.0,0.0,0.0,0.0,0.0,-5.2527,-5.2262,-5.1515,-5.1419,-5.1343,-5.1112,-5.0635,-5.0335,-5.0335,-5.0796,0.0,0.0,0.0,0.0,0.0,0.0,0.0,0.0,-5.2937,-5.3203,-5.3203,-5.3203,-5.3203,-5.3203,-5.3203,-5.3203,-5.3203,-5.3203,-5.3203,0.0,0.0,0.0,0.0,0.0,-4.9018,-4.9018,0.0,0.0,0.0,0.0,0.0,0.0,0.0,0.0,0.0,0.0,0.0,0.0,-4.329,-4.329,-4.329,-4.329,-4.329,-4.329,-4.329,-4.329,-4.329,-4.329,-4.3439,-4.3618,-4.3618,-4.4167,-4.4825,-4.5484,-4.5992,-4.6488,-4.7189,-4.7309,0.0,-4.7309,-4.7309,-4.6975,-4.6121,-4.4442,-4.374,-4.4627,-4.2398,-4.1591,-4.3361,-4.3504,-4.3882,-4.4748,-4.3975,-4.293,-4.164,-4.2834,-4.3499,-4.35,-4.3182,-4.2382,-4.109,-4.0681,-3.9858,-3.8693,-3.9139,-3.8872,-3.8062,-3.7723,-3.7769,-3.8062,-3.7723,-3.7769,-3.7971,-3.6849,-3.6405,-3.6405,-3.6405,-3.6405,-3.6405,0.0,0.0,0.0,0.0,0.0,0.0,0.0,-5.2351,-5.1944,-5.1243,-5.0865,-5.0581,-5.0342,-4.9925,-4.9605,-4.9605,-5.0033,0.0,0.0,0.0,0.0,0.0,0.0,0.0,-5.2112,-5.2554,-5.2915,-5.3203,-5.3203,-5.3203,-5.3203,-5.3203,-5.3203,-5.3203,-5.3203,-5.306,0.0,0.0,0.0,0.0,-4.9018,-4.9018,-4.9018,0.0,0.0,0.0,0.0,0.0,0.0,0.0,0.0,0.0,0.0,0.0,0.0,0.0,-4.329,-4.329,-4.329,-4.329,-4.329,-4.329,-4.329,-4.329,-4.329,-4.329,-4.329,-4.329,-4.3618,-4.4137,-4.4796,-4.5484,-4.6142,-4.683,-4.713,-4.7309,-4.7309,-4.7309,-4.6814,-4.5553,-4.3598,-4.2447,-4.2738,-4.1789,-4.1789,-4.3361,-4.3929,-4.4535,-4.5343,-4.421,-4.3361,-4.3026,-4.3361,-4.3789,-4.4378,-4.3408,-4.2621,-4.2124,-4.1327,-4.0632,-4.0074,-4.0404,-3.9885,-3.8783,-3.8783,-3.8783,0.0,-3.8783,-3.8783,-3.8649,-3.7494,-3.6803,-3.6405,-3.6405,-3.6405,-3.6405,0.0,0.0,0.0,0.0,0.0,0.0,0.0,-5.2647,-5.1934,-5.1315,-5.0506,-4.9762,-4.9178,-4.9052,-4.9018,-4.9018,0.0,0.0,0.0,0.0,0.0,0.0,0.0,0.0,-5.1946,-5.2018,-5.2358,-5.306,-5.3103,-5.3124,-5.3124,-5.3203,-5.3203,-5.3203,-5.3124,-5.2702,-5.1862,-5.0608,-4.9664,-4.9018,-4.9018,-4.9018,0.0,0.0,0.0,0.0,0.0,0.0,0.0,0.0,0.0,0.0,0.0,0.0,0.0,0.0,0.0,0.0,0.0,-4.329,-4.329,-4.329,-4.329,-4.329,-4.329,-4.329,0.0,-4.329,-4.329,-4.3499,-4.4197,-4.4855,-4.5514,-4.6202,-4.686,-4.7309,-4.7309,-4.7149,-4.6638,-4.5553,-4.4116,-4.2786,-4.169,-4.2593,-4.3313,-4.3504,-4.4581,-4.5298,-4.5389,-4.421,-4.4069,-4.5343,-4.4135,-4.3752,-4.4454,-4.2862,-4.2723,-4.4065,-4.1412,-4.1239,-4.317,-4.207,-4.1,0.0,-4.0,-3.9972,-3.9913,-4.0,-4.0015,-3.9885,-3.8604,-3.7494,-3.664,-3.6546,-3.6593,-3.664,0.0,0.0,0.0,0.0,0.0,0.0,0.0,0.0,0.0,0.0,-5.0552,-5.0014,-4.9862,-4.9323,-4.9018,0.0,0.0,0.0,0.0,0.0,0.0,0.0,0.0,0.0,-5.05,-5.106,-5.1419,-5.1604,-5.2089,-5.2358,-5.2358,-5.2937,-5.3203,-5.3203,-5.2599,-5.1667,-5.0527,-5.0743,-5.0118,-4.9018,-4.9018,-4.9018,0.0,0.0,0.0,0.0,-4.9018,-4.9018,0.0,0.0,0.0,0.0,0.0,0.0,0.0,0.0,-4.329,-4.329,-4.329,0.0,-4.329,-4.329,-4.329,-4.329,0.0,-4.329,-4.329,-4.329,-4.329,-4.3499,-4.4197,-4.4855,-4.5514,-4.6202,-4.686,-4.7309,-4.7309,-4.5644,-4.4627,-4.5298,-4.2544,-4.0844,-4.1541,-4.0969,-4.1419,-4.3361,-4.3787,-4.4349,-4.5343,-4.421,-4.4069,-4.5343,-4.3668,-4.3472,-4.5094,-4.4676,-4.3734,-4.2233,-4.2404,-4.2345,-4.1988,-4.1711,-4.1,-3.9956,-4.0831,-4.0703,-4.0,-4.0831,-4.1211,-4.1,-3.889,-3.8514,-3.8961,-3.8043,-3.8289,-3.905,0.0,0.0,0.0,0.0,0.0,0.0,0.0,0.0,0.0,0.0,0.0,-5.0473,-5.0135,-4.9729,0.0,0.0,0.0,0.0,0.0,0.0,0.0,0.0,0.0,-5.009,-5.0004,-5.039,-5.077,-5.1086,-5.1469,-5.179,-5.2112,-5.2196,-5.259,-5.3146,-5.2125,-5.1215,-5.0472,-5.0258,-4.9698,-4.9018,-4.9018,0.0,0.0,0.0,0.0,0.0,-4.9018,-4.9018,0.0,-4.7901,-4.7002,-4.6032,0.0,0.0,0.0,0.0,-4.329,-4.329,-4.329,-4.329,-4.329,-4.329,-4.329,-4.329,-4.329,-4.329,-4.329,-4.329,-4.329,-4.3409,-4.3768,-4.4646,-4.5424,-4.5783,-4.6681,-4.7309,-4.7309,-4.5115,-4.374,-4.4442,-4.164,-3.9981,-4.0642,-4.0642,-4.1119,-4.2496,-4.3693,-4.4674,-4.5343,-4.421,-4.4349,-4.6211,-4.3804,-4.3409,-4.5304,-4.4489,-4.3507,-4.2386,-4.2467,-4.2467,-4.2386,-4.2386,-4.1462,-3.9972,-4.1657,-4.1449,-4.0043,-4.1699,-4.207,-4.1462,-4.0204,-3.9798,-3.9798,-3.9183,-3.9316,-3.9913,0.0,0.0,0.0,0.0,0.0,0.0,0.0,0.0,0.0,0.0,0.0,0.0,0.0,0.0,0.0,0.0,0.0,0.0,0.0,0.0,0.0,0.0,-4.9018,-4.9256,-4.9833,-4.9867,-5.0146,-5.077,-5.0876,-5.1241,-5.1765,-5.1317,-5.1679,-5.2658,-5.1604,-5.0981,-5.0689,-4.9639,-4.9107,-4.9018,-4.9018,0.0,0.0,0.0,0.0,0.0,0.0,0.0,0.0,-4.8096,-4.7104,-4.6067,-4.5264,0.0,0.0,0.0,0.0,0.0,-4.329,-4.329,-4.329,-4.329,-4.329,-4.329,-4.329,-4.329,-4.329,-4.329,-4.329,-4.329,-4.329,-4.4244,-4.5066,-4.5263,-4.6241,-4.6931,-4.6726,-4.4674,-4.3218,-4.3218,-4.1119,-3.9697,-3.9697,-4.0693,-4.1468,-4.1838,-4.3882,-4.5252,-4.5689,-4.4303,-4.4645,-4.7073,-4.4027,-4.3267,-4.5155,-4.3659,-4.3001,-4.329,-4.2316,-4.2386,-4.329,-4.329,-4.214,-4.0275,0.0,0.0,-4.0318,-4.2426,-4.271,-4.1864,-4.167,-4.1,-4.0145,-4.0145,-4.0145,-4.0189,0.0,0.0,0.0,0.0,0.0,0.0,0.0,0.0,0.0,0.0,0.0,0.0,0.0,0.0,0.0,0.0,0.0,0.0,0.0,0.0,0.0,-4.9018,-4.9018,-4.9046,-4.9168,-4.9168,-4.9229,-4.9316,-4.9861,-5.0195,-5.0335,-5.085,-5.0911,-5.0597,-5.0964,-5.0452,-4.9346,-4.9693,-4.9521,-4.9018,-4.9018,0.0,0.0,0.0,0.0,0.0,0.0,0.0,0.0,-4.8829,-4.7605,-4.6173,-4.6032,0.0,0.0,0.0,0.0,0.0,-4.329,-4.329,-4.329,-4.329,-4.329,-4.329,-4.329,-4.329,-4.329,-4.329,-4.329,-4.329,-4.329,-4.3524,-4.4048,-4.5108,-4.5536,-4.5298,-4.421,-4.2834,-4.1887,-4.1887,-4.0592,-3.9697,-3.9697,-3.9878,-4.0895,-4.3074,-4.3551,-4.472,-4.6887,-4.4794,-4.4401,-4.6386,-4.3328,-4.2543,-4.4426,-4.4184,-4.3796,-4.329,-4.313,-4.313,-4.329,-4.329,-4.2589,-4.142,0.0,-4.2548,-4.142,-4.278,-4.321,-4.2941,-4.1988,-4.1504,-4.1337,-4.1337,-4.1337,-4.1462,0.0,0.0,0.0,0.0,0.0,0.0,0.0,0.0,0.0,0.0,0.0,0.0,0.0,0.0,0.0,0.0,0.0,0.0,0.0,0.0,-4.9018,-4.9018,-4.9018,-4.9018,-4.9018,-4.9018,-4.9018,-4.9018,-4.9316,-4.9634,-5.0033,-5.0743,-5.0716,-5.0067,-5.0369,-5.0146,-4.9551,-4.9492,-4.9286,-4.9018,0.0,0.0,0.0,0.0,0.0,0.0,0.0,0.0,0.0,0.0,-4.6902,-4.6032,-4.4974,0.0,0.0,0.0,0.0,0.0,-4.329,-4.329,-4.329,-4.329,-4.329,-4.329,-4.329,-4.329,-4.329,-4.329,-4.329,-4.329,-4.329,-4.3148,-4.32,-4.3803,-4.4169,-4.4163,-4.3598,-4.2398,-4.1591,-4.1591,-4.0465,-3.9697,-3.9697,-3.9697,-4.016,-4.1369,-4.2084,-4.3266,-4.5161,-4.32,-4.3361,-4.6194,-4.289,-4.2106,-4.4276,-4.3958,-4.3589,-4.329,-4.329,-4.329,-4.329,-4.329,-4.267,-4.167,0.0,-4.2629,-4.167,-4.282,-4.329,-4.325,-4.271,-4.2508,-4.2508,-4.2508,-4.2508,-4.2589,0.0,0.0,0.0,0.0,0.0,0.0,0.0,0.0,0.0,0.0,0.0,0.0,0.0,0.0,0.0,0.0,0.0,0.0,0.0,-4.9018,-4.9018,-4.9018,-4.9018,-4.9018,-4.9018,-4.9018,-4.9018,-4.9018,-4.9018,-4.9256,-4.978,-5.0342,-5.0314,-4.978,-4.978,-4.978,-4.9722,-4.9195,-4.9018,-4.9018,0.0,0.0,0.0,0.0,0.0,0.0,0.0,0.0,0.0,0.0,0.0,0.0,0.0,0.0,0.0,-4.329,-4.329,-4.329,-4.329,-4.329,-4.329,-4.329,-4.329,-4.329,-4.329,-4.329,-4.329,-4.329,-4.329,-4.329,-4.329,-4.3031,-4.268,-4.2287,-4.2691,-4.293,-4.2641,-4.1789,-4.1169,-4.1169,-4.0262,-3.9697,-3.9697,-3.9697,-3.9826,-4.0134,-4.1019,-4.2101,-4.3235,-4.1731,-4.2222,-4.5348,-4.2376,-4.178,-4.4037,-4.3559,-4.329,-4.329,-4.329,-4.329,-4.329,-4.329,-4.282,-4.207,-4.29,-4.282,-4.207,-4.2941,-4.329,-4.329,-4.329,-4.329,-4.325,-4.2981,-4.3061,-4.329,0.0,0.0,0.0,0.0,0.0,0.0,0.0,0.0,0.0,0.0,0.0,0.0,0.0,0.0,0.0,0.0,0.0,0.0,0.0,-4.9018,-4.9018,-4.9018,-4.9018,-4.9018,-4.9018,-4.9018,-4.9018,-4.9018,-4.9018,-4.9015,-4.9077,-4.9138,-4.9107,-4.9077,-4.9077,-4.9077,-4.9077,-4.9015,-4.9018,-4.9018,-4.9018,0.0,0.0,0.0,0.0,0.0,0.0,0.0,0.0,0.0,0.0,0.0,0.0,0.0,-4.329,-4.329,-4.329,-4.329,-4.329,-4.329,-4.329,-4.329,-4.329,-4.329,-4.329,-4.329,-4.329,-4.329,-4.329,-4.329,-4.329,-4.3341,-4.2766,-4.1048,-4.132,-4.1319,-4.0134,-3.9878,-3.9826,-3.9826,-3.9749,-3.9697,-3.9697,-3.9697,-4.016,-4.1369,-4.1541,-4.1941,-4.2749,-4.1516,-4.142,-4.2838,-4.1459,-4.1539,-4.3379,-4.3319,-4.329,-4.329,-4.329,-4.329,-4.329,-4.329,-4.325,-4.317,-4.325,-4.325,-4.317,-4.325,-4.329,-4.329,-4.329,-4.329,-4.317,-4.2111,-4.2386,-4.329,0.0,0.0,0.0,0.0,0.0,0.0,0.0,0.0,0.0,0.0,0.0,0.0,0.0,0.0,0.0,0.0,0.0,0.0,0.0,-4.9255,-4.9018,-4.9018,-4.9018,-4.9018,-4.9018,-4.9018,-4.9018,-4.9018,-4.9018,-4.9018,-4.9018,-4.9018,-4.9018,-4.9018,-4.9018,-4.9018,-4.9018,-4.9018,-4.9018,-4.9018,-4.9018,-4.9018,0.0,0.0,0.0,0.0,0.0,0.0,0.0,0.0,-4.6263,-4.5925,-4.4358,-4.3606,-4.329,-4.329,-4.329,-4.329,-4.329,-4.329,-4.329,-4.329,-4.329,-4.329,-4.329,-4.329,-4.329,-4.329,-4.329,-4.286,-4.1449,-4.1466,-4.1113,-3.9294,-3.9519,-3.9879,-3.975,-3.9697,-3.9697,-3.9697,-3.9697,-3.9697,-3.9697,-3.9697,-3.9878,-4.0364,-4.0082,-4.0421,-4.1442,-3.9629,-3.9801,-4.2495,-4.1022,-4.1185,-4.329,-4.329,-4.329,-4.329,-4.329,-4.329,-4.329,-4.329,-4.329,-4.329,-4.329,-4.329,-4.329,-4.329,-4.329,-4.329,-4.329,-4.329,-4.325,-4.282,-4.2941,-4.329,0.0,0.0,0.0,0.0,0.0,0.0,0.0,0.0,0.0,0.0,0.0,0.0,0.0,0.0,0.0,0.0,0.0,0.0,-5.0101,-4.939,-4.9018,-4.9018,-4.9018,-4.9018,-4.9018,-4.9018,-4.9018,-4.9018,-4.9018,-4.9018,-4.9018,-4.9018,-4.9018,-4.9018,-4.9018,-4.9018,-4.9018,-4.9018,-4.9018,-4.9018,-4.9018,-4.9018,0.0,0.0,0.0,0.0,0.0,0.0,0.0,0.0,-4.5801,-4.5488,-4.3819,-4.329,-4.329,-4.329,-4.329,-4.329,-4.329,-4.329,-4.329,-4.329,-4.329,-4.329,-4.329,-4.329,-4.329,-4.329,-4.3021,-4.2304,-4.0703,-4.0267,-3.9731,-3.8512,-3.8615,-3.9045,-3.9371,-3.9597,-3.9697,-3.9697,-3.9697,-3.9697,-3.9697,-3.9697,-3.9622,-3.9446,-3.9094,-3.9144,-3.9641,-3.8097,-3.8574,-4.1625,-4.0541,-4.1,-4.329,-4.329,-4.329,-4.329,-4.329,-4.329,-4.329,-4.329,-4.329,-4.329,-4.329,-4.329,-4.329,-4.329,-4.329,-4.329,-4.329,-4.329,-4.329,-4.329,-4.329,-4.329,0.0,0.0,0.0,0.0,0.0,0.0,0.0,0.0,-5.3518,-5.3518,0.0,0.0,0.0,0.0,0.0,0.0,0.0,0.0,-5.0135,-4.9424,-4.9018,-4.9018,-4.9018,-4.9018,-4.9018,-4.9018,-4.9018,-4.9018,-4.9018,-4.9018,-4.9018,-4.9018,-4.9018,-4.9018,-4.9018,-4.9018,-4.9018,-4.9018,-4.9018,-4.9018,-4.9018,-4.9018,-4.8917,0.0,0.0,0.0,0.0,0.0,0.0,0.0,-4.4989,-4.4624,-4.3645,-4.329,-4.329,-4.329,-4.329,-4.329,-4.329,-4.329,-4.329,-4.329,-4.329,-4.329,-4.329,-4.329,-4.329,-4.329,-4.2426,-4.1587,-4.1587,-4.0107,-3.8906,-3.8885,-3.8851,-3.8919,-3.8919,-3.9346,-3.9697,-3.9697,-3.9697,-3.9697,-3.9697,-3.9672,-3.9446,-3.8944,-3.8919,-3.8416,-3.7236,-3.7186,-3.7997,-3.9826,-3.9913,-4.1,-4.329,-4.329,-4.329,-4.329,-4.329,-4.329,-4.329,-4.329,-4.329,-4.329,-4.329,-4.329,-4.329,-4.329,-4.329,-4.329,-4.329,-4.329,-4.329,-4.329,-4.329,-4.329,0.0,0.0,0.0,0.0,0.0,0.0,0.0,0.0,-5.3518,-5.3518,-5.3518,0.0,0.0,0.0,0.0,0.0,0.0,0.0,-5.0913,-5.0168,-4.9526,-4.9018,-4.9018,-4.9018,-4.9018,-4.9018,-4.9018,-4.9018,-4.9018,-4.9018,-4.9018,-4.9018,-4.9018,-4.9018,-4.9018,-4.9018,-4.9018,-4.9018,-4.9018,-4.9018,-4.9018,-4.9018,-4.8984,0.0,0.0,0.0,0.0,0.0,0.0,0.0,0.0,0.0,-4.3645,-4.329,-4.329,-4.329,-4.329,-4.329,-4.329,-4.329,-4.329,-4.329,-4.329,-4.329,-4.329,-4.329,-4.329,-4.329,-4.3021,-4.2304,-4.0703,-3.998,-3.9186,-3.7921,-3.768,-3.7814,-3.8216,-3.8743,-3.912,-3.912,-3.912,-3.912,-3.912,-3.8743,-3.8442,-3.8266,-3.7914,-3.7538,-3.7211,-3.6857,-3.7655,-3.9826,-3.9913,-4.1,-4.329,-4.329,-4.329,-4.329,-4.329,-4.329,-4.329,-4.329,-4.329,-4.329,-4.329,-4.329,-4.329,-4.329,-4.329,-4.329,-4.329,-4.329,-4.329,-4.329,-4.329,-4.329,0.0,0.0,0.0,0.0,0.0,0.0,0.0,0.0,-5.3518,-5.3518,-5.3518,-5.3518,0.0,0.0,0.0,0.0,0.0,0.0,-5.1691,-5.0676,-4.9898,-4.9458,-4.9154,-4.9018,-4.9018,-4.9018,-4.9018,-4.9018,-4.9018,-4.9018,-4.9018,-4.9018,-4.9018,-4.9018,-4.9018,-4.9018,-4.9018,-4.9018,-4.9018,-4.9018,-4.9018,-4.9018,-4.9018,0.0,0.0,0.0,0.0,0.0,0.0,0.0,0.0,0.0,-4.3488,-4.329,-4.329,-4.329,-4.329,-4.329,-4.329,-4.329,-4.329,-4.329,-4.329,-4.329,-4.329,-4.329,-4.329,-4.329,-4.2548,-4.1532,-4.0145,-3.9139,-3.8148,-3.7071,-3.7036,-3.7287,-3.7638,-3.8165,-3.8517,-3.8517,-3.8517,-3.8517,-3.8517,-3.8216,-3.7914,-3.7688,-3.7362,-3.7086,-3.686,-3.6581,-3.7243,-3.9139,-3.9623,-4.0788,-4.2589,-4.3061,-4.329,-4.329,-4.329,-4.329,-4.329,-4.329,-4.329,-4.329,-4.329,-4.329,-4.329,-4.329,-4.329,-4.329,-4.329,-4.329,-4.329,-4.329,-4.329,-4.329,0.0,0.0,-5.3518,-5.3518,0.0,0.0,0.0,0.0,0.0,0.0,-5.3518,-5.3518,0.0,0.0,0.0,0.0,0.0,0.0,0.0,-5.1048,-5.0236,-5.0101,-4.939,-4.9018,-4.9018,-4.9018,-4.9018,-4.9018,-4.9018,-4.9018,-4.9018,-4.9018,-4.9018,-4.9018,-4.9018,-4.9018,-4.9018,-4.9018,-4.9018,-4.8984,-4.8892,-4.8861,-4.8861,-4.8798,0.0,0.0,0.0,0.0,0.0,0.0,0.0,0.0,-4.329,-4.329,-4.329,-4.329,-4.329,-4.329,-4.329,-4.329,-4.329,-4.329,-4.329,-4.329,-4.329,-4.329,-4.325,-4.317,-4.1491,-3.9972,-3.9782,-3.7997,-3.6546,-3.6405,-3.6832,-3.7111,-3.7111,-3.7588,-3.7939,-3.7939,-3.7939,-3.7939,-3.7939,-3.7889,-3.7638,-3.7136,-3.7111,-3.6885,-3.643,-3.6405,-3.6943,-3.8062,-3.9271,-4.0447,-4.1587,-4.271,-4.329,-4.329,-4.329,-4.329,-4.329,-4.329,-4.329,-4.329,-4.329,-4.329,-4.329,-4.329,-4.329,-4.329,-4.329,-4.329,-4.329,-4.329,-4.329,-4.329,0.0,0.0,-5.3518,-5.3518,0.0,0.0,0.0,0.0,0.0,0.0,0.0,0.0,0.0,0.0,0.0,0.0,0.0,0.0,0.0,-5.1995,-5.1319,-5.0135,-4.939,-4.9018,-4.9018,-4.9018,-4.9018,-4.9018,-4.9018,-4.9018,-4.9018,-4.9018,-4.9018,-4.9018,-4.9018,-4.9018,-4.9018,-4.9018,-4.9018,-4.8923,-4.8193,-4.7901,-4.7836,-4.7104,-4.6662,0.0,0.0,0.0,0.0,0.0,0.0,0.0,-4.329,-4.329,-4.329,-4.329,-4.329,-4.329,-4.329,-4.329,-4.329,-4.329,-4.329,-4.329,-4.329,-4.329,-4.3021,-4.2152,-4.1587,-4.0675,-3.8827,-3.8062,-3.7448,-3.6546,-3.6505,-3.6581,-3.6581,-3.701,-3.7362,-3.7362,-3.7362,-3.7362,-3.7362,-3.696,-3.6707,-3.6606,-3.6581,-3.6531,-3.6405,-3.6405,-3.6943,-3.8062,-3.9271,-4.0447,-4.1587,-4.271,-4.329,-4.329,-4.329,-4.329,-4.329,-4.329,-4.329,-4.329,-4.329,-4.329,-4.329,-4.329,-4.329,-4.329,-4.329,-4.329,-4.329,-4.329,-4.329,-4.329,0.0,0.0,0.0,0.0,0.0,0.0,0.0,0.0,0.0,0.0,0.0,0.0,0.0,0.0,0.0,0.0,0.0,0.0,0.0,0.0,-5.1792,-5.0676,-4.9932,-4.9526,-4.9526,-4.9187,-4.9018,-4.9018,-4.9018,-4.9018,-4.9018,-4.9018,-4.9018,-4.9018,-4.9018,-4.8767,-4.8353,-4.8829,-4.8482,-4.7671,-4.7638,-4.734,-4.6867,-4.6384,-4.5889,-4.5452,-4.4999,0.0,0.0,0.0,0.0,0.0,0.0,0.0,-4.329,-4.329,-4.329,-4.329,-4.329,-4.329,-4.329,-4.329,-4.329,-4.329,-4.329,-4.329,-4.2981,-4.1864,-4.1169,-4.0275,-3.8424,-3.7632,-3.7103,-3.6499,-3.6405,-3.6405,-3.6405,-3.6656,-3.6832,-3.6832,-3.6832,-3.6832,-3.6832,-3.6581,-3.6405,-3.6405,-3.6405,-3.6405,-3.6405,-3.6405,-3.6662,-3.7289,-3.8961,-4.0189,-4.0788,-4.1906,-4.278,-4.329,-4.278,-4.278,-4.329,-4.329,-4.329,-4.329,-4.329,-4.329,-4.329,-4.329,-4.329,-4.329,-4.329,-4.329,-4.329,-4.329,-4.329,-4.329,0.0,0.0,0.0,0.0,0.0,0.0,0.0,0.0,0.0,0.0,0.0,0.0,0.0,0.0,0.0,0.0,0.0,0.0,0.0,0.0,0.0,-5.142,-5.0676,-5.0236,-5.0101,-4.9492,-4.912,-4.9018,-4.8829,-4.8767,-4.8767,-4.8923,-4.8892,-4.8767,-4.8767,-4.8225,-4.7406,-4.8193,-4.7638,-4.6244,-4.6866,-4.6627,-4.5925,-4.5746,-4.5196,-4.4548,-4.4548,-4.4004,-4.329,-4.329,0.0,0.0,0.0,0.0,-4.329,-4.329,-4.329,-4.329,-4.329,-4.329,-4.329,-4.329,-4.329,-4.329,-4.329,-4.329,-4.2981,-4.1864,-4.0703,-3.9536,-3.8334,-3.715,-3.6405,-3.6405,-3.6405,-3.6405,-3.6405,-3.6405,-3.6405,-3.6405,-3.6405,-3.6405,-3.6405,-3.6405,-3.6405,-3.6405,-3.6405,-3.6405,-3.6405,-3.6405,-3.6405,-3.6405,-3.8675,-3.9913,-3.9913,-4.1211,-4.2386,-4.329,-4.2345,-4.2386,-4.329,-4.313,-4.313,-4.329,-4.329,-4.329,-4.329,-4.329,-4.329,-4.329,-4.329,-4.329,-4.329,-4.329,-4.329,-4.329,0.0,0.0,0.0,0.0,0.0,0.0,0.0,0.0,0.0,0.0,-5.3518,-5.3518,0.0,0.0,0.0,0.0,0.0,0.0,-5.3518,0.0,0.0,-5.2164,-5.1454,-5.0744,-5.0101,-4.9999,-4.9627,-4.9018,-4.8193,-4.7803,-4.7803,-4.8608,-4.8576,-4.7803,-4.7803,-4.7273,-4.6384,-4.6523,-4.6419,-4.6138,-4.5452,-4.5079,-4.4893,-4.4013,-4.3615,-4.3527,-4.3527,-4.3409,-4.329,-4.329,-4.329,0.0,0.0,0.0,-4.329,-4.329,-4.329,-4.329,-4.329,-4.329,-4.329,-4.329,-4.329,-4.329,-4.329,-4.329,-4.2981,-4.1864,-4.0703,-3.9536,-3.8334,-3.715,-3.6405,-3.6405,-3.6405,-3.6405,-3.6405,-3.6405,-3.6405,-3.6405,-3.6405,-3.6405,-3.6405,-3.6405,-3.6405,-3.6405,-3.6405,-3.6405,-3.6405,-3.6405,-3.6405,-3.6405,-3.8675,-3.9913,-3.9913,-4.1988,-4.317,-4.329,-4.317,-4.317,-4.325,-4.2275,-4.2386,-4.329,-4.329,-4.329,-4.329,-4.329,-4.329,-4.329,-4.329,-4.329,-4.329,-4.329,-4.329,-4.329,0.0,0.0,0.0,0.0,0.0,0.0,0.0,0.0,0.0,0.0,0.0,-5.3518,0.0,0.0,0.0,-5.3518,-5.3518,-5.3518,-5.3518,-5.3179,-5.2976,-5.2976,-5.2232,-5.1488,-5.0744,-4.9821,-4.8959,-4.8225,-4.7273,-4.6799,-4.6799,-4.7239,-4.7205,-4.6799,-4.6799,-4.6279,-4.5452,-4.5961,-4.5566,-4.4593,-4.4737,-4.4472,-4.3927,-4.3488,-4.329,-4.329,-4.329,-4.329,-4.329,-4.329,-4.329,-4.329,-4.329,0.0,0.0,0.0,-4.329,-4.329,-4.329,-4.329,-4.329,-4.329,-4.329,-4.329,-4.329,-4.329,-4.317,-4.267,-4.1657,-4.0318,-3.8424,-3.7678,-3.715,-3.6499,-3.6405,-3.6405,-3.6405,-3.6405,-3.6405,-3.6405,-3.6405,-3.6405,-3.6405,-3.6405,-3.6405,-3.6405,-3.6405,-3.6405,-3.6405,-3.6405,-3.6405,-3.6405,-3.8675,-3.9579,-3.8917,-4.1211,-4.2345,-4.2386,-4.2981,-4.329,-4.329,-4.278,-4.2467,-4.2345,-4.2345,-4.2345,-4.2426,-4.3021,-4.329,-4.329,-4.329,-4.329,-4.329,-4.329,-4.329,-4.329,0.0,0.0,0.0,0.0,0.0,0.0,0.0,0.0,0.0,0.0,0.0,0.0,0.0,0.0,0.0,0.0,-5.3518,-5.3518,-5.3518,-5.3518,-5.3518,-5.3518,-5.264,-5.1833,-5.1094,-4.9455,-4.8253,-4.75,-4.6375,-4.5818,-4.585,-4.5566,-4.5457,-4.5457,-4.5742,-4.5306,-4.4472,-4.5159,-4.4631,-4.3369,-4.412,-4.3966,-4.329,-4.329,-4.329,-4.329,-4.329,-4.329,-4.329,-4.329,-4.329,-4.329,-4.329,-4.329,0.0,0.0,0.0,-4.329,-4.329,-4.329,-4.329,-4.329,-4.329,-4.329,-4.329,-4.329,-4.329,-4.329,-4.2629,-4.142,-3.9376,-3.8514,-3.7723,-3.6593,-3.6405,-3.6405,-3.6405,-3.6405,-3.6405,-3.6405,-3.6405,-3.6405,-3.6405,-3.6405,-3.6405,-3.6405,-3.6405,-3.6405,-3.6405,-3.6405,-3.6405,-3.6405,-3.8405,-3.9006,-3.8107,-4.0419,-4.1753,-4.2029,-4.29,-4.329,-4.329,-4.2981,-4.2426,-4.1587,-4.1587,-4.142,-4.1253,-4.2386,-4.286,-4.29,-4.321,-4.329,-4.329,-4.329,-4.329,-4.329,0.0,0.0,0.0,0.0,0.0,0.0,0.0,0.0,0.0,0.0,0.0,0.0,-5.3518,-5.3518,-5.3518,-5.3518,-5.3518,-5.3518,-5.3518,-5.3518,-5.3518,-5.3518,-5.2489,0.0,-5.0839,-4.9192,-4.7974,-4.7229,-4.5651,-4.4887,-4.4849,-4.3888,-4.3448,-4.3497,-4.4434,-4.432,-4.3369,-4.3448,-4.3409,-4.329,-4.3369,-4.3329,-4.329,-4.329,-4.329,-4.329,-4.329,-4.329,-4.329,-4.329,-4.329,-4.329,-4.329,-4.329,-4.329,0.0,0.0,0.0,-4.329,-4.329,-4.329,-4.329,-4.329,-4.329,-4.329,-4.329,-4.329,-4.329,-4.325,-4.286,-4.1629,-3.9596,-3.7723,-3.6593,-3.6405,-3.6405,-3.6405,-3.6405,-3.6405,-3.6405,-3.6405,-3.6405,-3.6405,-3.6405,-3.6405,-3.6405,-3.6405,-3.6405,-3.6405,-3.6405,-3.6405,-3.6405,-3.754,-3.8153,-3.8107,-4.0419,-4.2152,-4.321,-4.325,-4.329,-4.325,-4.2193,-4.167,-4.1587,-4.1587,-4.1,-4.0059,-4.1211,-4.167,-4.1794,-4.29,-4.329,-4.329,-4.329,-4.329,-4.329,0.0,0.0,0.0,0.0,0.0,0.0,0.0,0.0,0.0,0.0,0.0,0.0,0.0,-5.3518,-5.3518,-5.3518,-5.3518,-5.3518,-5.3518,-5.287,-5.2454,-5.2454,-5.1484,-5.0607,-4.9863,-4.8257,-4.7031,-4.6266,-4.4657,-4.3849,-4.3849,-4.3488,-4.329,-4.3329,-4.3654,-4.3615,-4.329,-4.329,-4.329,-4.329,-4.329,-4.329,-4.329,-4.329,-4.329,-4.329,-4.329,-4.329,-4.329,-4.329,-4.329,-4.329,-4.329,-4.329,-4.329,-4.329,-4.329,-4.329,-4.329,-4.329,-4.329,-4.329,-4.329,-4.329,-4.329,-4.329,-4.329,-4.329,-4.329,-4.2941,-4.1794,-4.0887,-3.9727,-3.7815,-3.7494,-3.7243,-3.6499,-3.6405,-3.6405,-3.6405,-3.6405,-3.6405,-3.6405,-3.6405,-3.6405,-3.6405,-3.6405,-3.6405,-3.6405,-3.6405,-3.6405,-3.6405,-3.7494,-3.8469,-3.9227,-3.9332,-4.0333,-4.2193,-4.2193,-4.2589,-4.329,-4.29,-4.2275,-4.1587,-4.1587,-4.0958,-4.0043,-4.1906,-4.2234,-4.1711,-4.286,-4.329,-4.329,-4.329,-4.329,-4.329,0.0,0.0,0.0,-5.3518,0.0,-5.3518,-5.3518,-5.3518,-5.3518,-5.3518,0.0,0.0,0.0,0.0,-5.2835,-5.2487,-5.2451,-5.2451,-5.2451,-5.1776,-5.1377,-5.1377,-5.0435,-4.9631,-4.9117,-4.7548,-4.6343,-4.5559,-4.4278,-4.3499,-4.329,-4.329,-4.329,-4.329,-4.329,-4.329,-4.329,-4.329,-4.329,-4.329,-4.329,-4.329,-4.329,-4.329,-4.329,-4.329,-4.329,-4.329,-4.329,-4.329,-4.329,-4.329,-4.329,-4.329,-4.329,-4.329,-4.329,-4.329,-4.329,-4.329,-4.329,-4.329,-4.329,-4.329,-4.329,-4.329,-4.329,-4.329,-4.329,-4.3061,-4.2316,-4.2152,-4.142,-3.9094,-3.8379,-3.7861,-3.7057,-3.6615,-3.6405,-3.6405,-3.6405,-3.6405,-3.6405,-3.6405,-3.6405,-3.6405,-3.6405,0.0,-3.6405,-3.6405,-3.6405,-3.6405,-3.715,-3.8107,-3.9271,-3.8514,-3.9067,-4.1042,-4.142,-4.1988,-4.2739,-4.313,-4.29,-4.2152,-4.2152,-4.1295,-4.0043,-4.1947,-4.2275,-4.1711,-4.286,-4.329,-4.329,-4.329,-4.329,-4.329,-5.3518,-5.3518,-5.3518,-5.3518,-5.3518,-5.3518,-5.3518,-5.345,-5.345,-5.345,0.0,0.0,0.0,0.0,0.0,-5.0474,-5.0397,-5.0397,-5.0397,-5.0358,-5.0358,-5.0358,-4.9336,-4.8759,-4.8759,-4.711,-4.5963,-4.5304,-4.4616,-4.3958,-4.329,-4.329,-4.329,-4.329,-4.329,-4.329,-4.329,-4.329,-4.329,-4.329,-4.329,-4.329,-4.329,-4.329,-4.329,-4.329,-4.329,-4.329,-4.329,-4.329,-4.329,-4.329,-4.329,-4.329,-4.329,-4.329,-4.329,-4.329,0.0,0.0,0.0,-4.329,-4.329,-4.329,-4.329,-4.329,-4.329,-4.329,-4.329,-4.329,-4.329,-4.329,-4.2578,-4.0361,-3.9006,-3.8198,-3.8107,-3.7196,-3.6499,-3.6405,-3.6452,-3.6452,-3.6405,-3.6405,-3.6405,-3.6405,-3.6405,-3.6405,-3.6405,-3.6405,-3.6405,-3.6405,-3.6405,-3.6943,-3.8017,-3.8062,-3.8649,-3.9869,-4.0958,-4.1545,-4.1629,-4.278,-4.325,-4.329,-4.329,-4.2029,-4.0087,-4.1211,-4.1629,-4.1711,-4.286,-4.329,-4.329,-4.329,-4.329,-4.329,-5.3518,-5.3518,-5.3518,-5.3518,-5.3518,-5.3518,-5.3518,-5.2835,-5.2348,0.0,0.0,0.0,-5.1262,-5.0968,-5.0703,-5.0435,-5.0397,-5.0397,-5.0397,-4.9655,-4.9256,-4.9256,-4.8252,-4.7722,-4.7722,-4.6311,-4.5484,-4.5304,-4.4167,-4.3469,-4.329,-4.329,-4.329,-4.329,-4.329,-4.329,-4.329,-4.329,-4.329,-4.329,-4.329,-4.329,-4.329,-4.329,-4.329,-4.329,-4.329,-4.329,-4.329,-4.329,-4.329,-4.329,-4.329,-4.329,-4.329,-4.329,-4.329,-4.329,-4.329,0.0,0.0,0.0,0.0,0.0,-4.329,-4.329,-4.329,-4.329,-4.329,-4.329,-4.329,-4.329,-4.3061,-4.2467,-4.1378,-4.0031,-3.8334,-3.8559,-3.8315,-3.6593,-3.715,-3.7335,-3.6499,-3.6405,-3.6405,0.0,-3.6405,-3.6405,-3.6405,-3.6405,-3.6405,-3.6405,-3.6405,-3.6546,-3.6896,-3.6896,-3.7474,-3.8604,-3.889,-3.9988,-4.1587,-4.1947,-4.2508,-4.329,-4.329,-4.2941,-4.2386,-4.2699,-4.2345,-4.1711,-4.286,-4.329,-4.329,-4.329,-4.329,-4.329,-5.3518,-5.3144,-5.2835,-5.2835,-5.2487,-5.2238,-5.2238,-5.1667,-5.1266,0.0,0.0,0.0,-4.9773,-4.9734,-4.9536,-4.9125,-4.9085,-4.9085,-4.9085,-4.8543,-4.8168,-4.8168,-4.7593,-4.7189,-4.689,-4.6142,-4.5454,-4.4885,-4.4107,-4.3559,-4.329,-4.329,-4.329,-4.329,-4.329,-4.329,-4.329,-4.329,-4.329,-4.329,-4.329,-4.329,-4.329,-4.329,-4.329,-4.329,-4.329,-4.329,-4.329,-4.329,-4.329,-4.329,-4.329,-4.329,-4.329,-4.329,-4.329,-4.329,-4.329,-4.329,-4.329,-4.329,0.0,0.0,-4.329,-4.329,-4.329,-4.329,-4.329,-4.329,-4.329,-4.329,-4.329,-4.329,-4.2739,-4.167,-3.9814,-3.9754,-3.9404,-3.7997,-3.7971,-3.7861,-3.715,-3.6662,-3.6405,-3.6405,-3.6405,-3.6405,-3.6405,-3.6405,-3.6615,-3.7103,-3.7103,-3.7103,-3.7103,-3.7103,-3.7196,-3.7402,-3.7861,-3.8801,-4.0161,-4.0661,-4.1253,-4.1906,-4.2386,-4.2589,-4.2629,-4.313,-4.29,-4.2386,-4.3021,-4.329,-4.329,-4.329,-4.329,-4.329,0.0,-5.2383,-5.174,-5.174,-5.1005,-5.0397,-5.0397,-5.0281,-5.0204,0.0,-5.0126,-4.9694,-4.8759,-4.8636,-4.8252,-4.7396,-4.7309,-4.7309,-4.7309,-4.7309,-4.7309,-4.7309,-4.7249,-4.692,-4.6279,-4.613,-4.5514,-4.4317,-4.4257,-4.3858,-4.329,-4.329,-4.329,-4.329,-4.329,-4.329,-4.329,-4.329,-4.329,-4.329,-4.329,-4.329,-4.329,-4.329,-4.329,-4.329,-4.329,-4.329,-4.329,-4.329,-4.329,-4.329,-4.329,-4.329,-4.329,-4.329,-4.329,-4.329,-4.329,-4.329,-4.329,-4.329,-4.329,0.0,-4.329,-4.329,-4.329,-4.329,-4.329,-4.329,-4.329,-4.329,-4.329,-4.329,-4.329,-4.29,-4.1753,-4.0831,-4.0189,-3.9956,-3.905,-3.8379,-3.8107,-3.7289,-3.6662,-3.6405,-3.6405,-3.6405,-3.6405,-3.6405,-3.6849,-3.788,-3.788,-3.7971,-3.8107,-3.8107,-3.7678,-3.6803,-3.7815,-3.8289,-3.8334,-3.9404,-3.9913,-3.9956,-4.0958,-4.142,-4.1504,-4.2629,-4.321,-4.329,-4.329,-4.329,-4.329,-4.329,-4.329,-4.329,-5.1005,-5.0817,-5.0703,-5.0703,-5.0512,-5.0397,-5.0397,-4.9655,-4.9094,-4.9094,-4.8418,-4.7807,-4.7624,-4.7624,-4.7495,-4.7309,-4.7309,-4.7309,-4.7309,-4.7309,-4.7309,-4.7309,-4.68,-4.6399,-4.6279,-4.5244,-4.4586,-4.4317,-4.3738,-4.3409,-4.329,-4.329,-4.329,-4.329,-4.329,-4.329,-4.329,-4.329,-4.329,-4.329,-4.329,-4.329,-4.329,-4.329,-4.329,-4.329,-4.329,-4.329,-4.329,-4.329,-4.329,-4.329,-4.329,-4.329,-4.329,-4.329,-4.329,-4.329,-4.329,-4.329,-4.329,-4.329,-4.329,0.0,-4.329,-4.329,-4.329,-4.329,-4.329,-4.329,-4.329,-4.329,-4.329,-4.329,-4.329,-4.29,-4.1753,-4.2193,-4.1947,-4.013,-4.049,-4.0204,-3.8289,-3.8783,-3.845,-3.6546,-3.6405,-3.6405,-3.6405,-3.6405,-3.6499,-3.6709,-3.6709,-3.715,-3.8107,-3.8107,-3.8469,-3.9227,-3.9448,-3.9536,-3.9536,-3.9798,-3.9913,-3.9913,-4.0145,-4.0232,-4.0318,-4.1462,-4.2467,-4.329,-4.329,-4.329,-4.329,-4.329,-4.329,-4.329,-5.0397,-4.997,-4.9615,-4.9615,-4.9206,-4.8841,-4.8841,-4.8377,-4.8072,-4.8072,-4.7593,-4.7309,-4.7309,-4.7309,-4.7309,-4.7309,-4.7309,-4.7309,-4.7309,-4.7309,-4.7309,-4.7309,-4.6681,-4.613,-4.5813,-4.4825,-4.4167,-4.3798,-4.3439,-4.329,-4.329,-4.329,-4.329,-4.329,-4.329,-4.329,-4.329,-4.329,-4.329,-4.329,-4.329,-4.329,-4.329,-4.329,-4.329,-4.329,-4.329,-4.329,-4.329,-4.329,-4.329,-4.329,-4.329,-4.329,-4.329,-4.329,-4.329,-4.329,-4.329,-4.329,-4.329,-4.329,-4.329,0.0,0.0,-4.329,-4.329,-4.329,-4.329,-4.329,-4.329,-4.329,-4.329,-4.329,-4.329,-4.313,-4.2548,-4.2941,-4.286,-4.174,-4.1587,-4.114,-3.9988,-3.9885,-3.9139,-3.7356,-3.7243,-3.701,-3.6452,-3.6405,-3.6662,-3.7243,-3.7243,-3.7815,-3.9006,-3.9006,-3.9316,-3.9913,-3.9913,-3.9579,-3.9006,-3.9623,-3.9271,-3.8225,-3.9404,-3.9536,-3.9094,-4.0275,-4.142,-4.2508,-4.3061,-4.329,-4.329,-4.329,-4.329,-4.329,-4.9773,-4.9125,-4.8512,-4.8512,-4.7849,-4.7309,-4.7309,-4.7309,-4.7309,-4.7309,-4.7309,-4.7309,-4.7309,-4.7309,-4.7309,-4.7309,-4.7309,-4.7309,-4.7309,-4.7189,-4.713,-4.713,-4.6352,-4.5663,-4.5125,-4.4466,-4.3828,-4.329,-4.329,-4.329,-4.329,-4.329,-4.329,-4.329,-4.329,-4.329,-4.329,-4.329,-4.329,-4.329,-4.329,-4.329,-4.329,-4.329,-4.329,-4.329,-4.329,-4.329,-4.329,-4.329,-4.329,-4.329,-4.329,-4.329,-4.329,-4.329,-4.329,-4.329,-4.329,-4.329,-4.329,-4.329,-4.329,-4.329,0.0,0.0,0.0,-4.329,-4.329,-4.329,-4.329,-4.329,-4.329,-4.329,-4.329,-4.329,-4.329,-4.329,0.0,-4.329,-4.2508,-4.1864,-4.1629,-4.0575,-3.9492,-3.8514,-3.8243,-3.7586,-3.6452,-3.6405,-3.6803,-3.7769,-3.7769,-3.8334,-3.9536,-3.9536,-3.9667,-3.9913,-4.0102,-3.9623,-3.8514,-3.9667,-3.905,-3.715,-3.8827,-3.9139,-3.8514,-3.9227,-4.0232,-4.1378,-4.2508,-4.313,-4.329,-4.329,-4.329,-4.329,-4.7666,-4.7538,-4.7452,-4.7452,-4.7396,-4.7309,-4.7309,-4.7309,-4.7309,-4.7309,-4.7309,-4.7309,-4.7309,-4.7309,-4.7309,-4.7309,-4.7309,-4.7309,-4.7309,-4.6741,-4.6399,-4.6399,-4.5214,-4.4496,-4.4436,-4.3738,-4.3379,-4.329,-4.329,-4.329,-4.329,-4.329,-4.329,-4.329,-4.329,-4.329,-4.329,-4.329,-4.329,-4.329,-4.329,-4.329,-4.329,-4.329,-4.329,-4.329,-4.329,-4.329,-4.329,-4.329,-4.329,-4.329,-4.329,-4.329,-4.329,-4.329,-4.329,-4.329,-4.329,-4.329,-4.329,-4.329,-4.329,-4.329,-4.329,0.0,-4.329,-4.329,0.0,-4.329,-4.329,0.0,0.0,-4.329,-4.329,-4.329,-4.329,-4.329,-4.329,-4.329,-4.321,-4.271,-4.1711,-4.0575,-3.9842,-3.9711,-3.8693,-3.7586,-3.6452,-3.6405,-3.6452,-3.6593,-3.6593,-3.715,-3.8289,-3.8289,-3.8827,-3.9913,-4.0916,-4.0831,-3.9711,-4.0873,-4.0703,-3.9448,-3.8649,-3.8827,-3.9623,-3.8693,-3.9006,-4.0189,-4.1337,-4.2426,-4.329,-4.329,-4.329,-4.329,-4.7309,-4.7309,-4.7309,-4.7309,-4.7309,-4.7309,-4.7309,-4.7309,-4.7309,-4.7309,-4.7309,-4.7309,-4.7309,-4.7309,-4.7309,-4.7309,-4.7309,-4.713,-4.677,-4.6429,-4.6142,-4.5753,-4.4825,-4.4317,-4.4317,-4.3618,-4.329,-4.329,-4.329,-4.329,-4.329,-4.329,-4.329,-4.329,-4.329,-4.329,-4.329,-4.329,-4.329,-4.329,-4.329,-4.329,-4.329,-4.329,-4.329,-4.329,-4.329,-4.329,-4.329,-4.329,-4.329,-4.329,-4.329,-4.329,-4.329,-4.329,-4.329,-4.329,-4.329,-4.329,-4.329,-4.329,-4.329,-4.329,-4.329,-4.329,-4.329,-4.329,0.0,0.0,0.0,0.0,0.0,0.0,-4.329,-4.329,-4.329,0.0,-4.329,-4.329,0.0,0.0,-4.2629,-4.2152,-4.1616,-4.0916,-4.0419,-3.9332,-3.7494,-3.7356,-3.7057,-3.6405,-3.6405,-3.6943,-3.8107,-3.8107,-3.8693,-3.9913,-4.1042,-4.1,-3.9956,-4.1085,-4.059,-3.8872,-3.905,-3.905,-3.8872,-3.905,-3.9842,-4.0873,-4.0703,-4.1295,-4.2386,-4.3061,-4.329,-4.3349,-4.7309,-4.7309,-4.7309,-4.7309,-4.7309,-4.7309,-4.7309,-4.7309,-4.7309,-4.7309,-4.7309,-4.7309,-4.7309,-4.7309,-4.7309,-4.7309,-4.713,-4.683,-4.6309,-4.595,-4.5544,-4.5035,-4.4407,-4.4047,-4.4047,-4.3529,-4.329,-4.329,-4.329,-4.329,-4.329,-4.329,-4.329,-4.329,-4.329,-4.329,-4.329,-4.329,-4.329,-4.329,-4.329,-4.329,-4.329,-4.329,-4.329,-4.329,-4.329,-4.329,-4.329,-4.329,-4.329,0.0,-4.329,-4.329,-4.329,0.0,0.0,-4.329,-4.329,-4.329,-4.329,-4.329,-4.329,-4.329,-4.329,-4.329,-4.329,-4.329,-4.329,0.0,0.0,0.0,0.0,-4.329,0.0,-4.329,-4.329,-4.329,-4.329,-4.329,-4.329,0.0,0.0,-4.329,-4.282,-4.167,-4.1587,-4.059,-3.8243,-3.8107,-3.7664,-3.6679,-3.6631,-3.7108,-3.8054,-3.8054,-3.8517,-3.9402,-4.053,-4.069,-3.9895,-4.1426,-4.0966,-3.9104,-4.0382,-4.0426,-3.9599,-4.0206,-4.1124,-4.2021,-4.0864,-4.0907,-4.1738,-4.2749,-4.3288,-4.3648,-4.7309,-4.7309,-4.7309,-4.7309,-4.7309,-4.7309,-4.7309,-4.7309,-4.7309,-4.7309,-4.7309,-4.7309,-4.7309,-4.7309,-4.7309,-4.7309,-4.6741,-4.6309,-4.6279,-4.5053,-4.4377,-4.4347,-4.3678,-4.3319,-4.3319,-4.329,-4.329,-4.329,-4.329,-4.329,-4.329,-4.329,-4.329,-4.329,-4.329,-4.329,-4.329,-4.329,-4.329,-4.329,-4.329,-4.329,-4.329,-4.329,-4.329,-4.329,-4.329,-4.329,0.0,-4.329,-4.329,0.0,0.0,0.0,0.0,0.0,0.0,0.0,0.0,0.0,0.0,-4.329,0.0,0.0,0.0,-4.329,-4.329,0.0,0.0,0.0,0.0,0.0,0.0,0.0,0.0,0.0,0.0,-4.329,-4.329,-4.329,-4.329,0.0,0.0,-4.329,-4.282,-4.167,-4.1587,-4.059,-3.8243,-3.8107,-3.7846,-3.7184,-3.7161,-3.7461,-3.7989,-3.7989,-3.8038,-3.8087,-3.9251,-3.9823,-3.987,-4.2228,-4.2628,-4.1461,-4.2861,-4.3387,-4.314,-4.2139,-4.2435,-4.3415,-4.215,-4.1653,-4.1796,-4.2367,-4.3294,-4.4377,-4.7309,-4.7309,-4.7309,-4.7309,-4.7309,-4.7309,-4.7309,-4.7309,-4.7309,-4.7309,-4.7309,-4.7309,-4.7309,-4.692,-4.6651,-4.6651,-4.6052,-4.5454,-4.5035,-4.4556,-4.4107,-4.3648,-4.3409,-4.329,-4.329,-4.329,-4.329,-4.329,-4.329,-4.329,-4.329,-4.329,-4.329,-4.329,-4.329,-4.329,-4.325,-4.2508,-4.2152,-4.2152,-4.2152,-4.174,-4.1239,-4.2739,-4.329,-4.329,-4.329,-4.329,0.0,-4.329,-4.329,-4.329,-4.329,-4.329,-4.329,-4.329,-4.329,-4.329,0.0,0.0,-4.329,-4.329,0.0,0.0,0.0,0.0,0.0,0.0,0.0,0.0,0.0,0.0,0.0,0.0,0.0,0.0,0.0,-4.329,-4.329,-4.329,-4.329,-4.329,0.0,0.0,-4.317,-4.278,-4.271,-4.207,-4.0504,-4.0041,-3.9336,-3.835,-3.795,-3.7814,-3.8015,-3.8015,-3.8015,-3.8015,-3.9232,-3.9781,-3.9828,-4.0649,-4.0761,-4.0462,-4.1799,-4.234,-4.2357,-4.3618,-4.4334,-4.4617,-4.3429,-4.3401,-4.4006,-4.3387,-4.3386,-4.3929,-4.7309,-4.7309,-4.7309,-4.7309,-4.7309,-4.7309,-4.7309,-4.7309,-4.7309,-4.7309,-4.7309,-4.7219,-4.698,-4.6591,-4.619,-4.5992,-4.5334,-4.4766,-4.4347,-4.4107,-4.3738,-4.3319,-4.329,-4.329,-4.329,-4.329,-4.329,-4.329,-4.329,-4.329,-4.329,-4.329,-4.329,-4.329,-4.329,-4.329,-4.325,-4.207,-4.1587,-4.1545,-4.1169,-4.0575,-4.0059,-4.1532,-4.2345,-4.2629,0.0,-4.2345,-4.267,-4.267,-4.267,-4.278,-4.317,-4.329,-4.329,-4.329,-4.329,-4.329,-4.329,-4.329,0.0,-4.329,-4.329,0.0,-4.329,0.0,-4.329,0.0,0.0,0.0,0.0,0.0,0.0,0.0,0.0,0.0,0.0,-4.329,-4.329,-4.329,-4.329,-4.329,-4.329,-4.329,-4.329,-4.329,-4.329,-4.2909,-4.1987,-4.1163,-4.0377,-3.9585,-3.8779,-3.8417,-3.8592,-3.8592,-3.8843,-3.9314,-4.0073,-4.0434,-4.0434,-4.0914,-4.0867,-4.0483,-4.1786,-4.2343,-4.2482,-4.4487,-4.5368,-4.5282,-4.4516,-4.4691,-4.5181,-4.4182,-4.424,-4.4966,-4.7222,-4.7149,-4.7106,-4.7106,-4.7149,-4.7222,-4.7309,-4.7222,-4.7149,-4.7163,-4.7119,-4.6808,-4.6152,-4.6062,-4.5764,-4.5221,-4.4564,-4.4176,-4.4257,-4.3648,-4.329,-4.329,-4.329,-4.329,-4.329,-4.329,-4.329,-4.329,-4.329,-4.329,-4.329,-4.329,-4.329,-4.329,-4.329,-4.325,-4.317,-4.1988,-4.1462,-4.1253,-4.0232,-3.9782,-3.9711,-3.9782,-4.049,-4.1295,-4.0275,-4.0618,-4.1504,-4.1504,-4.1504,-4.1711,-4.282,-4.313,-4.313,-4.313,-4.313,-4.317,-4.321,-4.321,-4.325,-4.329,-4.329,0.0,0.0,0.0,-4.329,0.0,0.0,0.0,0.0,0.0,0.0,0.0,0.0,0.0,0.0,-4.329,-4.329,-4.329,-4.329,-4.329,-4.329,-4.329,-4.329,-4.329,-4.329,-4.3127,0.0,-4.1502,-4.085,-4.0887,-3.9745,-3.9348,-3.9775,-3.9826,-4.0516,-4.169,-4.169,-4.169,-4.1739,-4.293,-4.2834,-4.1739,-4.3026,-4.3551,-4.3598,-4.4932,-4.5434,-4.5389,-4.5434,-4.5508,-4.5421,-4.486,-4.5771,-4.7309,-4.6077,-4.5115,-4.4489,-4.4489,-4.5252,-4.6211,-4.7149,-4.5689,-4.467,-4.5229,-4.4473,-4.3647,-4.3024,-4.2499,-4.2509,-4.3222,-4.2682,-4.2661,-4.3489,-4.3379,-4.329,-4.329,-4.329,-4.329,-4.329,-4.329,-4.329,-4.329,-4.329,-4.329,-4.329,-4.329,-4.329,-4.329,-4.329,-4.282,-4.1947,-4.0831,-3.9316,-3.7769,-3.8334,-3.8043,-3.7381,0.0,-3.8711,-3.9067,-3.9667,-4.0059,-4.0318,-4.0318,-4.0318,-4.0361,-4.0661,-4.0746,-4.0746,-4.0746,-4.0746,-4.0986,-4.1823,-4.2029,-4.2234,-4.3061,-4.329,-4.329,0.0,0.0,0.0,0.0,0.0,0.0,0.0,0.0,0.0,0.0,0.0,0.0,0.0,-4.329,-4.329,-4.329,-4.329,-4.329,-4.329,-4.329,-4.329,-4.329,-4.329,-4.3439,-4.382,0.0,-4.2514,-4.2051,-4.2229,-4.1923,-4.1119,-4.2035,-4.2689,-4.3026,-4.3026,-4.3026,-4.3026,-4.3361,-4.3313,-4.3074,-4.4349,-4.4396,-4.3693,-4.5913,-4.6255,-4.5508,-4.6432,-4.6814,-4.6653,-4.5605,-4.6064,-4.7309,-4.5553,-4.4349,-4.3504,-4.3504,-4.3424,-4.3817,-4.5075,-4.4093,-4.3194,-4.3381,-4.2726,-4.2094,-4.1412,-4.1052,-4.0968,-4.1368,-4.1071,-4.1337,-4.2467,-4.2548,-4.278,-4.329,-4.329,-4.329,-4.329,-4.329,-4.3061,-4.2548,-4.2548,-4.2304,-4.1823,-4.1823,-4.1823,-4.1823,-4.1823,-4.1449,-4.0788,-3.9623,-3.8088,-3.6452,-3.7103,-3.6964,0.0,-3.7103,-3.7381,-3.7474,-3.8134,-3.8693,-3.9094,-3.9094,-3.9094,-3.9183,-3.9711,-3.9913,-3.9913,-3.9913,-3.9913,-4.0015,-4.0703,-4.0873,-4.1,-4.1657,-4.2222,-4.2548,-4.2548,-4.2941,-4.329,0.0,-4.329,-4.329,0.0,0.0,0.0,0.0,0.0,0.0,0.0,-4.329,-4.329,-4.329,-4.329,-4.329,-4.329,-4.329,-4.329,-4.329,-4.3559,-4.4047,0.0,0.0,-4.3824,-4.3768,-4.3593,-4.317,-4.2447,-4.3122,-4.3787,-4.4303,-4.4303,-4.4303,-4.4303,-4.4303,-4.4303,-4.4349,-4.4489,-4.4489,-4.4442,-4.5869,-4.6077,-4.5553,-4.677,-4.7309,-4.7222,-4.6506,-4.6682,-4.7309,-4.4978,-4.3826,-4.2917,-4.2917,-4.1518,-4.0781,-4.1813,-4.2054,-4.1937,-4.1489,-4.1315,-4.0932,-4.0285,-4.023,-4.0083,-3.9678,-3.9667,-4.0145,-4.1295,-4.1378,-4.1823,-4.282,-4.286,-4.286,-4.286,-4.286,-4.2386,-4.1378,-4.1378,-4.0873,-3.9913,-3.9913,-3.9913,-3.9913,-3.9913,-3.9798,-3.9579,-3.8379,-3.7335,-3.6405,-3.6405,-3.6405,-3.6405,-3.6405,-3.6405,-3.6405,-3.6405,-3.701,-3.788,-3.788,-3.788,-3.8088,-3.9203,-3.954,-3.954,-3.9622,-3.9649,-3.9694,-3.9826,-3.987,-3.9914,-4.009,-4.0843,-4.1566,-4.1566,-4.2497,-4.3328,-4.3328,-4.3389,-4.3409,0.0,0.0,0.0,0.0,0.0,0.0,-4.329,-4.3379,-4.3379,-4.329,-4.3379,0.0,-4.3409,-4.3349,-4.3319,-4.3409,-4.3947,-4.4646,0.0,0.0,-4.4889,-4.5389,-4.4489,-4.3929,-4.374,-4.3929,-4.4535,-4.5644,-4.5644,-4.5644,-4.5644,-4.5644,-4.5644,-4.5598,-4.4489,-4.4535,-4.5389,-4.5598,-4.5644,-4.5779,-4.6887,-4.7309,-4.7309,-4.7309,-4.7309,-4.7309,-4.2689,-4.0877,-3.9724,-3.9724,-3.9039,-3.8407,-3.8191,-3.8546,-3.901,-3.9515,-3.8668,-3.7778,-3.7241,-3.7164,-3.7531,-3.8334,-3.8424,-3.8917,-4.0102,-4.0189,-4.0275,-4.0518,-4.0518,-4.0518,-4.0518,-4.0518,-4.0404,-4.0189,-4.0189,-4.0102,-3.9913,-3.9913,-3.9913,-3.9913,-3.9913,-3.936,-3.8334,-3.7196,-3.6593,-3.6405,-3.6405,-3.6405,-3.6405,-3.6405,-3.6405,-3.6405,-3.6405,-3.6546,-3.6709,-3.6709,-3.6709,-3.6785,-3.7479,-3.768,-3.7756,-3.8168,-3.8321,-3.8537,-3.9538,-3.9794,-4.0027,-4.0987,-4.1394,-4.1529,-4.1529,-4.2505,-4.3357,-4.3357,-4.3767,-4.4137,-4.4137,0.0,0.0,0.0,0.0,0.0,0.0,-4.3768,-4.3917,-4.3349,-4.3768,-4.4137,-4.4137,-4.3618,-4.3529,-4.4067,-4.4257,0.0,0.0,0.0,-4.5785,0.0,-4.6211,0.0,0.0,0.0,-4.6726,-4.6975,-4.6975,-4.6975,-4.6975,-4.6975,-4.6975,-4.6975,-4.6726,-4.6166,-4.5479,-4.655,-4.6975,-4.6975,-4.7222,-4.7309,-4.7309,-4.7309,-4.7309,-4.7309,-4.0086,-3.9017,-3.8417,-3.8417,-3.7965,-3.7487,-3.7236,-3.7161,-3.7276,-3.7634,-3.7162,-3.6707,-3.643,-3.6405,-3.6615,-3.715,-3.7243,-3.7723,-3.8872,-3.8961,-3.9227,-3.9869,-3.9913,-3.9913,-3.9913,-3.9913,-3.9579,-3.8961,-3.8961,-3.8649,-3.8088,-3.8088,-3.8088,-3.8088,-3.8088,-3.7769,-3.7196,-3.6615,-3.6405,-3.6405,-3.6405,-3.6405,-3.6405,-3.6405,-3.6405,-3.6405,-3.6405,-3.6405,-3.6405,-3.6405,-3.6606,-3.6835,-3.7111,-3.7387,-3.7663,-3.7939,-3.8015,-3.8138,-3.87,-3.8846,-3.8991,-3.9564,-4.0153,-4.0622,-4.0622,-4.1516,-4.2418,-4.2418,-4.2634,-4.307,-4.3696,-4.4116,0.0,0.0,0.0,0.0,0.0,0.0,-4.4706,-4.4377,0.0,0.0,-4.4825,-4.4526,-4.4496,-4.4796,-4.5155,0.0,0.0,0.0,-4.6691,0.0,0.0,0.0,-4.6388,0.0,-4.7309,-4.7309,-4.7309,-4.7309,-4.7309,-4.7309,-4.7309,-4.7309,-4.7309,-4.6975,-4.6432,-4.7062,-4.7309,-4.7309,-4.7309,-4.7309,-4.7309,-4.7309,-4.7309,-4.7309,-3.8212,-3.7914,-3.7839,-3.7839,-3.7387,-3.701,-3.701,-3.6681,-3.6405,-3.6405,-3.6405,-3.6405,-3.6405,-3.6405,-3.6405,-3.6405,-3.6405,-3.6803,-3.7678,-3.7769,-3.8153,-3.9094,-3.9139,-3.9139,-3.9139,-3.9139,-3.8693,-3.7769,-3.7769,-3.7289,-3.6405,-3.6405,-3.6405,-3.6405,-3.6405,0.0,0.0,0.0,-3.6405,-3.6405,-3.6405,-3.6405,-3.6405,-3.6405,-3.6405,-3.6405,-3.6405,-3.6405,-3.643,-3.6531,-3.6883,-3.7211,-3.7312,-3.7739,-3.8216,-3.8341,-3.8366,-3.8366,-3.8366,-3.8366,-3.8366,-3.8366,-3.9084,-3.979,-3.979,-4.0695,-4.1532,-4.1532,-4.1608,-4.2001,-4.2846,-4.4048,0.0,0.0,0.0,0.0,0.0,0.0,-4.5454,0.0,0.0,0.0,-4.5514,-4.5514,-4.5574,-4.5693,0.0,0.0,-4.6531,0.0,0.0,0.0,0.0,-4.7309,-4.7309,0.0,-4.7309,-4.7309,-4.7309,-4.7309,-4.7309,-4.7309,-4.7309,-4.7309,-4.7309,-4.7309,-4.7309,-4.7309,-4.7309,-4.7309,-4.7309,-4.7309,-4.7309,-4.7309,-4.7309,-4.7309,-3.8115,-3.7613,-3.7262,-3.7262,-3.6857,-3.648,-3.648,-3.643,-3.6405,-3.6405,-3.6405,-3.6405,-3.6405,-3.6405,-3.6405,-3.6405,-3.6405,-3.6452,-3.6546,-3.6546,-3.6615,-3.6709,-3.6709,-3.6709,-3.6709,-3.6709,-3.6662,-3.6546,-3.6546,-3.6499,-3.6405,-3.6405,0.0,0.0,0.0,0.0,0.0,-3.6405,-3.6405,-3.6405,-3.6405,-3.6405,-3.6405,-3.6405,-3.6405,-3.6405,-3.6405,-3.6405,-3.648,-3.6935,-3.7136,-3.7262,-3.7764,-3.8316,-3.8894,-3.9396,-3.9546,-3.9546,-3.9546,-3.9546,-3.9546,-3.9546,-3.9624,-3.9726,-3.9726,-4.0689,-4.158,-4.158,-4.2045,-4.2251,-4.1763,-4.2729,-4.3575,0.0,0.0,0.0,0.0,0.0,-4.5992,-4.5364,0.0,0.0,-4.619,-4.619,-4.6471,0.0,-4.6621,0.0,0.0,0.0,0.0,-4.7309,-4.7309,-4.7309,-4.7309,-4.7309,-4.7309,-4.7309,-4.7309,-4.7309,-4.7309,-4.7309,-4.7309,-4.7309,-4.7309,-4.7309,-4.7309,-4.7309,-4.7309,-4.7309,-4.7309,-4.7309,-4.7309,-4.7309,-4.7309,-4.7309,-3.7303,-3.6883,-3.6732,-3.6732,-3.6556,-3.6405,-3.6405,-3.6405,-3.6405,-3.6405,-3.6405,-3.6405,-3.6405,-3.6405,-3.6405,-3.6405,-3.6405,-3.6405,-3.6405,-3.6405,-3.6405,-3.6405,-3.6405,-3.6405,-3.6405,-3.6405,-3.6405,0.0,-3.6405,-3.6405,-3.6405,0.0,0.0,0.0,0.0,-3.6405,-3.6405,-3.6405,-3.6405,-3.6405,-3.6405,-3.6405,-3.6405,-3.6405,-3.6405,-3.6405,-3.6405,-3.6631,-3.6885,-3.7111,-3.7412,-3.7789,-3.8341,-3.8919,-3.9396,-3.9622,-3.9697,-3.9697,-3.9697,-3.9697,-3.9697,-3.9697,-3.9697,-3.9697,-3.9697,-4.0083,-4.0465,-4.0465,-4.1284,-4.1898,-4.1582,-4.2618,-4.3452,-4.3452,0.0,0.0,0.0,0.0,0.0,-4.5405,0.0,-4.692,-4.692,-4.692,-4.701,0.0,0.0,0.0,0.0,0.0,0.0,-4.7266,0.0,-4.5389,-4.6166,-4.6166,-4.6166,-4.6166,-4.6931,-4.7309,-4.7309,-4.7309,-4.7309,-4.7309,-4.7309,-4.7309,-4.7309,-4.7309,-4.7309,-4.7309,-4.7309,-4.7309,-4.7309,-4.7309,-4.7309,-4.7309,-3.6947,-3.6531,-3.6405,-3.6405,-3.6405,-3.6405,-3.6405,-3.6405,-3.6405,-3.6405,-3.6405,-3.6405,-3.6405,-3.6405,-3.6405,-3.6405,-3.6405,-3.6405,-3.6405,-3.6405,-3.6405,-3.6405,-3.6405,0.0,-3.6405,-3.6405,-3.6405,-3.6405,-3.6405,0.0,0.0,0.0,0.0,0.0,-3.6405,-3.6405,-3.6405,-3.6405,-3.6405,-3.6405,-3.6405,-3.6405,-3.6405,-3.6405,-3.6405,-3.643,-3.6581,-3.6908,-3.7236,-3.7563,-3.7939,-3.8341,-3.8793,-3.9245,-3.9697,-3.9697,-3.9697,-3.9697,-3.9697,-3.9697,-3.9697,-3.9697,-3.9697,-3.9697,-3.9697,-3.9697,-3.9697,-3.9697,-4.0415,-4.1019,-4.1019,-4.2084,-4.293,-4.293,0.0,0.0,0.0,-4.4256,0.0,-4.5343,-4.6211,-4.6726,-4.6726,-4.6726,-4.6594,0.0,0.0,0.0,0.0,0.0,0.0,0.0,0.0,0.0,-4.5389,-4.5779,-4.5958,-4.5958,-4.6887,-4.7309,-4.7309,-4.7309,-4.7309,-4.7309,-4.7309,-4.7309,-4.7309,-4.7309,-4.7309,-4.7309,-4.7309,-4.7309,-4.7309,-4.7309,-4.7309,-4.7309,-3.7287,-3.6782,-3.6405,-3.6405,-3.6405,-3.6405,-3.6405,-3.6405,-3.6405,-3.6405,-3.6405,-3.6405,-3.6405,-3.6405,-3.6405,-3.6405,-3.6405,-3.6405,-3.6405,-3.6405,-3.6405,0.0,0.0,-3.6405,-3.6405,-3.6405,-3.6405,-3.6405,0.0,0.0,-3.6405,0.0,-3.6405,-3.6405,-3.6405,-3.6405,-3.6405,-3.6405,-3.6405,-3.6405,-3.6405,-3.6405,-3.6405,-3.6405,-3.6405,-3.648,-3.6985,-3.7186,-3.7362,-3.8517,-3.8894,-3.8919,-3.8919,-3.9245,-3.9697,-3.9697,-3.9697,-3.9697,-3.9697,-3.9697,-3.9697,-3.9697,-3.9697,-3.9697,-3.9697,-3.9697,-3.9697,-3.9697,-3.9697,-3.9749,-3.9749,-4.0743,-4.1591,-4.1591,0.0,0.0,0.0,-4.3504,0.0,-4.5252,-4.5389,-4.5389,-4.5389,-4.5389,-4.4886,0.0,0.0,0.0,0.0,0.0,0.0,-4.3598,-4.4748,0.0,-4.5389,-4.6638,-4.7266,-4.7266,-4.7309,-4.7309,-4.7309,-4.7309,-4.7309,-4.7309,-4.7309,-4.7309,-4.7309,-4.7309,-4.7309,-4.7309,-4.7309,-4.7309,-4.7309,-4.7309,-4.7309,-4.7309,-3.7556,-3.7036,-3.6857,-3.648,-3.6405,-3.6405,-3.6405,-3.6405,-3.6405,-3.6405,-3.6405,-3.6405,-3.6405,-3.6405,-3.6405,-3.6405,-3.6405,-3.6405,0.0,-3.6405,-3.6405,-3.6405,-3.6405,-3.6405,-3.6405,-3.6405,-3.6405,-3.6405,0.0,0.0,0.0,-3.6405,-3.6405,-3.6405,-3.6405,-3.6405,-3.6405,-3.6405,-3.6405,-3.6405,-3.6405,-3.6405,-3.6405,-3.6405,-3.6405,-3.648,-3.6985,-3.7437,-3.7864,-3.8617,-3.912,-3.9421,-3.9421,-3.9546,-3.9697,-3.9697,-3.9697,-3.9697,-3.9697,-3.9697,-3.9697,-3.9697,-3.9697,-3.9697,-3.9697,-3.9697,-3.9697,-3.9697,-3.9697,-3.9697,-3.9697,-4.0032,-4.0313,-4.0313,-4.0642,0.0,-4.0895,0.0,-4.3313,-4.2882,-4.4349,-4.5389,-4.5389,-4.5389,0.0,0.0,0.0,0.0,0.0,0.0,0.0,0.0,-4.4794,0.0,-4.5389,-4.5779,-4.6003,-4.6032,-4.6887,-4.7309,-4.7309,-4.7309,-4.7309,-4.7309,-4.7309,-4.7309,-4.7309,-4.7309,-4.7309,-4.7309,-4.7309,-4.7309,-4.7309,-4.7309,-4.7309,-4.7369,-3.8136,-3.7487,-3.7086,-3.6782,-3.6556,-3.6405,-3.6405,-3.6405,-3.6405,-3.6405,-3.6405,-3.6405,-3.6405,-3.6405,0.0,-3.6405,-3.6405,-3.6405,-3.6405,-3.6405,-3.6405,-3.6405,-3.6405,-3.6405,-3.6405,-3.6405,0.0,-3.6405,-3.6405,-3.6405,-3.6405,-3.6405,-3.6405,-3.6405,-3.6405,-3.6405,-3.6405,-3.6405,-3.6405,-3.6405,-3.6405,-3.6405,-3.643,-3.6631,-3.6732,-3.6832,-3.7538,-3.804,-3.8417,-3.8994,-3.9396,-3.9697,-3.9697,-3.9697,-3.9697,-3.9697,-3.9697,-3.9697,-3.9697,-3.9697,-3.9697,-3.9697,-3.9697,-3.9697,-3.9697,-3.9697,-3.9697,-3.9697,-3.9697,-3.9697,-3.9697,-3.9697,-3.9697,-3.9697,-3.9697,-3.9697,-3.9697,0.0,-4.1985,0.0,0.0,0.0,0.0,-4.4674,-4.484,0.0,0.0,0.0,0.0,0.0,0.0,-4.5824,-4.4794,-4.4581,-4.5389,-4.5869,-4.6121,-4.6121,-4.6931,-4.7309,-4.7309,-4.7309,-4.7309,-4.7309,-4.7309,-4.7309,-4.7309,-4.7309,-4.7309,-4.7309,-4.7309,-4.7309,-4.7309,-4.7309,-4.7459,-4.7728,-3.8919,-3.799,-3.7236,-3.7186,-3.6782,-3.6405,-3.6405,-3.6405,-3.6405,-3.6405,-3.6405,-3.6405,-3.6405,-3.6405,-3.6405,-3.6405,0.0,0.0,-3.6405,-3.6405,-3.6405,-3.6405,-3.6405,-3.6405,-3.6405,-3.6405,-3.6405,-3.6405,-3.6405,-3.6405,-3.6405,-3.6405,-3.6405,-3.6405,-3.6405,-3.6405,-3.6405,-3.6405,-3.6405,-3.6405,-3.6405,-3.643,-3.6531,-3.6985,-3.7211,-3.7387,-3.8467,-3.8919,-3.8994,-3.9496,-3.9697,-3.9697,-3.9697,-3.9697,-3.9697,-3.9697,-3.9697,-3.9697,-3.9697,-3.9697,-3.9697,-3.9697,-3.9697,-3.9697,-3.9697,-3.9697,-3.9697,-3.9697,-3.9697,-3.9697,-3.9697,-3.9697,-3.9697,-3.9697,-3.9697,-3.9697,-3.9697,-3.98,-4.0211,0.0,0.0,0.0,-4.3266,-4.3361,-4.293,0.0,0.0,0.0,0.0,0.0,-4.4886,-4.3787,-4.4932,-4.5553,-4.5553,-4.6726,-4.7309,-4.7309,-4.7309,-4.7309,-4.7309,-4.7309,-4.7309,-4.7309,-4.7309,-4.7309,-4.7309,-4.7309,-4.7309,-4.7309,-4.7369,-4.7369,-4.7369,-4.7429,-4.7818,-4.8356,-3.8994,-3.8291,-3.7688,-3.7262,-3.6782,-3.6405,-3.6405,-3.6405,-3.6405,-3.6405,-3.6405,-3.6405,-3.6405,-3.6405,-3.6405,-3.6405,-3.6405,-3.6405,-3.6405,-3.6405,-3.6405,-3.6405,-3.6405,-3.6405,-3.6405,-3.6405,-3.6405,-3.6405,-3.6405,-3.6405,-3.6405,-3.6405,-3.6405,-3.6405,-3.6405,-3.6405,-3.6405,-3.6405,-3.6405,-3.6405,-3.6405,-3.6656,-3.701,-3.7136,-3.7437,-3.7914,-3.8617,-3.8919,-3.8994,-3.9496,-3.9697,-3.9697,-3.9697,-3.9697,-3.9697,-3.9697,-3.9697,-3.9697,-3.9697,-3.9697,-3.9697,-3.9697,-3.9697,-3.9697,-3.9697,-3.9697,-3.9697,-3.9697,-3.9697,-3.9697,-3.9697,-3.9697,-3.9697,-3.9697,-3.9697,-3.9697,-3.9697,-4.0567,-4.0895,0.0,-4.1019,-4.1739,-4.2035,-4.2035,-4.2301,0.0,0.0,-4.3929,-4.4886,-4.5252,-4.5734,-4.6388,-4.6682,-4.6844,-4.6844,-4.7149,-4.7309,-4.7309,-4.7309,-4.7309,-4.7309,-4.7309,-4.7309,-4.7309,-4.7309,-4.7309,-4.7309,-4.7309,-4.7309,-4.7369,-4.7848,-4.8057,-4.8117,-4.8626,-4.894,-4.9105,-3.9295,-3.8793,-3.8216,-3.7663,-3.7111,-3.6707,-3.6455,-3.6405,-3.6405,-3.6405,-3.6405,-3.6405,-3.6405,-3.6405,-3.6405,-3.6405,-3.6405,-3.6405,-3.6405,-3.6405,-3.6405,-3.6405,-3.6405,-3.6405,-3.6405,-3.6405,-3.6405,-3.6405,-3.6405,-3.6405,-3.6405,-3.6405,-3.6405,-3.6405,-3.6405,-3.6405,-3.6405,-3.6405,-3.6405,-3.643,-3.6681,-3.691,-3.7236,-3.7764,-3.814,-3.8467,-3.9044,-3.9245,-3.9295,-3.9597,-3.9697,-3.9697,-3.9697,-3.9697,-3.9697,-3.9697,-3.9697,-3.9697,-3.9697,-3.9697,-3.9697,-3.9697,-3.9697,-3.9697,-3.9697,-3.9697,-3.9697,-3.9697,-3.9697,-3.9697,-3.9697,-3.9697,-3.9697,-3.9697,-3.9697,-3.9697,-3.9697,-4.0313,-4.0465,-3.98,-4.0313,-4.0995,-4.1541,-4.1591,-4.1887,-4.2593,-4.317,0.0,-4.3646,-4.421,-4.5389,-4.7266,-4.7309,-4.7309,-4.7309,-4.7309,-4.7309,-4.7309,-4.7309,-4.7309,-4.7309,-4.7309,-4.7309,-4.7309,-4.7608,-4.7758,-4.7788,-4.8087,-4.8207,-4.8237,-4.8596,-4.8745,-4.882,-4.9179,-4.9464,-4.9763,-3.9697,-3.9245,-3.8718,-3.8216,-3.7688,-3.7111,-3.6606,-3.6531,-3.6505,-3.6405,-3.6405,-3.6405,-3.6405,-3.6405,-3.6405,-3.6405,-3.6405,-3.6405,-3.6405,-3.6405,-3.6405,-3.6405,-3.6405,-3.6405,-3.6405,-3.6405,-3.6405,-3.6405,-3.6405,-3.6405,-3.6405,-3.6405,-3.6405,-3.6405,-3.6405,-3.6455,-3.6531,-3.6531,-3.6581,-3.6707,-3.7111,-3.7362,-3.7538,-3.8517,-3.8969,-3.9069,-3.9521,-3.9697,-3.9697,-3.9697,-3.9697,-3.9697,-3.9697,-3.9697,-3.9697,-3.9697,-3.9697,-3.9697,-3.9697,-3.9697,-3.9697,-3.9697,-3.9697,-3.9697,-3.9697,-3.9697,-3.9697,-3.9697,-3.9697,-3.9697,-3.9697,-3.9697,-3.9697,-3.9697,-3.9697,-3.9697,-3.9697,0.0,-3.9697,-3.9697,-3.9697,-4.0134,-4.1219,-4.1319,-4.1319,-4.1319,-4.2301,-4.2544,-4.164,-4.2786,-4.4581,-4.6931,-4.7019,-4.7106,-4.7309,-4.7309,-4.7309,-4.7309,-4.7399,-4.7459,-4.7459,-4.7549,-4.7608,-4.7638,-4.8177,-4.8446,-4.8476,-4.909,-4.9299,-4.9329,-4.9419,-4.9404,-4.9434,-4.9569,-4.9912,-5.0345,-3.9697,-3.9245,-3.8894,-3.8793,-3.8266,-3.7688,-3.7136,-3.7109,-3.6885,-3.6455,-3.6405,-3.6405,-3.6405,-3.6405,-3.6405,-3.6405,-3.6405,-3.6405,-3.6405,-3.6405,-3.6405,-3.6405,-3.6405,-3.6405,-3.6405,-3.6405,-3.6405,-3.6405,-3.6405,-3.6405,-3.6405,-3.6405,-3.6405,-3.6405,-3.6405,-3.6656,-3.7109,-3.7109,-3.7337,-3.7764,-3.7839,-3.8165,-3.8668,-3.8844,-3.917,-3.9572,-3.9672,-3.9697,-3.9697,-3.9697,-3.9697,-3.9697,-3.9697,-3.9697,-3.9697,-3.9697,-3.9697,-3.9697,-3.9697,-3.9697,-3.9697,-3.9697,-3.9697,-3.9697,-3.9697,-3.9697,-3.9697,-3.9697,-3.9697,-3.9697,-3.9697,-3.9697,-3.9697,-3.9697,-3.9697,-3.9697,-3.9697,0.0,-3.9697,-3.9697,-3.9697,-3.98,-3.9981,-3.9981,-3.9981,-3.9981,-4.016,-4.0642,-4.1541,-4.2786,-4.4163,-4.5644,-4.5689,-4.6211,-4.7309,-4.7309,-4.7309,-4.7309,-4.7878,-4.8147,-4.8147,-4.8716,-4.9,-4.903,-4.912,-4.9149,-4.9179,-4.9269,-4.9299,-4.9359,-4.9883,-5.0046,-5.0106,-5.072,-5.099,-5.1033,-3.9697,-3.9496,-3.922,-3.8969,-3.8642,-3.8291,-3.7713,-3.7638,-3.7538,-3.7287,-3.7236,-3.7236,-3.7236,-3.7236,-3.7236,-3.7236,-3.7236,-3.7236,-3.7236,-3.6732,-3.6405,-3.6405,-3.6405,-3.6405,-3.6405,-3.6405,-3.6405,-3.6405,-3.6405,-3.6405,-3.6405,-3.6707,-3.6857,-3.6857,-3.7111,-3.7387,-3.7638,-3.7638,-3.7764,-3.804,-3.8341,-3.8617,-3.8944,-3.9195,-3.9471,-3.9697,-3.9697,-3.9697,-3.9697,-3.9697,-3.9697,-3.9697,-3.9697,-3.9697,-3.9697,-3.9697,-3.9697,-3.9697,-3.9697,-3.9697,-3.9697,-3.9697,-3.9697,-3.9697,-3.9697,-3.9697,-3.9697,-3.9697,-3.9697,-3.9697,-3.9697,-3.9697,-3.9697,-3.9697,-3.9697,0.0,-3.9697,-3.9697,-3.9697,-3.9697,-3.9697,-3.9697,-3.9697,-3.9697,-3.9697,-3.9697,-3.9697,-3.9981,-4.0541,-4.1789,-4.2738,-4.3313,-4.5343,-4.6726,-4.7309,-4.7668,-4.7848,-4.7848,-4.8506,-4.885,-4.888,-4.9179,-4.9299,-4.9329,-4.9643,-4.9793,-4.9823,-5.0182,-5.0331,-5.0331,-5.0661,-5.0734,-5.0764,-5.1109,-5.1229,-5.1229,-3.9697,-3.9697,-3.9572,-3.9145,-3.912,-3.8868,-3.8291,-3.8216,-3.8165,-3.8015,-3.8015,-3.8015,-3.8015,-3.8015,-3.8015,-3.8015,-3.8015,-3.8015,-3.8015,-3.7211,-3.6782,-3.6782,-3.6782,-3.6782,-3.6782,-3.6782,-3.6782,-3.6782,-3.6782,-3.6782,-3.6807,-3.7186,-3.7387,-3.7387,-3.7814,-3.809,-3.8216,-3.8216,-3.8291,-3.8442,-3.8894,-3.912,-3.912,-3.9521,-3.9697,-3.9697,-3.9697,-3.9697,-3.9697,-3.9697,-3.9697,-3.9697,-3.9697,-3.9697,-3.9697,-3.9697,-3.9697,-3.9697,-3.9697,-3.9697,-3.9697,-3.9697,-3.9697,-3.9697,-3.9697,-3.9697,-3.9697,-3.9697,-3.9697,-3.9697,-3.9697,-3.9697,-3.9697,-3.9697,0.0,-3.9697,0.0,-3.9697,-3.9697,-3.9697,-3.9697,-3.9697,-3.9697,-3.9697,-3.9697,-3.9697,-3.9981,-4.0134,-4.0134,-4.164,-4.2722,-4.3121,-4.571,-4.7257,-4.7549,-4.8177,-4.8506,-4.8506,-4.9194,-4.9494,-4.9494,-4.9643,-4.9733,-4.9763,-5.0242,-5.0435,-5.0465,-5.102,-5.1229,-5.1229,-5.1229,-5.1229,-5.1229,-5.1229,-5.1229,-5.1229,-3.9697,-3.9697,-3.9672,-3.9647,-3.9647,-3.9446,-3.8944,-3.8818,-3.8617,-3.8065,-3.8015,-3.8015,-3.8015,-3.8015,-3.8015,-3.8015,-3.8015,-3.8015,-3.8015,-3.7939,-3.7889,-3.7889,-3.7889,-3.7889,-3.7889,-3.7889,-3.7889,-3.7889,-3.7889,-3.7889,-3.7889,-3.7914,-3.7939,-3.7939,-3.799,-3.8291,-3.8818,-3.8818,-3.9094,-3.9572,-3.9622,-3.9647,-3.9647,-3.9672,-3.9697,-3.9697,-3.9697,-3.9697,-3.9697,-3.9697,-3.9697,-3.9697,-3.9697,-3.9697,-3.9697,-3.9697,-3.9697,-3.9697,-3.9697,-3.9697,-3.9697,-3.9697,-3.9697,-3.9697,-3.9697,-3.9697,-3.9697,-3.9697,-3.9697,-3.9697,-3.9697,-3.9697,-3.9697,-3.9697,0.0,0.0,-3.9697,-3.9697,-3.9697,-3.9697,-3.9697,-3.9697,-3.9697,-3.9697,-3.9697,-3.9697,-4.0794,-4.1468,-4.1468,-4.3787,-4.5949,-4.7748,-4.6953,-4.7044,-4.8207,-4.891,-4.9239,-4.9239,-4.9853,-5.0106,-5.0136,-5.081,-5.1079,-5.1079,-5.1139,-5.1139,-5.1139,-5.1199,-5.1229,-5.1229,-5.1229,-5.1229,-5.1229,-5.1229,-5.1229,-5.1229,-3.9697,-3.9697,-3.9697,-3.9697,-3.9697,-3.9622,-3.9421,-3.9371,-3.9295,-3.9069,-3.9044,-3.9044,-3.9044,-3.9044,-3.9044,-3.9044,-3.9044,-3.9044,-3.9044,-3.9044,-3.8743,-3.804,-3.8015,-3.8015,-3.8015,-3.8015,-3.8015,-3.8015,-3.8015,-3.8015,-3.8015,-3.8366,-3.8542,-3.8567,-3.8894,-3.917,-3.9371,-3.9371,-3.9496,-3.9697,-3.9697,-3.9697,-3.9697,-3.9697,-3.9697,-3.9697,-3.9697,-3.9697,-3.9697,-3.9697,-3.9697,-3.9697,-3.9697,-3.9697,-3.9697,-3.9697,-3.9697,-3.9697,-3.9697,-3.9697,-3.9697,-3.9697,-3.9697,-3.9697,-3.9697,-3.9697,-3.9697,-3.9697,-3.9697,-3.9697,-3.9697,-3.9697,-3.9697,-3.9697,0.0,-3.9697,-3.9697,-3.9697,-3.9697,-3.9697,-3.9697,-3.9697,-3.9697,-3.9697,-3.9697,-3.9697,-4.0185,-4.0415,-4.0415,-4.3236,-4.5895,-4.8222,-4.8593,-4.88,-4.894,-4.9553,-4.9883,-4.9883,-5.0495,-5.0794,-5.0794,-5.1063,-5.1229,-5.1229,-5.1229,-5.1229,-5.1229,-5.1229,-5.1229,-5.1229,-5.1229,-5.1229,-5.1229,-5.1229,-5.1229,-5.1229,-4.0211,-3.9981,-3.9929,-4.0743,-4.0541,-4.0313,-4.0313,-4.0642,-4.0743,-4.0364,-4.0313,-4.0313,-4.0313,-3.9929,-3.9697,-3.9697,-3.9697,-3.9697,-3.9697,-3.9697,-3.9346,-3.8567,-3.8542,-3.8542,-3.8542,-3.8542,-3.8542,-3.8542,-3.8542,-3.8542,-3.8542,-3.8944,-3.912,-3.9145,-3.9521,-3.9697,-3.9697,-3.9697,-3.9697,-3.9697,-3.9697,-3.9697,-3.9697,-3.9697,-3.9697,-3.9697,-3.9697,-3.9697,-3.9697,-3.9697,-3.9697,-3.9697,-3.9697,-3.9697,-3.9697,-3.9697,-3.9697,-3.9697,-3.9697,-3.9697,-3.9697,-3.9697,-3.9697,-3.9697,-3.9697,-3.9697,-3.9697,-3.9697,-3.9697,-3.9697,-3.9697,-3.9697,-3.9697,-3.9697,-3.9697,-3.9697,-3.9697,-3.9697,-3.9697,-3.9697,-3.9697,-3.9697,-3.9697,-3.9697,-3.9697,-3.9697,-4.0083,-4.072,-4.1781,-4.4069,-4.6432,-4.885,-4.9717,-5.0122,-4.9883,-5.0331,-5.0495,-5.0495,-5.099,-5.1229,-5.1229,-5.1229,-5.1229,-5.1229,-5.1229,-5.1229,-5.1229,-5.1229,-5.1229,-5.1229,-5.1229,-5.1229,-5.1229,-5.1229,-5.1229,-5.1229,-4.1369,-4.0592,-4.0567,-4.3074,-4.2447,-4.1591,-4.1591,-4.2689,-4.3074,-4.1789,-4.1591,-4.1591,-4.1591,-4.0516,-3.9749,-3.9749,-3.9749,-3.9697,-3.9697,-3.9697,-3.9697,-3.9697,-3.9697,-3.9697,-3.9697,-3.9697,-3.9697,-3.9697,-3.9697,-3.9697,-3.9697,-3.9697,-3.9697,-3.9697,-3.9697,-3.9697,-3.9697,-3.9697,-3.9697,-3.9697,-3.9697,-3.9697,-3.9697,-3.9697,-3.9697,-3.9697,-3.9697,-3.9697,-3.9697,-3.9697,-3.9697,-3.9697,-3.9697,-3.9697,-3.9697,-3.9697,-3.9697,-3.9697,-3.9697,-3.9697,-3.9697,-3.9697,-3.9697,-3.9697,-3.9697,-3.9697,-3.9697,-3.9697,-3.9697,-3.9697,-3.9697,-3.9697,-3.9697,-3.9697,-3.9697,-3.9697,-3.9697,-3.9697,-3.9697,-3.9697,-3.9697,-3.9697,-3.9697,-3.9697,-3.9697,-3.9697,-4.0895,-4.3009,-4.6217,-4.6897,-4.8126,-5.012,-5.0196,-5.0524,-5.1199,-5.1229,-5.1229,-5.1229,-5.1229,-5.1229,-5.1229,-5.1229,-5.1229,-5.1229,-5.1229,-5.1229,-5.1229,-5.1229,-5.1229,-5.1229,-5.1229,-5.1229,-5.1229,-5.1229,-5.1229,-5.1229,-4.1541,-4.2035,-4.2593,-4.3361,-4.317,-4.293,-4.293,-4.3266,-4.3361,-4.2978,-4.293,-4.293,-4.293,-4.2593,-4.235,-4.235,-4.1541,-4.0642,-3.9749,-3.9697,-3.9697,-3.9697,-3.9697,-3.9697,-3.9697,-3.9697,-3.9697,-3.9697,-3.9697,-3.9697,-3.9697,-3.9697,-3.9697,-3.9697,-3.9697,-3.9697,-3.9697,-3.9697,-3.9697,-3.9697,-3.9697,-3.9697,-3.9697,-3.9697,-3.9697,-3.9697,-3.9697,-3.9697,-3.9697,-3.9697,-3.9697,-3.9697,-3.9697,-3.9697,-3.9697,-3.9697,-3.9697,-3.9697,-3.9697,-3.9697,-3.9697,-3.9697,-3.9697,-3.9697,-3.9697,-3.9697,-3.9697,-3.9697,-3.9697,-3.9697,-3.9697,-3.9697,-3.9697,-3.9697,-3.9697,-3.9697,-3.9697,-3.9697,-3.9697,-3.9697,-3.9697,-3.9697,-3.9697,-3.9697,-3.9848,-4.0249,-4.0969,-4.219,-4.403,-4.4749,-4.6217,-4.8719,-4.9251,-5.0033,-5.1182,-5.1229,-5.1229,-5.1229,-5.1229,-5.1229,-5.1229,-5.1229,-5.1229,-5.1229,-5.1229,-5.1229,-5.1229,-5.1229,-5.1229,-5.1229,-5.1229,-5.1229,-5.1229,-5.1229,-5.1229,-5.1229,-4.293,-4.3313,-4.3834,-4.484,-4.4581,-4.4256,-4.4256,-4.4674,-4.484,-4.4303,-4.4256,-4.4256,-4.4256,-4.3787,-4.3504,-4.3504,-4.2786,-4.1789,-4.0567,-4.0465,-4.0211,-3.9749,-3.9697,-3.9697,-3.9697,-3.9697,-3.9697,-3.9697,-3.9697,-3.9697,-3.9697,-3.9697,-3.9697,-3.9697,-3.9697,-3.9697,-3.9697,-3.9697,-3.9697,-3.9697,-3.9697,-3.9697,-3.9697,-3.9697,-3.9697,-3.9697,-3.9697,-3.9697,-3.9697,-3.9697,-3.9697,-3.9697,-3.9697,-3.9697,-3.9697,-3.9697,-3.9697,-3.9697,-3.9697,-3.9697,-3.9697,-3.9697,-3.9697,-3.9697,-3.9697,-3.9697,-3.9697,-3.9697,-3.9697,-3.9697,-3.9697,-3.9697,-3.9697,-3.9697,-3.9697,-3.9697,-3.9697,-3.9697,-3.9697,-3.9697,-3.9898,-4.0023,-4.0023,-4.0224,-4.0475,-4.0774,-4.1354,-4.2464,-4.432,-4.5012,-4.6593,-4.9289,-4.9764,-5.0383,-5.1182,-5.1229,-5.1229,-5.1229,-5.1229,-5.1229,-5.1229,-5.1229,-5.1229,-5.1229,-5.1229,-5.1229,-5.1229,-5.1229,-5.1229,-5.1229,-5.1229,-5.1229,-5.1229,-5.1229,-5.1229,-5.1229,-4.4932,-4.4535,-4.4581,-4.6931,-4.6344,-4.5598,-4.5598,-4.655,-4.6887,-4.5734,-4.5598,-4.5598,-4.5598,-4.4535,-4.3834,-4.3834,-4.374,-4.3122,-4.1838,-4.1789,-4.1269,-4.0083,-3.9929,-3.9878,-3.9878,-3.9749,-3.9697,-3.9697,-3.9697,-3.9697,-3.9697,-3.9697,-3.9697,-3.9697,-3.9697,-3.9697,-3.9697,-3.9697,-3.9697,-3.9697,-3.9697,-3.9697,-3.9697,-3.9697,-3.9697,-3.9697,-3.9697,-3.9697,-3.9697,-3.9697,-3.9697,-3.9697,-3.9697,-3.9697,-3.9697,-3.9697,-3.9697,-3.9697,-3.9697,-3.9697,-3.9697,-3.9697,-3.9697,-3.9697,-3.9697,-3.9697,-3.9697,-3.9697,-3.9697,-3.9697,-3.9697,-3.9697,-3.9697,-3.9697,-3.9747,-3.9772,-3.9772,-3.9798,-3.9848,-3.9848,-4.0275,-4.0601,-4.0601,-4.1185,-4.1619,-4.1755,-4.2316,-4.3753,-4.6243,-4.6841,-4.8289,-5.0964,-5.1011,-5.1058,-5.1229,-5.1229,-5.1229,-5.1229,-5.1229,-5.1229,-5.1229,-5.1229,-5.1229,-5.1229,-5.1229,-5.1229,-5.1229,-5.1229,-5.1229,-5.1229,-5.1229,-5.1229,-5.1229,-5.1229,-5.1229,-5.1229,-4.5298,-4.5958,-4.6638,-4.7222,-4.7062,-4.6887,-4.6887,-4.7106,-4.7222,-4.6931,-4.6887,-4.6887,-4.6887,-4.6638,-4.6506,-4.6506,-4.5553,-4.4442,-4.317,-4.3074,-4.2978,-4.2689,-4.1739,-4.1169,-4.1169,-4.0211,-3.9697,-3.9697,-3.9697,-3.9697,-3.9697,-3.9697,-3.9697,-3.9697,-3.9697,-3.9697,-3.9697,-3.9697,-3.9697,-3.9697,-3.9697,-3.9697,-3.9697,-3.9697,-3.9697,-3.9697,-3.9697,-3.9697,-3.9697,-3.9697,-3.9697,-3.9697,-3.9697,-3.9697,-3.9697,-3.9697,-3.9697,-3.9697,-3.9697,-3.9697,-3.9697,-3.9697,-3.9697,-3.9697,-3.9697,-3.9697,-3.9697,-3.9697,-3.9697,-3.9697,-3.9697,-3.9697,-3.9697,-3.9697,-4.0049,-4.035,-4.035,-4.0701,-4.0924,-4.0924,-4.1025,-4.11,-4.11,-4.2598,-4.4045,-4.5156,-4.575,-4.6283,-4.6901,-4.7039,-4.7859,-4.9582,-4.963,-5.0143,-5.1182,-5.1229,-5.1229,-5.1229,-5.1229,-5.1229,-5.1229,-5.1229,-5.1229,-5.1229,-5.1229,-5.1229,-5.1229,-5.1229,-5.1229,-5.1229,-5.1229,-5.1229,-5.1229,-5.1229,-5.1229,-5.1229,-4.6211,-4.6844,-4.7309,-4.7309,-4.7309,-4.7309,-4.7309,-4.7309,-4.7309,-4.7309,-4.7309,-4.7309,-4.7309,-4.7309,-4.7309,-4.7309,-4.6682,-4.5779,-4.4489,-4.4396,-4.4116,-4.3551,-4.2882,-4.2496,-4.2496,-4.1838,-4.0945,-3.9697,-3.9697,-3.9697,-3.9697,-3.9697,-3.9697,-3.9697,-3.9697,-3.9697,-3.9697,-3.9697,-3.9697,-3.9697,-3.9697,-3.9697,-3.9697,-3.9697,-3.9697,-3.9697,-3.9697,-3.9697,-3.9697,-3.9697,-3.9697,-3.9697,-3.9697,-3.9697,-3.9697,-3.9697,-3.9697,-3.9697,-3.9697,-3.9697,-3.9697,-3.9697,-3.9697,-3.9697,-3.9697,-3.9697,-3.9697,-3.9697,-3.9697,-3.9772,-4.0049,-4.0099,-4.0174,-4.0425,-4.0727,-4.0849,-4.0849,-4.11,-4.1275,-4.1275,-4.1555,-4.2077,-4.2954,-4.4573,-4.5856,-4.6625,-4.6929,-4.7402,-4.8088,-4.8088,-4.8738,-5.0143,-5.0143,-5.0508,-5.1182,-5.1229,-5.1229,-5.1229,-5.1229,-5.1229,-5.1229,-5.1229,-5.1229,-5.1229,-5.1229,-5.1229,-5.1229,-5.1229,-5.1229,-5.1229,-5.1229,-5.1229,-5.1229,-5.1229,-5.1229,-5.1229,-4.7062,-4.7309,-4.7309,-4.7309,-4.7309,-4.7309,-4.7309,-4.7309,-4.7309,-4.7309,-4.7309,-4.7309,-4.7309,-4.7309,-4.7309,-4.7309,-4.7309,-4.6844,-4.5779,-4.5734,-4.5252,-4.421,-4.3929,-4.3834,-4.3834,-4.3598,-4.2447,-4.0364,-4.0134,-4.0134,-4.0364,-4.0134,-4.0134,-4.0364,-4.0134,-4.0032,-4.0032,-3.98,-3.9697,-3.9697,-3.9697,-3.9697,-3.9697,-3.9697,-3.9697,-3.9697,-3.9697,-3.9697,-3.9697,-3.9697,-3.9697,-3.9697,-3.9697,-3.9697,-3.9697,-3.9697,-3.9697,-3.9697,-3.9697,-3.9697,-3.9697,-3.9697,-3.9772,-3.9848,-3.9848,-3.9772,-3.9722,-3.9823,-3.9848,-3.9998,-4.0551,-4.0651,-4.0802,-4.12,-4.1376,-4.148,-4.148,-4.1501,-4.1551,-4.1551,-4.2225,-4.3393,-4.5209,-4.663,-4.7554,-4.7757,-4.7808,-4.8339,-4.9455,-4.9504,-5.0047,-5.1182,-5.1229,-5.1229,-5.1229,-5.1229,-5.1229,-5.1229,-5.1229,-5.1229,-5.1229,-5.1229,-5.1229,-5.1229,-5.1229,-5.1229,-5.1229,-5.1229,-5.1229,-5.1229,-5.1229,-5.1229,-5.1229,-5.1229,-5.1229,-5.1229,-4.7062,-4.7309,-4.7309,-4.7309,-4.7309,-4.7309,-4.7309,-4.7309,-4.7309,-4.7309,-4.7309,-4.7309,-4.7309,-4.7309,-4.7309,-4.7309,-4.7309,-4.7222,-4.7062,-4.7019,-4.6975,-4.677,-4.5734,-4.5161,-4.5161,-4.4069,-4.3313,-4.2978,-4.1887,-4.1936,-4.2978,-4.1838,-4.1936,-4.293,-4.1838,-4.1369,-4.1269,-4.016,-3.9697,-3.9697,-3.9697,-3.9697,-3.9697,-3.9697,-3.9697,-3.9697,-3.9697,-3.9697,-3.9697,-3.9697,-3.9697,-3.9697,-3.9697,-3.9697,-3.9697,-3.9697,-3.9697,-3.9697,-3.9697,-3.9697,-3.9697,-3.9697,-4.0049,-4.04,-4.04,-4.0049,-3.9823,-4.03,-4.04,-4.0576,-4.1075,-4.1175,-4.12,-4.1275,-4.1731,-4.2112,-4.2112,-4.2459,-4.276,-4.276,-4.3862,-4.5209,-4.6682,-4.8088,-4.9406,-5.0555,-5.065,-5.0745,-5.0917,-5.0917,-5.1011,-5.1182,-5.1229,-5.1229,-5.1229,-5.1229,-5.1229,-5.1229,-5.1229,-5.1229,-5.1229,-5.1229,-5.1229,-5.1229,-5.1229,-5.1229,-5.1229,-5.1229,-5.1229,-5.1229,-5.1229,-5.1229,-5.1229,-5.1229,-5.1229,-5.1229,-4.7062,-4.7309,-4.7309,-4.7309,-4.7309,-4.7309,-4.7309,-4.7309,-4.7309,-4.7309,-4.7309,-4.7309,-4.7309,-4.7309,-4.7309,-4.7309,-4.7309,-4.7309,-4.7309,-4.7309,-4.7309,-4.7309,-4.677,-4.6462,-4.6462,-4.5913,-4.5644,-4.5644,-4.3646,-4.293,-4.3504,-4.293,-4.2978,-4.3504,-4.293,-4.2641,-4.2593,-4.1319,-4.0743,-4.0693,-3.9981,-4.0134,-4.0743,-4.0743,-4.1219,-4.1838,-4.1838,-4.1369,-4.0795,-4.1105,-4.0746,-4.0199,-4.0526,-4.0601,-4.0601,-4.0601,-4.0601,-4.0601,-4.0601,-4.0601,-4.0601,-4.0601,-4.0802,-4.0924,-4.0924,-4.0724,-4.0676,-4.0874,-4.0924,-4.1153,-4.1706,-4.1781,-4.1907,-4.2208,-4.2459,-4.2665,-4.2665,-4.2866,-4.3295,-4.4016,-4.603,-4.7605,-4.8239,-4.9504,-5.0555,-5.1182,-5.1229,-5.1229,-5.1229,-5.1229,-5.1229,-5.1229,-5.1229,-5.1229,-5.1229,-5.1229,-5.1229,-5.1229,-5.1229,-5.1229,-5.1229,-5.1229,-5.1229,-5.1229,-5.1229,-5.1229,-5.1229,-5.1229,-5.1229,-5.1229,-5.1229,-5.1229,-5.1229,-5.1229,-5.1229,-5.1229]},{"header":{"parameterUnit":"m.s-1","parameterCategory":1,"la1":30.6,"la2":28.766,"lo1":-90.7593,"lo2":-88.6598,"dy":0.0162,"dx":0.0183,"nx":116,"ny":114,"refTime":"2024-04-03T18:00:00:Z","depth":0,"parameterNumber":3,"parameterNumberName":"V-component_of_WINDS"},"data":[0.0,0.0,0.0,0.0,0.0,0.0,0.0,0.0,0.0,0.0,0.0,0.0,0.0,0.0,0.0,0.0,0.0,0.0,0.0,0.0,0.0,0.0,0.0,0.0,0.0,0.0,0.0,0.0,0.0,0.0,0.0,0.0,0.0,0.0,0.0,0.0,0.0,0.0,0.0,0.0,0.0,0.0,0.0,0.0,0.0,0.0,0.0,0.0,0.0,0.0,0.0,0.0,0.0,0.0,0.0,0.0,0.0,0.0,0.0,0.0,0.0,0.0,0.0,0.0,0.0,0.0,0.0,0.0,0.0,0.0,0.0,0.0,0.0,0.0,0.0,0.0,0.0,0.0,0.0,0.0,0.0,0.0,0.0,0.0,0.0,0.0,0.0,0.0,0.0,0.0,0.0,0.0,0.0,0.0,0.0,0.0,0.0,0.0,0.0,0.0,0.0,0.0,0.0,0.0,0.0,0.0,0.0,0.0,0.0,0.0,0.0,0.0,0.0,0.0,0.0,0.0,0.0,0.0,0.0,0.0,0.0,0.0,0.0,0.0,0.0,0.0,0.0,0.0,0.0,0.0,0.0,0.0,0.0,0.0,0.0,0.0,0.0,0.0,0.0,0.0,0.0,0.0,0.0,0.0,0.0,0.0,0.0,0.0,0.0,0.0,0.0,0.0,0.0,0.0,0.0,0.0,0.0,0.0,0.0,0.0,0.0,0.0,0.0,0.0,0.0,0.0,0.0,0.0,0.0,0.0,0.0,0.0,0.0,0.0,0.0,0.0,0.0,0.0,0.0,0.0,0.0,0.0,0.0,0.0,0.0,0.0,0.0,0.0,0.0,0.0,0.0,0.0,0.0,0.0,0.0,0.0,0.0,0.0,0.0,0.0,0.0,0.0,0.0,0.0,0.0,0.0,0.0,0.0,0.0,0.0,0.0,0.0,0.0,0.0,0.0,0.0,0.0,0.0,0.0,0.0,0.0,0.0,0.0,0.0,0.0,0.0,0.0,0.0,0.0,0.0,0.0,0.0,0.0,0.0,0.0,0.0,0.0,0.0,0.0,0.0,0.0,0.0,0.0,0.0,0.0,0.0,0.0,0.0,0.0,0.0,0.0,0.0,0.0,0.0,0.0,0.0,0.0,0.0,0.0,0.0,0.0,0.0,0.0,0.0,0.0,0.0,0.0,0.0,0.0,0.0,0.0,0.0,0.0,0.0,0.0,0.0,0.0,0.0,0.0,0.0,0.0,0.0,0.0,0.0,0.0,0.0,0.0,0.0,0.0,0.0,0.0,0.0,0.0,0.0,0.0,0.0,0.0,0.0,0.0,0.0,0.0,0.0,0.0,0.0,0.0,0.0,0.0,0.0,0.0,0.0,0.0,0.0,0.0,0.0,0.0,0.0,0.0,0.0,0.0,0.0,0.0,0.0,0.0,0.0,0.0,0.0,0.0,0.0,0.0,0.0,0.0,0.0,0.0,0.0,0.0,0.0,0.0,0.0,0.0,0.0,0.0,0.0,0.0,0.0,0.0,0.0,0.0,0.0,0.0,0.0,0.0,0.0,0.0,0.0,0.0,0.0,0.0,0.0,0.0,0.0,0.0,0.0,0.0,0.0,0.0,0.0,0.0,0.0,0.0,0.0,0.0,0.0,0.0,0.0,0.0,0.0,0.0,0.0,0.0,0.0,0.0,0.0,0.0,0.0,0.0,0.0,0.0,0.0,0.0,0.0,0.0,0.0,0.0,0.0,0.0,0.0,0.0,0.0,0.0,0.0,0.0,0.0,0.0,0.0,0.0,0.0,0.0,0.0,0.0,0.0,0.0,0.0,0.0,0.0,0.0,0.0,0.0,0.0,0.0,0.0,0.0,0.0,0.0,0.0,0.0,0.0,0.0,0.0,0.0,0.0,0.0,0.0,0.0,0.0,0.0,0.0,0.0,0.0,0.0,0.0,0.0,0.0,0.0,0.0,0.0,0.0,0.0,0.0,0.0,0.0,0.0,0.0,0.0,0.0,0.0,0.0,0.0,0.0,0.0,0.0,0.0,0.0,0.0,0.0,0.0,0.0,0.0,0.0,0.0,0.0,0.0,0.0,0.0,0.0,0.0,0.0,0.0,0.0,0.0,0.0,0.0,0.0,0.0,0.0,0.0,0.0,0.0,0.0,0.0,0.0,0.0,0.0,0.0,0.0,0.0,0.0,0.0,0.0,0.0,0.0,0.0,0.0,0.0,0.0,0.0,0.0,0.0,0.0,0.0,0.0,0.0,0.0,0.0,0.0,0.0,0.0,0.0,0.0,0.0,0.0,0.0,0.0,0.0,0.0,0.0,0.0,0.0,0.0,0.0,0.0,0.0,0.0,0.0,0.0,0.0,0.0,0.0,0.0,0.0,0.0,0.0,0.0,0.0,0.0,0.0,0.0,0.0,0.0,0.0,0.0,0.0,0.0,0.0,0.0,0.0,0.0,0.0,0.0,0.0,0.0,0.0,0.0,0.0,0.0,0.0,0.0,0.0,0.0,0.0,0.0,0.0,0.0,0.0,0.0,0.0,0.0,0.0,0.0,0.0,0.0,0.0,0.0,0.0,0.0,0.0,0.0,0.0,0.0,0.0,0.0,0.0,0.0,0.0,0.0,0.0,0.0,0.0,0.0,0.0,0.0,0.0,0.0,0.0,0.0,0.0,0.0,0.0,0.0,0.0,0.0,0.0,0.0,0.0,0.0,0.0,0.0,0.0,0.0,0.0,0.0,0.0,0.0,0.0,0.0,0.0,0.0,0.0,0.0,0.0,0.0,0.0,0.0,0.0,0.0,0.0,0.0,0.0,0.0,0.0,0.0,0.0,0.0,0.0,0.0,0.0,0.0,0.0,0.0,0.0,0.0,0.0,0.0,0.0,0.0,0.0,0.0,0.0,0.0,0.0,0.0,0.0,0.0,0.0,0.0,0.0,0.0,0.0,0.0,0.0,0.0,0.0,0.0,0.0,0.0,0.0,0.0,0.0,0.0,0.0,0.0,0.0,0.0,0.0,0.0,0.0,0.0,0.0,0.0,0.0,0.0,0.0,0.0,0.0,0.0,0.0,0.0,0.0,0.0,0.0,0.0,0.0,0.0,0.0,0.0,0.0,0.0,0.0,0.0,0.0,0.0,0.0,0.0,0.0,0.0,0.0,0.0,0.0,0.0,0.0,0.0,0.0,0.0,0.0,0.0,0.0,0.0,0.0,0.0,0.0,0.0,0.0,0.0,0.0,0.0,0.0,0.0,0.0,0.0,0.0,0.0,0.0,0.0,0.0,0.0,0.0,0.0,0.0,0.0,0.0,0.0,0.0,0.0,0.0,0.0,0.0,0.0,0.0,0.0,0.0,0.0,0.0,0.0,0.0,0.0,0.0,0.0,0.0,0.0,0.0,0.0,0.0,0.0,0.0,0.0,0.0,0.0,0.0,0.0,0.0,0.0,0.0,0.0,0.0,0.0,0.0,0.0,0.0,0.0,0.0,0.0,0.0,0.0,0.0,0.0,0.0,0.0,0.0,0.0,0.0,0.0,0.0,0.0,0.0,0.0,0.0,0.0,0.0,0.0,0.0,0.0,0.0,0.0,0.0,0.0,0.0,0.0,0.0,0.0,0.0,0.0,0.0,0.0,0.0,0.0,0.0,0.0,0.0,0.0,0.0,0.0,0.0,0.0,0.0,0.0,0.0,0.0,0.0,0.0,0.0,0.0,0.0,0.0,0.0,0.0,0.0,0.0,0.0,0.0,0.0,0.0,0.0,0.0,0.0,0.0,0.0,0.0,0.0,0.0,0.0,0.0,0.0,0.0,0.0,0.0,0.0,0.0,0.0,0.0,0.0,0.0,0.0,0.0,0.0,0.0,0.0,0.0,0.0,0.0,0.0,0.0,0.0,0.0,0.0,0.0,0.0,0.0,0.0,0.0,0.0,0.0,0.0,0.0,0.0,0.0,0.0,0.0,0.0,0.0,0.0,0.0,0.0,0.0,0.0,0.0,0.0,0.0,0.0,0.0,0.0,0.0,0.0,0.0,0.0,0.0,0.0,0.0,0.0,0.0,0.0,0.0,0.0,0.0,0.0,0.0,0.0,0.0,0.0,0.0,0.0,0.0,0.0,0.0,0.0,0.0,0.0,0.0,0.0,0.0,0.0,0.0,0.0,0.0,0.0,0.0,0.0,0.0,0.0,0.0,0.0,0.0,0.0,0.0,0.0,0.0,0.0,0.0,0.0,0.0,0.0,0.0,0.0,0.0,0.0,0.0,0.0,0.0,0.0,0.0,0.0,0.0,0.0,0.0,0.0,0.0,0.0,0.0,0.0,0.0,0.0,0.0,0.0,0.0,0.0,0.0,0.0,0.0,0.0,0.0,0.0,0.0,0.0,0.0,0.0,0.0,0.0,0.0,0.0,0.0,0.0,0.0,0.0,0.0,0.0,0.0,0.0,0.0,0.0,0.0,0.0,0.0,0.0,0.0,0.0,0.0,0.0,0.0,0.0,0.0,0.0,0.0,0.0,0.0,0.0,0.0,0.0,0.0,0.0,0.0,0.0,0.0,0.0,0.0,0.0,0.0,0.0,0.0,0.0,0.0,0.0,0.0,0.0,0.0,0.0,0.0,0.0,0.0,0.0,0.0,0.0,0.0,0.0,0.0,0.0,0.0,0.0,0.0,0.0,0.0,0.0,0.0,0.0,0.0,0.0,0.0,0.0,0.0,0.0,0.0,0.0,0.0,0.0,0.0,0.0,0.0,0.0,0.0,0.0,0.0,0.0,0.0,0.0,0.0,0.0,0.0,0.0,0.0,0.0,0.0,0.0,0.0,0.0,0.0,0.0,0.0,0.0,0.0,0.0,0.0,0.0,0.0,0.0,0.0,0.0,0.0,0.0,0.0,0.0,0.0,0.0,0.0,0.0,0.0,0.0,0.0,0.0,0.0,0.0,0.0,0.0,0.0,0.0,0.0,0.0,0.0,0.0,0.0,0.0,0.0,0.0,0.0,0.0,0.0,0.0,0.0,0.0,0.0,0.0,0.0,0.0,0.0,0.0,0.0,0.0,0.0,0.0,0.0,0.0,0.0,0.0,0.0,0.0,0.0,0.0,0.0,0.0,0.0,0.0,0.0,0.0,0.0,0.0,0.0,0.0,0.0,0.0,0.0,0.0,0.0,0.0,0.0,0.0,0.0,0.0,0.0,0.0,0.0,0.0,0.0,0.0,0.0,0.0,0.0,0.0,0.0,0.0,0.0,0.0,0.0,0.0,0.0,0.0,0.0,0.0,0.0,0.0,0.0,0.0,0.0,0.0,0.0,0.0,0.0,0.0,0.0,0.0,0.0,0.0,0.0,0.0,0.0,0.0,0.0,0.0,0.0,0.0,0.0,0.0,0.0,0.0,0.0,0.0,0.0,0.0,0.0,0.0,0.0,0.0,0.0,0.0,0.0,0.0,0.0,0.0,0.0,0.0,0.0,0.0,0.0,0.0,0.0,0.0,0.0,0.0,0.0,0.0,0.0,0.0,0.0,0.0,0.0,0.0,0.0,0.0,0.0,0.0,0.0,0.0,0.0,0.0,0.0,0.0,0.0,0.0,0.0,0.0,0.0,0.0,0.0,0.0,0.0,0.0,0.0,0.0,0.0,0.0,0.0,0.0,0.0,0.0,0.0,0.0,0.0,0.0,0.0,0.0,0.0,0.0,0.0,0.0,0.0,0.0,0.0,0.0,0.0,0.0,0.0,0.0,0.0,0.0,0.0,0.0,0.0,0.0,0.0,0.0,0.0,0.0,0.0,0.0,0.0,0.0,0.0,0.0,0.0,0.0,0.0,0.0,0.0,0.0,0.0,0.0,0.0,0.0,0.0,0.0,0.0,0.0,0.0,0.0,0.0,0.0,0.0,0.0,0.0,0.0,0.0,0.0,0.0,0.0,0.0,0.0,0.0,0.0,0.0,0.0,0.0,0.0,0.0,0.0,0.0,0.0,0.0,0.0,0.0,0.0,0.0,0.0,0.0,0.0,0.0,0.0,0.0,0.0,0.0,0.0,0.0,0.0,0.0,0.0,0.0,0.0,0.0,0.0,0.0,0.0,0.0,0.0,0.0,0.0,0.0,3.152,3.0016,0.0,0.0,0.0,0.0,0.0,0.0,0.0,0.0,0.0,0.0,0.0,0.0,0.0,0.0,0.0,0.0,0.0,0.0,0.0,0.0,0.0,0.0,0.0,2.8301,2.8301,2.8301,2.8301,2.8301,2.8301,2.8301,0.0,0.0,0.0,0.0,2.8301,2.8301,2.8203,2.7988,2.7826,2.7513,2.7051,2.6836,2.6738,2.6699,0.0,0.0,0.0,0.0,0.0,0.0,0.0,0.0,0.0,0.0,0.0,0.0,0.0,0.0,0.0,0.0,0.0,0.0,0.0,0.0,0.0,0.0,0.0,0.0,0.0,0.0,0.0,0.0,0.0,0.0,0.0,0.0,0.0,0.0,0.0,0.0,0.0,0.0,0.0,0.0,0.0,0.0,0.0,0.0,0.0,0.0,0.0,0.0,0.0,0.0,0.0,0.0,0.0,0.0,0.0,0.0,0.0,0.0,0.0,0.0,0.0,0.0,0.0,0.0,0.0,0.0,0.0,0.0,0.0,0.0,3.2482,3.1622,0.0,0.0,0.0,0.0,0.0,0.0,0.0,0.0,0.0,0.0,0.0,0.0,0.0,0.0,0.0,0.0,0.0,0.0,0.0,0.0,0.0,2.8301,2.8301,2.8301,2.8301,2.8301,2.8301,2.8301,2.8301,2.8301,2.8301,2.8301,2.8301,2.8301,2.8301,2.8223,2.8008,2.7728,2.7571,2.7051,2.6269,2.5849,2.5937,2.625,2.5849,0.0,0.0,0.0,0.0,0.0,0.0,0.0,0.0,0.0,0.0,0.0,0.0,0.0,0.0,0.0,0.0,0.0,0.0,0.0,0.0,0.0,0.0,0.0,0.0,0.0,0.0,0.0,0.0,0.0,0.0,0.0,0.0,0.0,0.0,0.0,0.0,0.0,0.0,0.0,0.0,0.0,0.0,0.0,0.0,0.0,0.0,0.0,0.0,0.0,0.0,0.0,0.0,0.0,0.0,0.0,0.0,0.0,0.0,0.0,0.0,0.0,0.0,0.0,3.3032,3.3032,3.3032,3.3032,3.365,3.4678,3.3502,3.3552,3.4239,3.1949,0.0,0.0,0.0,0.0,0.0,0.0,0.0,0.0,0.0,0.0,0.0,0.0,0.0,0.0,0.0,0.0,0.0,0.0,0.0,2.8301,2.8301,2.8301,2.8301,2.8301,2.8301,2.8301,2.8301,2.8301,2.8301,2.8301,2.8301,2.8301,2.8301,2.793,2.7767,2.7728,2.6914,2.6309,2.5771,2.5713,2.5713,2.5771,2.5713,2.5693,2.5693,0.0,0.0,0.0,0.0,0.0,0.0,0.0,0.0,0.0,0.0,0.0,0.0,0.0,0.0,0.0,0.0,0.0,0.0,0.0,0.0,0.0,0.0,0.0,0.0,0.0,0.0,0.0,0.0,0.0,0.0,0.0,0.0,0.0,0.0,0.0,0.0,0.0,0.0,0.0,0.0,0.0,3.2079,3.228,0.0,0.0,0.0,0.0,0.0,0.0,0.0,0.0,0.0,0.0,0.0,0.0,0.0,3.3429,3.5858,3.4727,3.4727,3.5858,3.5858,3.5858,3.5858,3.5858,3.5953,3.6121,3.5953,0.0,3.4385,3.4019,0.0,0.0,0.0,0.0,0.0,0.0,0.0,0.0,0.0,0.0,0.0,0.0,0.0,0.0,0.0,0.0,0.0,0.0,0.0,0.0,0.0,2.8301,2.8301,2.8301,2.8301,2.8301,2.8301,2.8301,2.8301,2.8301,2.8301,2.8184,2.7949,2.7806,2.7474,2.6953,2.6328,2.5869,2.5693,2.5693,2.6062,2.6764,2.6764,2.6764,2.6812,2.7484,0.0,0.0,0.0,0.0,0.0,0.0,0.0,0.0,0.0,0.0,0.0,0.0,0.0,0.0,0.0,0.0,0.0,0.0,0.0,0.0,0.0,0.0,0.0,0.0,0.0,0.0,0.0,0.0,0.0,0.0,0.0,0.0,0.0,0.0,0.0,0.0,0.0,0.0,0.0,3.4142,3.4581,3.4581,3.4581,3.4289,0.0,0.0,0.0,0.0,0.0,0.0,0.0,0.0,0.0,3.5523,3.4896,3.5186,3.6405,3.581,3.581,3.6405,3.6405,3.6405,3.6405,3.6405,3.6405,3.6405,3.6405,3.6073,3.5475,3.4727,3.4019,3.3403,0.0,0.0,0.0,0.0,3.3615,3.39,0.0,0.0,0.0,0.0,0.0,0.0,0.0,0.0,0.0,0.0,0.0,0.0,2.8301,2.8301,2.8301,2.8301,2.8301,2.8301,2.8301,2.8301,2.8301,2.8301,2.8184,2.7988,2.7728,2.7493,2.6973,2.623,2.5849,2.5693,2.5693,2.6014,2.6716,2.7626,2.8262,2.8355,2.8143,2.9004,2.9396,2.9326,0.0,0.0,0.0,0.0,0.0,0.0,0.0,0.0,0.0,0.0,0.0,0.0,0.0,0.0,0.0,0.0,0.0,0.0,0.0,0.0,0.0,0.0,0.0,0.0,0.0,0.0,0.0,0.0,0.0,0.0,0.0,0.0,0.0,0.0,0.0,0.0,0.0,3.5763,3.6405,3.6405,3.6405,3.6001,0.0,0.0,0.0,0.0,0.0,0.0,3.6405,3.6405,3.6405,3.6405,3.6405,3.6405,3.6405,3.6405,3.6405,3.6405,3.6405,3.6405,3.6405,3.6405,3.6405,3.6405,3.6405,3.6405,3.631,3.5331,3.4921,3.4824,3.3749,3.333,3.3479,3.4508,3.4921,3.5066,0.0,0.0,0.0,0.0,0.0,0.0,0.0,0.0,0.0,0.0,0.0,2.8301,2.8301,2.8301,2.8301,2.8301,2.8301,2.8301,2.8301,2.8301,2.8301,2.8301,2.791,2.7748,2.7728,2.6875,2.623,2.5732,2.5693,2.5693,2.5742,2.6935,2.7552,2.7673,2.9988,3.0395,2.9304,2.935,2.9396,2.9396,2.9304,0.0,0.0,0.0,0.0,0.0,0.0,0.0,0.0,0.0,0.0,0.0,0.0,0.0,0.0,0.0,0.0,0.0,0.0,0.0,0.0,0.0,0.0,0.0,0.0,0.0,0.0,0.0,0.0,0.0,0.0,0.0,0.0,0.0,0.0,0.0,0.0,0.0,0.0,3.6405,3.6405,0.0,0.0,0.0,0.0,3.631,3.6358,3.6405,3.6405,3.6405,3.6405,3.6405,3.6405,3.6405,3.6405,3.6405,3.6405,3.6405,3.6405,3.6405,3.6405,3.6405,3.6405,3.6405,3.6405,3.6405,3.6405,3.631,3.631,3.631,3.6216,3.6216,3.6216,3.6263,3.631,3.631,0.0,0.0,0.0,0.0,0.0,2.7053,2.8155,2.8301,2.8301,2.8301,2.8301,2.8301,2.8301,2.8301,2.8301,2.8301,2.8301,2.8301,2.8301,2.8301,2.8164,2.7963,2.7806,2.7454,2.6855,2.6269,2.5898,2.5693,2.5693,2.5693,2.5742,2.6982,2.8002,2.8819,3.044,3.14,3.1777,3.1777,3.1777,3.1689,3.0911,3.053,0.0,0.0,0.0,0.0,0.0,0.0,0.0,0.0,0.0,0.0,0.0,0.0,0.0,0.0,0.0,0.0,0.0,0.0,0.0,0.0,0.0,0.0,0.0,0.0,0.0,0.0,0.0,0.0,0.0,0.0,0.0,0.0,0.0,0.0,0.0,0.0,0.0,3.6405,3.6405,0.0,3.6405,3.6405,3.6405,3.6405,3.6405,3.6405,3.6405,3.6405,3.6405,3.6405,3.6405,3.6405,3.6405,3.6405,3.6405,3.6405,3.6405,3.6405,3.6405,3.6405,3.6405,3.6405,3.6405,3.6405,3.6405,3.6405,3.6405,3.6405,3.6405,3.6405,3.6405,3.6405,3.6405,3.6405,0.0,0.0,0.0,0.0,2.5216,2.6427,2.7384,2.796,2.8301,2.8301,2.8301,2.8301,2.8301,2.8301,2.8301,2.8301,2.8301,2.8301,2.8301,2.8301,2.8105,2.7728,2.7434,2.6894,2.6191,2.583,2.5693,2.5693,2.5693,2.5693,2.5742,2.7389,2.8634,2.9442,3.1089,3.2326,3.3111,3.3111,3.3111,3.3025,3.2196,3.1821,3.1733,0.0,0.0,0.0,0.0,0.0,0.0,0.0,0.0,0.0,0.0,0.0,0.0,0.0,0.0,0.0,0.0,0.0,0.0,0.0,0.0,0.0,0.0,0.0,0.0,0.0,0.0,0.0,0.0,0.0,0.0,0.0,0.0,0.0,0.0,3.6631,3.6405,3.6405,3.6405,3.6405,3.6405,3.6405,3.6405,3.6405,3.6405,3.6405,3.6405,3.6405,3.6405,3.6405,3.6405,3.6405,3.6405,3.6405,3.6405,3.6405,3.6405,3.6405,3.6405,3.6405,3.6405,3.6405,3.6405,3.6405,3.6405,3.6405,3.6405,3.6405,3.6405,3.6405,3.6405,3.6405,3.6405,3.6405,0.0,0.0,0.0,2.1148,2.385,2.6045,2.61,2.733,2.8228,2.8281,2.8301,2.8301,2.8301,2.8301,2.8301,2.8301,2.8301,2.8301,2.8301,2.8281,2.8086,2.7689,2.6816,2.6172,2.5693,2.5693,2.5693,2.5693,2.5693,2.5693,2.5742,2.8215,2.935,2.9442,3.1933,3.3025,3.3025,3.3068,3.3111,3.3111,3.3111,3.3111,3.3111,0.0,0.0,0.0,0.0,0.0,0.0,0.0,0.0,0.0,0.0,0.0,0.0,0.0,0.0,0.0,0.0,0.0,0.0,0.0,0.0,0.0,0.0,0.0,0.0,0.0,0.0,0.0,0.0,0.0,0.0,0.0,0.0,0.0,3.6581,3.6405,3.6405,3.6405,3.6405,3.6405,3.6405,3.6405,3.6405,3.6405,3.6405,3.6405,3.6405,3.6405,3.6405,3.6405,3.6452,3.6452,3.6452,3.6499,3.6499,3.6499,3.6499,3.6499,3.6499,3.6499,3.6499,3.6452,3.6452,3.6452,3.6405,3.6405,3.6405,3.6405,3.6405,3.6405,3.6405,3.6405,3.6405,3.6405,0.0,0.0,2.1486,2.2847,2.3811,2.482,2.5936,2.6427,2.7114,2.8174,2.8301,2.8301,2.8301,2.8301,2.8301,2.8301,2.8301,2.8301,2.8301,2.8008,2.75,2.6777,2.6211,2.581,2.5693,2.5693,2.5693,2.5693,2.5693,2.5693,2.5742,2.7342,2.8096,2.819,3.0643,3.1733,3.1777,3.2698,3.3111,3.3111,3.3111,3.3111,3.3111,0.0,0.0,0.0,0.0,0.0,0.0,0.0,0.0,0.0,0.0,0.0,0.0,0.0,0.0,0.0,0.0,0.0,0.0,0.0,0.0,0.0,0.0,0.0,0.0,0.0,0.0,0.0,0.0,0.0,0.0,0.0,3.8115,3.7764,3.7061,3.6656,3.6405,3.6405,3.6405,3.6405,3.6405,3.6405,3.6405,3.6405,3.6405,3.6405,3.6405,3.6405,3.6405,3.6405,3.7196,3.7632,3.7632,3.8469,3.8917,3.8917,3.8917,3.8917,3.8917,3.8917,3.845,3.7632,3.7632,3.715,3.6405,3.6405,3.6405,3.6405,3.6405,3.6405,3.6405,3.6405,3.6405,3.6405,0.0,2.0329,2.0699,2.1783,2.2492,2.3207,2.41,2.5261,2.6427,2.7276,2.7906,2.8301,2.8301,2.8301,2.8301,2.8301,2.8301,2.8301,2.8301,2.7734,2.709,2.6426,2.5977,2.5693,2.5693,2.5693,2.5693,2.5693,2.5693,2.5693,2.5742,2.6982,2.76,2.772,3.0124,3.1223,3.1267,3.2568,3.3111,3.3111,3.3111,3.3111,3.3111,3.3111,3.3111,3.3219,3.4324,3.468,3.4876,3.6028,0.0,0.0,0.0,0.0,0.0,0.0,0.0,0.0,0.0,0.0,0.0,0.0,0.0,0.0,0.0,0.0,0.0,0.0,0.0,0.0,0.0,0.0,0.0,0.0,3.8015,3.7739,3.6983,3.6606,3.6405,3.6405,3.6405,3.6405,3.6405,3.6606,3.6757,3.6757,3.691,3.7061,3.7061,3.7061,3.7061,3.7061,3.7727,3.8079,3.8079,3.928,3.9871,3.9916,4.0161,4.0272,4.0244,4.0023,3.9492,3.8872,3.8872,3.8469,3.7815,3.7335,3.7103,0.0,0.0,0.0,0.0,0.0,3.6405,3.6405,0.0,1.9185,1.943,1.943,2.0472,2.1415,2.1586,2.3861,2.57,2.6045,2.7222,2.8121,2.8301,2.8301,2.8301,2.8301,2.8301,2.8262,2.8144,2.7441,2.6797,2.6328,2.5937,2.5693,2.5693,2.5693,2.5693,2.5693,2.5693,2.5693,2.5742,2.686,2.741,2.7505,2.9761,3.0866,3.1089,3.2326,3.2982,3.3111,3.3111,3.3111,3.3111,3.3111,3.3111,3.3219,3.4248,3.4675,3.4876,3.5931,0.0,0.0,0.0,0.0,0.0,0.0,0.0,0.0,0.0,0.0,0.0,0.0,0.0,0.0,0.0,0.0,0.0,0.0,0.0,0.0,0.0,0.0,0.0,0.0,3.8065,3.7713,3.6656,3.6556,3.6581,3.6505,3.6505,3.6531,3.6581,3.6985,3.7287,3.7287,3.7739,3.8015,3.8015,3.8015,0.0,0.0,0.0,3.8285,3.8432,3.9659,4.0388,4.0502,4.1056,4.1267,4.1183,4.0609,4.0272,4.0059,4.0059,4.0015,3.9826,3.8738,3.8289,3.8153,3.6896,3.6405,3.6405,3.6546,3.6593,3.6593,0.0,1.939,1.943,1.943,1.9649,2.0199,2.1415,2.2081,2.3319,2.5772,2.6318,2.6987,2.8174,2.8301,2.8301,2.8301,2.8301,2.8008,2.7305,2.7109,2.668,2.5849,2.5732,2.5693,2.5693,2.5693,2.5693,2.5693,2.5693,2.5693,2.5693,2.5965,2.6062,2.6159,2.7626,2.8819,2.9806,3.1045,3.2152,3.3111,3.3111,3.3111,3.3111,3.3111,3.3111,3.3169,3.3822,3.4349,3.4781,3.5433,3.6006,3.6405,3.6405,3.6405,0.0,0.0,0.0,0.0,0.0,0.0,0.0,0.0,0.0,0.0,0.0,0.0,0.0,0.0,0.0,0.0,0.0,0.0,0.0,3.8191,3.8391,3.8316,3.7186,3.7412,3.7513,3.7086,3.7036,3.7211,3.7638,3.7789,3.7839,3.7839,3.7939,3.8015,3.8015,3.8015,3.8015,3.8015,3.8943,3.997,4.0974,4.2133,4.3241,4.4248,4.4385,0.0,4.3643,4.3525,4.2648,4.1253,4.1253,4.0746,3.9913,3.9623,3.9536,3.9316,3.7196,3.6405,3.6499,3.7402,3.7769,3.7769,0.0,1.943,1.943,1.943,1.943,1.9649,2.0371,2.1145,2.2138,2.3638,2.5151,2.6372,2.7114,2.7833,2.8301,2.8301,2.8301,2.793,2.707,2.7012,2.6641,2.5732,2.5693,2.5693,2.5693,2.5693,2.5693,2.5693,2.5693,2.5693,2.5693,2.5693,2.5693,2.5791,2.703,2.7908,2.8634,3.044,3.1601,3.2196,3.2853,3.3111,3.3111,3.3111,3.3111,3.3144,3.3696,3.4248,3.4756,3.5307,3.5906,3.6405,3.6405,3.6405,3.6405,0.0,0.0,0.0,0.0,0.0,0.0,0.0,0.0,0.0,0.0,0.0,0.0,0.0,0.0,3.9697,3.9697,0.0,3.9421,3.8567,3.8668,3.8617,3.7713,3.7839,3.7914,3.7638,3.7588,3.7713,3.799,3.8266,3.8442,3.8442,3.8693,3.8843,3.8843,3.8843,3.912,3.9792,4.0406,4.1298,4.2592,4.3783,4.4704,4.5345,4.5637,4.5633,4.5304,4.4616,4.3823,4.2908,4.2614,4.2111,4.1574,4.1,4.0404,3.9754,3.863,3.8134,3.8225,3.8783,3.9006,3.9006,0.0,1.943,1.943,1.943,1.943,1.943,1.943,2.0429,2.1259,2.1586,2.3694,2.5316,2.559,2.6987,2.8014,2.8281,2.8301,2.7969,2.7187,2.707,2.668,2.5849,2.5732,2.5693,2.5693,2.5693,2.5693,2.5693,2.5693,2.5693,2.5693,2.5693,2.5693,2.5742,2.6764,2.7363,2.772,2.967,3.0777,3.1311,3.2326,3.2896,3.3111,3.3111,3.3111,3.3187,3.3571,3.4173,3.4801,3.5182,3.5805,3.6405,3.6405,3.6405,3.6405,3.6405,3.6405,0.0,0.0,0.0,0.0,0.0,0.0,0.0,0.0,3.9446,3.9572,3.9672,3.9697,3.9697,3.9697,3.9697,3.9521,3.902,3.902,3.8818,3.8266,3.8266,3.8341,3.8341,3.8241,3.8216,3.8316,3.8768,3.907,3.907,3.9446,3.98,4.0083,4.0083,4.0642,4.1936,4.1985,4.2593,4.3882,4.4886,4.5553,4.5779,4.6237,4.6441,4.6249,4.5065,4.4436,4.4287,4.3589,4.329,4.325,4.2316,4.1378,4.0532,4.0532,4.0532,4.0532,4.0318,4.0232,4.0232,0.0,1.943,1.943,1.943,1.943,1.943,1.943,1.9533,2.0141,2.1415,2.1911,2.2589,2.3933,2.5443,2.6879,2.8174,2.8301,2.8086,2.7669,2.7226,2.6797,2.6328,2.5937,2.5693,2.5693,2.5693,2.5693,2.5693,2.5693,2.5693,2.5693,2.5693,2.5693,2.5693,2.582,2.6524,2.7647,2.7908,2.9235,3.1223,3.1356,3.2108,3.3111,3.3111,3.3111,3.3136,3.3187,3.3847,3.4726,3.4756,3.5504,3.6405,3.6405,3.6405,3.6405,3.6405,3.6405,3.643,3.648,3.6857,3.7211,3.7337,3.7739,3.8115,0.0,3.8592,3.9094,3.9597,3.9697,3.9697,3.9697,3.9697,3.9521,3.902,3.927,3.9396,3.8894,3.9195,3.9496,3.9496,3.9069,3.8969,3.9446,3.9572,3.9597,3.9597,3.9672,4.016,4.1319,4.1419,4.1985,4.3266,4.3313,4.3882,4.5161,4.5343,4.5958,4.7062,4.7133,4.689,4.6249,4.5544,4.4855,4.4287,4.3589,4.329,4.329,4.317,4.3021,4.29,4.29,4.29,4.282,4.1782,4.142,4.142,0.0,0.0,1.943,1.943,1.943,1.943,1.943,1.943,1.9649,2.0256,2.1088,2.1813,2.242,2.3877,2.5371,2.6879,2.6987,2.7214,2.7695,2.7266,2.6836,2.6406,2.5977,2.5693,2.5693,2.5693,2.5693,2.5693,2.5693,2.5693,2.5693,2.5693,2.5693,2.5693,2.5693,2.6014,2.6524,2.7268,2.819,2.9212,3.0619,3.1533,3.2108,3.2828,3.3111,3.3111,3.3111,3.3571,0.0,3.458,3.5228,3.5956,3.6304,3.6405,3.6405,3.6405,3.6405,3.6405,3.6405,3.6581,3.6832,3.7111,3.7362,3.7613,3.7939,3.8467,3.8944,3.917,3.9471,3.9697,3.9697,3.9697,3.9622,3.9396,3.9546,3.9622,3.9371,3.9546,3.9697,3.9697,3.9496,3.9446,3.9672,3.9697,3.9697,3.9697,3.9697,3.9929,4.0465,4.1219,4.2181,4.3456,4.421,4.5207,4.6506,4.6506,4.677,4.7309,4.7309,4.716,4.686,4.5783,4.4736,4.3678,4.3409,4.329,4.329,4.329,4.329,4.329,4.329,4.329,4.325,4.278,4.2589,4.2589,0.0,0.0,0.0,1.943,1.943,1.943,1.943,1.943,1.943,1.943,2.0314,2.1145,2.1586,2.2533,2.3822,2.5316,2.5882,2.6425,2.7199,2.7098,2.6875,2.6582,2.6035,2.5693,2.5693,2.5693,2.5693,2.5693,2.5693,2.5693,2.5693,2.5693,2.5693,2.5693,2.5693,2.5693,2.5791,2.6668,2.7268,2.7767,2.9487,3.0395,3.0866,3.2108,3.2568,3.2612,3.2982,3.342,3.3972,3.4525,3.5056,3.5608,3.6182,3.6405,3.6405,3.6405,3.6405,3.6405,3.6405,3.6405,3.6505,3.6908,3.7008,3.7111,3.7663,3.8216,3.8668,3.8894,3.932,3.9697,3.9697,3.9697,3.9697,3.9697,3.9697,3.9697,3.9697,3.9697,3.9697,3.9697,3.9697,3.9826,4.016,3.9929,3.9697,3.9697,3.9697,3.9826,4.0211,4.1069,4.235,4.3975,4.4932,4.6003,4.7309,4.7309,4.7309,4.7309,4.7309,4.7309,4.7249,4.5903,4.4586,4.329,4.329,4.329,4.329,4.329,4.329,4.329,4.329,4.329,4.329,4.329,4.329,4.329,0.0,0.0,0.0,0.0,1.943,1.943,1.943,1.943,1.943,1.943,1.943,2.004,2.1415,2.1643,2.2251,2.371,2.5261,2.61,2.6136,2.666,2.7012,2.6992,2.6142,2.5693,2.5693,2.5693,2.5693,2.5693,2.5693,2.5693,2.5693,2.5693,2.5693,2.5693,2.5693,2.5693,2.5693,2.5742,2.6476,2.76,2.7673,2.8402,2.9601,3.0822,3.1267,3.14,3.2655,3.342,3.3972,3.4525,3.5056,3.5608,3.6182,3.6405,3.6405,3.6405,3.6405,3.6405,3.6405,3.6405,3.6405,3.643,3.643,3.6581,3.7086,3.7638,3.8191,3.8768,3.932,3.9697,3.9697,3.9697,3.9697,3.9697,3.9697,3.9697,3.9697,3.9697,3.9697,3.9697,3.9697,4.016,4.1419,4.0415,3.9697,3.9697,3.9697,4.0211,4.1468,4.1591,4.2738,4.5252,4.5389,4.6003,4.7309,4.7309,4.7309,4.7309,4.7309,4.7309,4.7249,4.5903,4.4586,4.329,4.329,4.329,4.329,4.329,4.329,4.329,4.329,4.329,4.329,4.329,4.329,4.329,0.0,0.0,0.0,0.0,0.0,1.943,1.943,1.943,1.943,1.943,1.943,0.0,0.0,0.0,0.0,0.0,2.2814,2.3543,2.4488,2.4518,2.4774,2.5515,2.4112,2.3669,2.4362,2.3484,2.3484,2.4362,2.4362,2.4824,2.5693,2.5693,2.5693,2.5693,2.5693,2.5693,2.5693,2.5693,2.5965,2.6428,2.7268,2.7861,2.8402,3.044,3.1223,3.1356,0.0,3.3237,3.3495,3.4399,3.4806,3.5152,3.6128,3.6405,3.6405,3.6405,3.6405,3.6405,3.6405,3.6405,3.6405,3.6405,3.6405,3.6556,3.7061,3.7613,3.8165,3.8793,3.932,3.9697,3.9697,3.9697,3.9697,3.9697,3.9697,3.9697,3.9697,3.9697,3.9697,3.9697,3.9697,3.9878,4.0313,4.0693,4.0995,4.0995,4.1739,4.164,4.0415,4.1936,4.2882,4.2882,4.4489,4.5598,4.6032,4.6887,4.7309,4.7309,4.686,4.6411,4.5933,4.5065,4.4167,4.329,4.329,4.329,4.329,4.329,4.329,4.329,4.329,4.329,4.329,4.329,4.329,4.329,0.0,0.0,0.0,0.0,0.0,0.0,0.0,0.0,0.0,0.0,0.0,0.0,0.0,0.0,0.0,0.0,0.0,2.1983,2.2927,2.3106,2.3453,2.4035,2.282,2.2399,2.2985,2.2165,2.2114,2.2968,2.2968,2.3683,2.4971,2.4971,2.5235,2.5693,2.5693,2.5693,2.5693,2.5693,2.5693,2.5791,2.6572,2.6935,2.7125,2.912,2.9897,0.0,3.1821,3.2413,3.2605,3.399,3.455,3.4876,3.578,3.6207,3.6405,3.6405,3.6405,3.6405,3.6405,3.6405,3.6405,3.6405,3.6556,3.6807,3.7111,3.7764,3.8417,3.8844,3.932,3.9697,3.9697,3.9697,3.9697,3.9697,3.9697,3.9697,3.9697,3.9697,3.9697,3.9697,3.9697,3.9878,4.0313,4.1119,4.1591,4.1591,4.2786,4.2593,4.0516,4.235,4.293,4.164,4.4069,4.5389,4.5389,4.6638,4.7309,4.7309,4.6651,4.5963,4.5274,4.4616,4.3917,4.329,4.329,4.329,4.329,4.329,4.329,4.329,4.329,4.329,4.329,4.329,4.329,4.329,0.0,0.0,0.0,0.0,0.0,0.0,0.0,0.0,0.0,0.0,0.0,0.0,0.0,0.0,0.0,0.0,0.0,0.0,2.1472,2.2458,2.289,2.2622,2.2172,2.1813,2.1625,2.1558,2.1541,2.1592,2.1592,2.2265,2.3583,2.3583,2.4295,2.5596,2.5596,2.5645,2.5693,2.5693,2.5693,2.5693,2.5693,2.5693,2.582,2.7125,2.76,2.7908,3.0259,3.1134,3.1496,3.33,3.4274,3.4831,3.5382,3.5956,3.6405,3.6405,3.6405,3.6405,3.6405,3.6405,3.6405,3.6405,3.6832,3.7186,3.7211,3.8065,3.8919,3.8969,3.932,3.9697,3.9697,3.9697,3.9697,3.9697,3.9697,3.9697,3.9697,3.9697,3.9697,3.9697,3.9697,4.016,4.1419,4.1541,4.1591,4.1591,4.2834,4.3026,4.164,4.2882,4.3026,4.1739,4.4022,4.5343,4.5389,4.6638,4.7279,4.7249,4.6591,4.5903,4.5214,4.4556,4.3888,4.329,4.329,4.329,4.329,4.329,4.329,4.329,4.329,4.329,4.329,4.329,4.329,4.329,0.0,0.0,0.0,0.0,0.0,0.0,0.0,0.0,0.0,0.0,0.0,0.0,0.0,0.0,0.0,0.0,0.0,0.0,1.9982,2.0244,2.067,2.1304,2.0128,1.9769,2.0474,1.9293,1.9109,2.0143,2.0143,2.0845,2.2215,2.2215,2.2918,2.4196,2.4196,2.4756,2.5693,2.5693,2.5693,2.5693,2.5693,2.5693,2.582,2.7125,2.76,2.7814,2.9326,3.044,3.1496,3.33,3.455,3.5382,3.5981,3.6304,3.6405,3.6405,3.6405,3.6405,3.6405,3.6405,3.6405,3.6405,3.6832,3.7287,3.7688,3.8366,3.8994,3.9396,3.9597,3.9697,3.9697,3.9697,3.9697,3.9697,3.9697,3.9697,3.9697,3.9697,3.9697,3.9697,3.9697,3.9826,4.0185,4.1019,4.1591,4.1591,4.3646,4.3929,4.1739,4.3693,4.4303,4.3074,4.3646,4.4442,4.5389,4.6638,4.707,4.6561,4.5873,4.5214,4.4556,4.3858,4.3439,4.329,4.329,4.329,4.329,4.329,4.329,4.329,4.329,4.329,4.329,4.329,4.329,4.329,0.0,0.0,0.0,0.0,0.0,0.0,0.0,0.0,0.0,0.0,0.0,0.0,0.0,0.0,0.0,0.0,0.0,0.0,0.0,1.943,1.9571,2.0019,1.9151,1.8851,1.9152,1.8237,1.8087,1.8708,1.8708,1.942,2.0794,2.0794,2.1507,2.2818,2.2818,2.3235,2.3998,2.4559,2.4805,0.0,0.0,2.5693,2.5791,2.6476,2.6764,2.6935,2.8168,2.992,3.1809,3.304,3.4346,3.5608,3.6182,3.6405,3.6405,3.6405,3.6405,3.6405,3.6405,3.6405,3.6405,3.6405,3.696,3.7638,3.7939,3.8642,3.932,3.9622,3.9697,3.9697,3.9697,3.9697,3.9697,3.9697,3.9697,3.9697,3.9697,3.9697,3.9697,3.9697,3.9697,3.9929,4.0465,4.1169,4.1591,4.1591,4.3975,4.4535,4.2544,4.484,4.5389,4.3551,4.4581,4.5508,4.6211,4.6931,4.698,4.6279,4.5633,4.4945,4.4287,4.3589,4.329,4.329,4.329,4.329,4.329,4.329,4.329,4.329,4.329,4.329,4.329,4.329,4.329,4.329,0.0,0.0,0.0,0.0,0.0,0.0,0.0,0.0,0.0,0.0,1.943,0.0,0.0,0.0,0.0,0.0,0.0,0.0,0.0,0.0,1.9252,1.8998,1.8945,1.8691,1.8115,1.8035,1.7916,1.7649,1.7609,1.8199,1.9317,1.9317,2.0076,2.144,2.144,2.1541,2.1794,2.3135,2.3683,2.385,2.5167,2.5693,2.5693,0.0,2.5693,2.5888,2.7187,2.9518,3.206,3.2745,3.4088,3.5608,3.6182,3.6405,3.6405,3.6405,3.6405,3.6405,3.6405,3.6405,3.6405,3.6405,3.7186,3.8015,3.8015,3.8894,3.9697,3.9697,3.9697,3.9697,3.9697,3.9697,3.9697,3.9697,3.9697,3.9697,3.9697,3.9697,3.9697,3.9697,3.9697,4.0211,4.1468,4.1591,4.1591,4.1591,4.3787,4.4674,4.3551,4.5779,4.6032,4.3834,4.5913,4.7062,4.7062,4.7062,4.6748,4.6172,4.5574,4.4915,4.4167,4.3559,4.329,4.329,4.329,4.329,4.329,4.329,4.329,4.329,4.329,4.329,4.329,4.329,4.329,4.329,0.0,0.0,0.0,0.0,0.0,0.0,0.0,0.0,0.0,0.0,1.943,1.943,0.0,0.0,0.0,0.0,0.0,0.0,0.0,0.0,0.0,1.9292,1.9052,1.8878,1.8771,1.8235,1.7969,1.7916,1.7702,1.774,1.7937,1.7937,1.8655,1.9989,1.9989,2.059,2.1794,2.3135,2.3683,2.385,2.5167,2.5693,2.5693,2.5693,0.0,0.0,2.7538,2.9432,3.1403,3.2912,3.4334,3.5608,3.6182,3.6405,3.6405,3.6405,3.6405,3.6405,3.6405,3.6405,3.6405,3.6405,3.7186,3.8015,3.8015,3.8894,3.9697,3.9697,3.9697,3.9697,3.9697,3.9697,3.9697,3.9697,3.9697,3.9697,3.9697,3.9697,3.9697,3.9697,3.9697,4.0211,4.1468,4.1591,4.1591,4.1591,4.2978,4.374,4.3504,4.4932,4.5553,4.507,4.5508,4.5734,4.5734,4.5734,4.5639,4.5454,4.5364,4.4676,4.3469,4.3349,4.329,4.329,4.329,0.0,4.329,4.329,4.329,4.329,4.329,4.329,4.329,4.329,4.329,4.329,0.0,0.0,0.0,0.0,0.0,0.0,0.0,1.943,1.943,1.943,1.943,1.943,1.943,1.943,1.943,0.0,0.0,0.0,0.0,0.0,0.0,0.0,0.0,0.0,1.8931,1.8651,1.8368,1.8277,0.0,1.805,1.805,1.805,1.8428,1.9059,1.9059,1.942,2.0151,2.2272,2.3169,2.3375,2.5516,2.6406,2.6406,0.0,0.0,0.0,0.0,2.9197,3.1495,3.228,3.4102,3.6006,3.6329,3.6405,3.6405,3.6405,3.6405,3.6405,3.6405,3.6405,3.6405,3.6405,3.7186,3.8015,3.8015,3.8894,3.9697,3.9697,3.9697,3.9697,3.9697,3.9697,3.9697,3.9697,3.9697,3.9697,3.9697,3.9697,3.9697,3.9697,3.9697,4.0211,4.1468,4.223,4.2301,4.164,4.2786,4.3504,4.3504,4.5343,4.6388,4.6388,4.5734,4.5734,4.6388,4.5415,4.504,4.5304,4.4945,4.4287,4.329,4.329,4.329,4.329,4.329,4.329,4.329,4.329,4.329,4.329,4.329,4.329,4.329,4.329,4.329,4.329,0.0,0.0,0.0,0.0,0.0,0.0,0.0,1.943,1.943,1.943,1.943,1.943,1.943,1.943,1.943,0.0,0.0,0.0,0.0,0.0,0.0,0.0,0.0,0.0,0.0,0.0,0.0,1.8584,1.8517,0.0,0.0,0.0,0.0,0.0,1.849,1.849,1.8657,2.1156,2.2429,0.0,0.0,2.6686,0.0,0.0,0.0,0.0,0.0,2.8938,3.134,3.1676,3.3666,3.6001,3.631,3.6405,3.6405,3.6405,3.6405,3.6405,3.6405,3.6405,3.6405,3.6405,3.7111,3.7839,3.7839,3.8693,3.9521,3.9521,3.9622,3.9697,3.9697,3.9697,3.9697,3.9697,3.9697,3.9697,3.9697,3.9697,3.9697,3.9697,3.9697,4.0211,4.1468,4.2738,4.3074,4.2084,4.293,4.3504,4.3504,4.5913,4.7309,4.7309,4.5779,4.5734,4.7266,4.5096,4.4458,4.5274,4.4616,4.3917,4.329,4.329,4.329,4.329,4.329,4.329,4.329,4.329,4.329,4.329,4.329,4.329,4.329,4.329,4.329,4.329,0.0,0.0,0.0,0.0,0.0,0.0,0.0,1.943,1.943,1.943,1.943,1.943,1.943,1.943,1.943,0.0,0.0,0.0,0.0,0.0,0.0,0.0,0.0,0.0,0.0,0.0,0.0,1.8878,1.8624,0.0,0.0,0.0,0.0,0.0,0.0,1.849,1.8601,2.0085,0.0,0.0,0.0,0.0,0.0,0.0,0.0,0.0,0.0,2.8614,3.0155,3.1728,3.3258,3.4775,3.6026,3.6405,3.6405,3.6405,3.6405,3.6405,3.6405,3.6405,3.6405,3.6405,3.6857,3.7262,3.7262,3.814,3.8994,3.8994,3.9346,3.9697,3.9697,3.9697,3.9697,3.9697,3.9697,3.9697,3.9697,3.9697,3.9697,3.9697,3.9697,4.0211,4.1468,4.2738,4.3456,4.3313,4.3456,4.3504,4.3504,4.5913,4.7309,4.7309,4.4932,4.484,4.7266,4.4214,4.356,4.5274,4.4616,4.3917,4.329,4.329,4.329,4.329,4.329,4.329,0.0,4.329,4.329,4.329,4.329,4.329,4.329,4.329,4.329,4.329,0.0,0.0,0.0,0.0,0.0,0.0,1.943,1.943,1.943,1.943,1.943,1.943,1.943,2.0199,2.0371,1.9475,0.0,0.0,0.0,0.0,0.0,0.0,0.0,0.0,0.0,0.0,1.9185,1.9185,1.9078,0.0,0.0,0.0,0.0,0.0,0.0,1.9011,1.9182,2.1532,0.0,0.0,0.0,0.0,0.0,0.0,0.0,0.0,0.0,0.0,3.0282,3.1759,3.3254,3.4629,3.5978,3.6405,3.6405,3.6405,3.6405,3.6405,3.6405,3.6405,3.6405,3.6405,3.6832,3.7186,3.7186,3.7789,3.8341,3.8341,3.8793,3.9195,3.9195,3.9471,3.9697,3.9697,3.9697,3.9697,3.9697,3.9697,3.9697,3.9697,3.9697,4.0211,4.1468,4.2738,4.3504,4.3504,4.3504,4.317,4.2398,4.4794,4.6506,4.7266,4.484,4.4349,4.6166,4.3318,4.2671,4.4134,4.3153,4.2895,4.329,4.2589,4.2629,4.329,4.329,4.329,0.0,4.329,4.329,4.329,4.329,4.329,4.329,4.329,4.329,4.329,0.0,0.0,0.0,0.0,0.0,1.943,1.943,1.943,1.9533,1.9982,2.004,2.0199,2.0658,2.1658,2.1813,2.0759,2.0716,0.0,0.0,0.0,0.0,0.0,0.0,0.0,0.0,0.0,1.943,1.943,1.943,1.943,0.0,0.0,1.943,1.943,0.0,0.0,0.0,0.0,0.0,0.0,0.0,0.0,0.0,0.0,0.0,0.0,0.0,0.0,0.0,0.0,0.0,3.4068,3.5858,3.6405,3.6405,3.6405,3.6405,3.6405,3.6405,3.6405,3.6405,3.6405,3.6707,3.6935,3.6935,3.7362,3.7764,3.7764,3.8216,3.8668,3.8894,3.9195,3.9496,0.0,0.0,3.9697,3.9697,3.9697,3.9697,3.9697,3.9697,4.0032,4.0945,4.2544,4.3504,4.3504,4.3504,4.3122,4.223,4.3882,4.5389,4.6682,4.4627,4.4116,4.5389,4.281,4.197,4.289,4.2023,4.1864,4.2263,4.1823,4.2029,4.282,4.317,4.313,0.0,4.317,4.313,4.282,4.317,4.329,4.329,4.329,4.329,4.329,0.0,0.0,0.0,0.0,0.0,0.0,1.943,1.943,1.9924,2.1358,2.1586,2.2138,2.3599,2.3766,2.3766,2.3766,2.3766,0.0,0.0,0.0,0.0,0.0,0.0,0.0,0.0,0.0,1.943,1.943,1.943,1.943,1.943,1.943,1.943,1.943,0.0,0.0,0.0,0.0,0.0,0.0,0.0,0.0,2.8301,0.0,0.0,0.0,0.0,0.0,0.0,0.0,0.0,0.0,0.0,3.6405,3.6405,3.6405,3.6405,3.6405,3.6405,3.6405,3.6405,3.6405,3.6405,3.6405,3.6405,3.6832,3.7186,3.7186,3.7638,3.8191,3.8768,3.8868,3.9069,3.9597,3.9697,0.0,3.9697,3.9697,3.9697,3.9697,3.9697,3.9697,3.9749,4.2035,4.3504,4.3504,4.3504,4.3504,4.3504,4.3504,4.4116,4.5389,4.4163,4.4116,4.5389,4.281,4.1562,4.1726,4.1639,4.1,3.9972,4.1085,4.1587,4.167,4.282,4.267,0.0,4.282,4.2629,4.1711,4.286,4.329,4.329,4.329,4.329,4.329,0.0,0.0,0.0,0.0,0.0,0.0,0.0,2.2907,2.2928,2.3071,2.3095,2.3263,2.3766,2.4765,2.5371,2.5371,2.4433,0.0,0.0,0.0,0.0,0.0,0.0,0.0,0.0,1.9924,1.943,1.943,1.943,1.943,1.943,1.943,1.943,1.943,1.943,1.943,0.0,0.0,0.0,0.0,0.0,2.8301,2.8301,0.0,0.0,0.0,0.0,0.0,0.0,0.0,0.0,0.0,0.0,0.0,0.0,3.6405,3.6405,3.6405,3.6405,3.6405,3.6405,3.6405,3.6405,3.6405,3.6405,3.6531,3.6681,3.6681,3.7061,3.7613,3.8165,3.8592,3.9095,3.9597,3.9697,0.0,3.9697,3.9697,4.0032,4.0895,4.2544,4.3266,4.235,4.4581,4.5389,4.3646,4.3504,4.3122,4.2279,4.3026,4.4069,4.5343,4.4163,4.3121,4.2283,4.0979,4.0572,4.1,3.9803,3.9858,4.1042,4.0618,4.0873,4.1629,4.1988,4.1947,4.1629,4.1988,4.1947,4.1711,4.286,4.329,4.329,4.329,4.329,4.329,0.0,0.0,0.0,0.0,0.0,0.0,0.0,2.4621,2.4568,2.4855,2.474,2.4875,2.5443,2.6336,2.6933,2.6933,2.6045,0.0,0.0,0.0,0.0,0.0,0.0,0.0,2.1586,2.0702,1.9982,1.943,1.943,1.943,1.943,1.943,1.943,1.943,1.943,1.9707,0.0,0.0,0.0,0.0,2.8301,2.8301,2.8301,0.0,0.0,0.0,0.0,0.0,0.0,0.0,0.0,0.0,0.0,0.0,0.0,0.0,3.6405,3.6405,3.6405,3.6405,3.6405,3.6405,3.6405,3.6405,3.6405,3.6405,3.6405,3.6405,3.6681,3.7036,3.7588,3.8165,3.8718,3.9295,3.9546,3.9697,3.9697,3.9697,4.016,4.1468,4.3409,4.4535,4.4256,4.5207,4.5207,4.3646,4.3074,4.2447,4.164,4.2786,4.3646,4.3975,4.3646,4.2658,4.0843,4.0568,4.0094,3.9367,3.8961,3.9067,3.964,3.936,3.9885,4.0958,4.0958,4.0958,0.0,4.0958,4.0958,4.1085,4.2193,4.29,4.329,4.329,4.329,4.329,0.0,0.0,0.0,0.0,0.0,0.0,0.0,2.5182,2.54,2.6713,2.6573,2.6808,2.8179,2.832,2.8301,2.8301,0.0,0.0,0.0,0.0,0.0,0.0,0.0,0.0,2.1983,2.1813,2.1088,1.9707,1.9591,1.9533,1.9533,1.943,1.943,1.943,1.9533,2.0429,2.2081,2.482,2.6825,2.8301,2.8301,2.8301,0.0,0.0,0.0,0.0,0.0,0.0,0.0,0.0,0.0,0.0,0.0,0.0,0.0,0.0,0.0,0.0,0.0,3.6405,3.6405,3.6405,3.6405,3.6405,3.6405,3.6405,0.0,3.6405,3.6405,3.6581,3.7086,3.7638,3.8191,3.8768,3.932,3.9697,3.9697,3.9826,4.0364,4.1468,4.2882,4.421,4.5298,4.4396,4.3693,4.3504,4.2398,4.169,4.1591,4.2786,4.293,4.164,4.2807,4.2528,4.0645,4.1031,3.9927,3.7303,3.8871,3.8541,3.6546,3.7632,3.8738,0.0,3.9826,3.9798,3.9913,3.9826,3.9754,3.9885,4.1127,4.2193,4.309,4.317,4.313,4.309,0.0,0.0,0.0,0.0,0.0,0.0,0.0,0.0,0.0,0.0,2.8528,2.8369,2.8715,2.8476,2.8301,0.0,0.0,0.0,0.0,0.0,0.0,0.0,0.0,0.0,2.5041,2.3877,2.3095,2.2774,2.1643,2.1088,2.1088,1.9924,1.943,1.943,2.0587,2.2533,2.4986,2.4544,2.5882,2.8301,2.8301,2.8301,0.0,0.0,0.0,0.0,2.8301,2.8301,0.0,0.0,0.0,0.0,0.0,0.0,0.0,0.0,3.6405,3.6405,3.6405,0.0,3.6405,3.6405,3.6405,3.6405,0.0,3.6405,3.6405,3.6405,3.6405,3.6581,3.7086,3.7638,3.8191,3.8768,3.932,3.9697,3.9697,4.1369,4.235,4.169,4.4442,4.6166,4.5434,4.6003,4.5598,4.3646,4.3218,4.2641,4.164,4.2786,4.293,4.164,4.2447,4.1524,3.8685,3.8751,3.8523,3.786,3.7433,3.7381,3.7723,3.7971,3.8738,3.9869,3.8917,3.905,3.9826,3.8917,3.8514,3.8738,4.0802,4.1211,4.0788,4.1699,4.142,4.0703,0.0,0.0,0.0,0.0,0.0,0.0,0.0,0.0,0.0,0.0,0.0,2.9141,2.8945,2.8711,0.0,0.0,0.0,0.0,0.0,0.0,0.0,0.0,0.0,2.5936,2.61,2.5261,2.4488,2.3822,2.2983,2.2251,2.1586,2.1487,2.0716,1.9475,2.1658,2.3543,2.5096,2.5608,2.6844,2.8301,2.8301,0.0,0.0,0.0,0.0,0.0,2.8301,2.8301,0.0,2.9859,3.1184,3.2532,0.0,0.0,0.0,0.0,3.6405,3.6405,3.6405,3.6405,3.6405,3.6405,3.6405,3.6405,3.6405,3.6405,3.6405,3.6405,3.6405,3.6505,3.6807,3.7462,3.8115,3.8417,3.917,3.9697,3.9697,4.1887,4.3266,4.2544,4.5343,4.7019,4.6344,4.6344,4.5869,4.4489,4.3313,4.2301,4.164,4.2786,4.2641,4.0794,4.2025,4.1194,3.8015,3.825,3.8071,3.7335,3.7243,3.7243,3.7335,3.7335,3.8243,3.9798,3.8088,3.8315,3.9782,3.8043,3.7632,3.8243,3.9508,3.9972,3.9972,4.0575,4.0447,3.9913,0.0,0.0,0.0,0.0,0.0,0.0,0.0,0.0,0.0,0.0,0.0,0.0,0.0,0.0,0.0,0.0,0.0,0.0,0.0,0.0,0.0,0.0,2.8301,2.7726,2.6427,2.6445,2.5827,2.4488,2.4267,2.3487,2.2307,2.3319,2.2605,2.0544,2.2774,2.4044,2.4654,2.6952,2.8067,2.8301,2.8301,0.0,0.0,0.0,0.0,0.0,0.0,0.0,0.0,2.9618,3.103,3.2482,3.3723,0.0,0.0,0.0,0.0,0.0,3.6405,3.6405,3.6405,3.6405,3.6405,3.6405,3.6405,3.6405,3.6405,3.6405,3.6405,3.6405,3.6405,3.7455,3.8236,3.8064,3.9146,4.0083,4.0262,4.2301,4.3787,4.3787,4.5869,4.7309,4.7309,4.6299,4.5553,4.5161,4.3122,4.1739,4.1319,4.2689,4.2274,3.9674,4.1507,4.1059,3.7889,3.8372,3.7877,3.6405,3.7356,3.7335,3.6405,3.6405,3.7612,3.9492,0.0,0.0,3.9448,3.7289,3.6964,3.7861,3.8017,3.8738,3.9623,3.9623,3.9623,3.9579,0.0,0.0,0.0,0.0,0.0,0.0,0.0,0.0,0.0,0.0,0.0,0.0,0.0,0.0,0.0,0.0,0.0,0.0,0.0,0.0,0.0,2.8301,2.8301,2.8174,2.796,2.796,2.7853,2.7618,2.6372,2.5645,2.5371,2.4322,2.4283,2.502,2.4172,2.5223,2.7565,2.6771,2.7168,2.8301,2.8301,0.0,0.0,0.0,0.0,0.0,0.0,0.0,0.0,2.8548,3.0255,3.2331,3.2532,0.0,0.0,0.0,0.0,0.0,3.6405,3.6405,3.6405,3.6405,3.6405,3.6405,3.6405,3.6405,3.6405,3.6405,3.6405,3.6405,3.6405,3.817,3.9228,3.8187,3.9846,4.169,4.2786,4.4163,4.5115,4.5115,4.6388,4.7309,4.7309,4.7106,4.6121,4.3929,4.3456,4.2252,4.0134,4.223,4.2135,3.9095,4.0938,4.046,3.736,3.7404,3.7076,3.6405,3.6593,3.6593,3.6405,3.6405,3.7103,3.8289,0.0,3.715,3.8289,3.6943,3.6499,3.6756,3.7723,3.8198,3.8379,3.8379,3.8379,3.8243,0.0,0.0,0.0,0.0,0.0,0.0,0.0,0.0,0.0,0.0,0.0,0.0,0.0,0.0,0.0,0.0,0.0,0.0,0.0,0.0,2.8301,2.8301,2.8301,2.8301,2.8301,2.8301,2.8301,2.8301,2.7618,2.6879,2.6045,2.4544,2.4599,2.6063,2.5388,2.5827,2.7114,2.7222,2.7672,2.8301,0.0,0.0,0.0,0.0,0.0,0.0,0.0,0.0,0.0,0.0,3.1265,3.2532,3.4044,0.0,0.0,0.0,0.0,0.0,3.6405,3.6405,3.6405,3.6405,3.6405,3.6405,3.6405,3.6405,3.6405,3.6405,3.6405,3.6405,3.6405,3.8007,3.9585,4.0314,4.1641,4.2834,4.3409,4.4581,4.5389,4.5389,4.655,4.7309,4.7309,4.7309,4.6814,4.5644,4.4932,4.374,4.1838,4.32,4.2425,3.902,4.0435,3.9957,3.7235,3.6885,3.6656,3.6405,3.6405,3.6405,3.6405,3.6405,3.701,3.8017,0.0,3.7057,3.8017,3.6896,3.6405,3.6452,3.6964,3.7196,3.7196,3.7196,3.7196,3.7103,0.0,0.0,0.0,0.0,0.0,0.0,0.0,0.0,0.0,0.0,0.0,0.0,0.0,0.0,0.0,0.0,0.0,0.0,0.0,2.8301,2.8301,2.8301,2.8301,2.8301,2.8301,2.8301,2.8301,2.8301,2.8301,2.7726,2.6608,2.5443,2.5498,2.6608,2.6608,2.6608,2.6717,2.7833,2.8301,2.8301,0.0,0.0,0.0,0.0,0.0,0.0,0.0,0.0,0.0,0.0,0.0,0.0,0.0,0.0,0.0,3.6405,3.6405,3.6405,3.6405,3.6405,3.6405,3.6405,3.6405,3.6405,3.6405,3.6405,3.6405,3.6405,3.6405,3.6405,3.6405,3.7903,3.9974,4.2565,4.3538,4.4069,4.4349,4.5207,4.5824,4.5824,4.6726,4.7309,4.7309,4.7309,4.7149,4.6887,4.5958,4.4755,4.333,4.3976,4.2685,3.8989,4.0126,3.9562,3.7033,3.6631,3.6405,3.6405,3.6405,3.6405,3.6405,3.6405,3.6896,3.7632,3.6803,3.6896,3.7632,3.6756,3.6405,3.6405,3.6405,3.6405,3.6452,3.6709,3.6615,3.6405,0.0,0.0,0.0,0.0,0.0,0.0,0.0,0.0,0.0,0.0,0.0,0.0,0.0,0.0,0.0,0.0,0.0,0.0,0.0,2.8301,2.8301,2.8301,2.8301,2.8301,2.8301,2.8301,2.8301,2.8301,2.8301,2.8228,2.8121,2.8014,2.8067,2.8121,2.8121,2.8121,2.8121,2.8228,2.8301,2.8301,2.8301,0.0,0.0,0.0,0.0,0.0,0.0,0.0,0.0,0.0,0.0,0.0,0.0,0.0,3.6405,3.6405,3.6405,3.6405,3.6405,3.6405,3.6405,3.6405,3.6405,3.6405,3.6405,3.6405,3.6405,3.6405,3.6405,3.6405,3.6405,3.826,4.085,4.3922,4.4895,4.5689,4.6887,4.7106,4.7149,4.7149,4.7266,4.7309,4.7309,4.7309,4.6814,4.5644,4.5434,4.4584,4.2656,4.3749,4.2705,3.8997,4.0124,3.9419,3.648,3.643,3.6405,3.6405,3.6405,3.6405,3.6405,3.6405,3.6452,3.6546,3.6452,3.6452,3.6546,3.6452,3.6405,3.6405,3.6405,3.6405,3.6546,3.7586,3.7335,3.6405,0.0,0.0,0.0,0.0,0.0,0.0,0.0,0.0,0.0,0.0,0.0,0.0,0.0,0.0,0.0,0.0,0.0,0.0,0.0,2.8437,2.8301,2.8301,2.8301,2.8301,2.8301,2.8301,2.8301,2.8301,2.8301,2.8301,2.8301,2.8301,2.8301,2.8301,2.8301,2.8301,2.8301,2.8301,2.8301,2.8301,2.8301,2.8301,0.0,0.0,0.0,0.0,0.0,0.0,0.0,0.0,3.1721,3.2682,3.4969,3.6026,3.6405,3.6405,3.6405,3.6405,3.6405,3.6405,3.6405,3.6405,3.6405,3.6405,3.6405,3.6405,3.6405,3.6405,3.6405,3.6849,3.8315,3.9609,4.1474,4.4512,4.5561,4.6282,4.7163,4.7309,4.7309,4.7309,4.7309,4.7309,4.7309,4.7309,4.7106,4.6638,4.6211,4.5288,4.3766,4.4109,4.2681,3.9025,3.9788,3.8998,3.6405,3.6405,3.6405,3.6405,3.6405,3.6405,3.6405,3.6405,3.6405,3.6405,3.6405,3.6405,3.6405,3.6405,3.6405,3.6405,3.6405,3.6405,3.6452,3.6896,3.6756,3.6405,0.0,0.0,0.0,0.0,0.0,0.0,0.0,0.0,0.0,0.0,0.0,0.0,0.0,0.0,0.0,0.0,0.0,0.0,2.8926,2.8516,2.8301,2.8301,2.8301,2.8301,2.8301,2.8301,2.8301,2.8301,2.8301,2.8301,2.8301,2.8301,2.8301,2.8301,2.8301,2.8301,2.8301,2.8301,2.8301,2.8301,2.8301,2.8301,0.0,0.0,0.0,0.0,0.0,0.0,0.0,0.0,3.2519,3.3353,3.5642,3.6405,3.6405,3.6405,3.6405,3.6405,3.6405,3.6405,3.6405,3.6405,3.6405,3.6405,3.6405,3.6405,3.6405,3.6405,3.6662,3.7428,3.905,4.0443,4.2051,4.4108,4.5513,4.6429,4.692,4.7189,4.7309,4.7309,4.7309,4.7309,4.7309,4.7309,4.7219,4.701,4.6591,4.573,4.4414,4.4312,4.2747,3.9328,3.9666,3.8738,3.6405,3.6405,3.6405,3.6405,3.6405,3.6405,3.6405,3.6405,3.6405,3.6405,3.6405,3.6405,3.6405,3.6405,3.6405,3.6405,3.6405,3.6405,3.6405,3.6405,3.6405,3.6405,0.0,0.0,0.0,0.0,0.0,0.0,0.0,0.0,3.0898,3.0898,0.0,0.0,0.0,0.0,0.0,0.0,0.0,0.0,2.8945,2.8535,2.8301,2.8301,2.8301,2.8301,2.8301,2.8301,2.8301,2.8301,2.8301,2.8301,2.8301,2.8301,2.8301,2.8301,2.8301,2.8301,2.8301,2.8301,2.8301,2.8301,2.8301,2.8301,2.8242,0.0,0.0,0.0,0.0,0.0,0.0,0.0,3.2912,3.4629,3.5978,3.6405,3.6405,3.6405,3.6405,3.6405,3.6405,3.6405,3.6405,3.6405,3.6405,3.6405,3.6405,3.6405,3.6405,3.6405,3.7289,3.8107,3.8107,4.0546,4.2551,4.2622,4.4693,4.6279,4.6279,4.689,4.7309,4.7309,4.7309,4.7309,4.7309,4.7279,4.701,4.6309,4.6279,4.5681,4.4377,4.4317,4.2948,4.0,3.9913,3.8738,3.6405,3.6405,3.6405,3.6405,3.6405,3.6405,3.6405,3.6405,3.6405,3.6405,3.6405,3.6405,3.6405,3.6405,3.6405,3.6405,3.6405,3.6405,3.6405,3.6405,3.6405,3.6405,0.0,0.0,0.0,0.0,0.0,0.0,0.0,0.0,3.0898,3.0898,3.0898,0.0,0.0,0.0,0.0,0.0,0.0,0.0,2.9394,2.8965,2.8594,2.8301,2.8301,2.8301,2.8301,2.8301,2.8301,2.8301,2.8301,2.8301,2.8301,2.8301,2.8301,2.8301,2.8301,2.8301,2.8301,2.8301,2.8301,2.8301,2.8301,2.8301,2.8281,0.0,0.0,0.0,0.0,0.0,0.0,0.0,0.0,0.0,3.5978,3.6405,3.6405,3.6405,3.6405,3.6405,3.6405,3.6405,3.6405,3.6405,3.6405,3.6405,3.6405,3.6405,3.6405,3.6405,3.6662,3.7428,3.905,4.0067,4.1383,4.3431,4.4411,4.5065,4.5544,4.6172,4.6621,4.6621,4.6621,4.6621,4.6621,4.6172,4.5813,4.5603,4.5185,4.4736,4.4347,4.3828,4.2468,4.0,3.9913,3.8738,3.6405,3.6405,3.6405,3.6405,3.6405,3.6405,3.6405,3.6405,3.6405,3.6405,3.6405,3.6405,3.6405,3.6405,3.6405,3.6405,3.6405,3.6405,3.6405,3.6405,3.6405,3.6405,0.0,0.0,0.0,0.0,0.0,0.0,0.0,0.0,3.0898,3.0898,3.0898,3.0898,0.0,0.0,0.0,0.0,0.0,0.0,2.9844,2.9258,2.8809,2.8555,2.8379,2.8301,2.8301,2.8301,2.8301,2.8301,2.8301,2.8301,2.8301,2.8301,2.8301,2.8301,2.8301,2.8301,2.8301,2.8301,2.8301,2.8301,2.8301,2.8301,2.8301,0.0,0.0,0.0,0.0,0.0,0.0,0.0,0.0,0.0,3.6168,3.6405,3.6405,3.6405,3.6405,3.6405,3.6405,3.6405,3.6405,3.6405,3.6405,3.6405,3.6405,3.6405,3.6405,3.6405,3.715,3.8225,3.9623,4.0618,4.1814,4.3596,4.4137,4.4436,4.4855,4.5484,4.5903,4.5903,4.5903,4.5903,4.5903,4.5544,4.5185,4.4915,4.4526,4.4197,4.3928,4.3499,4.2467,4.0618,4.0145,3.8961,3.7103,3.6615,3.6405,3.6405,3.6405,3.6405,3.6405,3.6405,3.6405,3.6405,3.6405,3.6405,3.6405,3.6405,3.6405,3.6405,3.6405,3.6405,3.6405,3.6405,3.6405,3.6405,0.0,0.0,3.0898,3.0898,0.0,0.0,0.0,0.0,0.0,0.0,3.0898,3.0898,0.0,0.0,0.0,0.0,0.0,0.0,0.0,2.9473,2.9004,2.8926,2.8516,2.8301,2.8301,2.8301,2.8301,2.8301,2.8301,2.8301,2.8301,2.8301,2.8301,2.8301,2.8301,2.8301,2.8301,2.8301,2.8301,2.8281,2.8441,2.8495,2.8495,2.8601,0.0,0.0,0.0,0.0,0.0,0.0,0.0,0.0,3.6405,3.6405,3.6405,3.6405,3.6405,3.6405,3.6405,3.6405,3.6405,3.6405,3.6405,3.6405,3.6405,3.6405,3.6452,3.6546,3.827,3.9798,4.0043,4.174,4.317,4.329,4.3798,4.4227,4.4227,4.4796,4.5214,4.5214,4.5214,4.5214,4.5214,4.5155,4.4855,4.4257,4.4227,4.3958,4.3319,4.329,4.278,4.1629,4.049,3.9316,3.8107,3.6964,3.6405,3.6405,3.6405,3.6405,3.6405,3.6405,3.6405,3.6405,3.6405,3.6405,3.6405,3.6405,3.6405,3.6405,3.6405,3.6405,3.6405,3.6405,3.6405,3.6405,0.0,0.0,3.0898,3.0898,0.0,0.0,0.0,0.0,0.0,0.0,0.0,0.0,0.0,0.0,0.0,0.0,0.0,0.0,0.0,3.0019,2.9629,2.8945,2.8516,2.8301,2.8301,2.8301,2.8301,2.8301,2.8301,2.8301,2.8301,2.8301,2.8301,2.8301,2.8301,2.8301,2.8301,2.8301,2.8301,2.8388,2.946,2.9859,2.9964,3.103,3.1622,0.0,0.0,0.0,0.0,0.0,0.0,0.0,3.6405,3.6405,3.6405,3.6405,3.6405,3.6405,3.6405,3.6405,3.6405,3.6405,3.6405,3.6405,3.6405,3.6405,3.6662,3.754,3.8107,3.9023,4.0916,4.1629,4.2234,4.317,4.3409,4.3499,4.3499,4.4107,4.4526,4.4526,4.4526,4.4526,4.4526,4.4047,4.3648,4.3529,4.3499,4.3439,4.329,4.329,4.278,4.1629,4.049,3.9316,3.8107,3.6964,3.6405,3.6405,3.6405,3.6405,3.6405,3.6405,3.6405,3.6405,3.6405,3.6405,3.6405,3.6405,3.6405,3.6405,3.6405,3.6405,3.6405,3.6405,3.6405,3.6405,0.0,0.0,0.0,0.0,0.0,0.0,0.0,0.0,0.0,0.0,0.0,0.0,0.0,0.0,0.0,0.0,0.0,0.0,0.0,0.0,2.9902,2.9258,2.8828,2.8594,2.8594,2.8398,2.8301,2.8301,2.8301,2.8301,2.8301,2.8301,2.8301,2.8301,2.8301,2.8654,2.9197,2.8548,2.9059,3.0224,3.0276,3.0669,3.1316,3.2028,3.2733,3.3403,3.4141,0.0,0.0,0.0,0.0,0.0,0.0,0.0,3.6405,3.6405,3.6405,3.6405,3.6405,3.6405,3.6405,3.6405,3.6405,3.6405,3.6405,3.6405,3.6709,3.7861,3.8559,3.9492,4.1295,4.207,4.2589,4.321,4.329,4.329,4.329,4.3589,4.3798,4.3798,4.3798,4.3798,4.3798,4.3499,4.329,4.329,4.329,4.329,4.329,4.329,4.3021,4.2426,4.0788,3.9579,3.8961,3.7815,3.6943,3.6405,3.6943,3.6943,3.6405,3.6405,3.6405,3.6405,3.6405,3.6405,3.6405,3.6405,3.6405,3.6405,3.6405,3.6405,3.6405,3.6405,3.6405,3.6405,0.0,0.0,0.0,0.0,0.0,0.0,0.0,0.0,0.0,0.0,0.0,0.0,0.0,0.0,0.0,0.0,0.0,0.0,0.0,0.0,0.0,2.9687,2.9258,2.9004,2.8926,2.8574,2.8359,2.8301,2.8548,2.8654,2.8654,2.8388,2.8441,2.8654,2.8654,2.9408,3.0566,2.946,3.0276,3.223,3.1389,3.1673,3.2682,3.2932,3.3749,3.4727,3.4727,3.5475,3.6405,3.6405,0.0,0.0,0.0,0.0,3.6405,3.6405,3.6405,3.6405,3.6405,3.6405,3.6405,3.6405,3.6405,3.6405,3.6405,3.6405,3.6709,3.7861,3.905,4.0232,4.1378,4.2548,4.329,4.329,4.329,4.329,4.329,4.329,4.329,4.329,4.329,4.329,4.329,4.329,4.329,4.329,4.329,4.329,4.329,4.329,4.329,4.329,4.1113,3.9913,3.9913,3.8514,3.7335,3.6405,3.7381,3.7335,3.6405,3.6593,3.6593,3.6405,3.6405,3.6405,3.6405,3.6405,3.6405,3.6405,3.6405,3.6405,3.6405,3.6405,3.6405,3.6405,0.0,0.0,0.0,0.0,0.0,0.0,0.0,0.0,0.0,0.0,3.0898,3.0898,0.0,0.0,0.0,0.0,0.0,0.0,3.0898,0.0,0.0,3.0117,2.9707,2.9297,2.8926,2.8867,2.8652,2.8301,2.946,3.0016,3.0016,2.8847,2.89,3.0016,3.0016,3.0773,3.2028,3.1825,3.1977,3.2381,3.3403,3.397,3.4215,3.5403,3.5953,3.6121,3.6121,3.6263,3.6405,3.6405,3.6405,0.0,0.0,0.0,3.6405,3.6405,3.6405,3.6405,3.6405,3.6405,3.6405,3.6405,3.6405,3.6405,3.6405,3.6405,3.6709,3.7861,3.905,4.0232,4.1378,4.2548,4.329,4.329,4.329,4.329,4.329,4.329,4.329,4.329,4.329,4.329,4.329,4.329,4.329,4.329,4.329,4.329,4.329,4.329,4.329,4.329,4.1113,3.9913,3.9913,3.7723,3.6546,3.6405,3.6546,3.6546,3.6452,3.7402,3.7335,3.6405,3.6405,3.6405,3.6405,3.6405,3.6405,3.6405,3.6405,3.6405,3.6405,3.6405,3.6405,3.6405,0.0,0.0,0.0,0.0,0.0,0.0,0.0,0.0,0.0,0.0,0.0,3.0898,0.0,0.0,0.0,3.0898,3.0898,3.0898,3.0898,3.0703,3.0586,3.0586,3.0156,2.9726,2.9297,2.9788,2.9855,2.9408,3.0773,3.1418,3.1418,3.0824,3.0876,3.1418,3.1418,3.218,3.3403,3.2632,3.3181,3.4605,3.4483,3.4824,3.5571,3.6168,3.6405,3.6405,3.6405,3.6405,3.6405,3.6405,3.6405,3.6405,3.6405,0.0,0.0,0.0,3.6405,3.6405,3.6405,3.6405,3.6405,3.6405,3.6405,3.6405,3.6405,3.6405,3.6546,3.701,3.8088,3.9448,4.1295,4.2029,4.2548,4.321,4.329,4.329,4.329,4.329,4.329,4.329,4.329,4.329,4.329,4.329,4.329,4.329,4.329,4.329,4.329,4.329,4.329,4.329,4.1113,4.0189,4.0831,3.8514,3.7381,3.7335,3.6709,3.6405,3.6405,3.6943,3.7243,3.7381,3.7381,3.7381,3.7289,3.6662,3.6405,3.6405,3.6405,3.6405,3.6405,3.6405,3.6405,3.6405,0.0,0.0,0.0,0.0,0.0,0.0,0.0,0.0,0.0,0.0,0.0,0.0,0.0,0.0,0.0,0.0,3.0898,3.0898,3.0898,3.0898,3.0898,3.0898,3.093,3.0761,3.0322,3.1204,3.1486,3.1068,3.2246,3.2833,3.2855,3.3181,3.333,3.333,3.3005,3.3601,3.4824,3.3798,3.4557,3.631,3.5331,3.5523,3.6405,3.6405,3.6405,3.6405,3.6405,3.6405,3.6405,3.6405,3.6405,3.6405,3.6405,3.6405,0.0,0.0,0.0,3.6405,3.6405,3.6405,3.6405,3.6405,3.6405,3.6405,3.6405,3.6405,3.6405,3.6405,3.7057,3.8289,4.0333,4.1211,4.1988,4.313,4.329,4.329,4.329,4.329,4.329,4.329,4.329,4.329,4.329,4.329,4.329,4.329,4.329,4.329,4.329,4.329,4.329,4.329,4.1365,4.0746,4.1587,3.9288,3.7926,3.7678,3.6803,3.6405,3.6405,3.6709,3.7289,3.8107,3.8107,3.8289,3.8469,3.7335,3.6849,3.6803,3.6499,3.6405,3.6405,3.6405,3.6405,3.6405,0.0,0.0,0.0,0.0,0.0,0.0,0.0,0.0,0.0,0.0,0.0,0.0,3.0898,3.0898,3.0898,3.0898,3.0898,3.0898,3.0898,3.0898,3.0898,3.0898,3.2244,0.0,3.2232,3.318,3.3436,3.307,3.3857,3.4288,3.4337,3.5619,3.6216,3.6096,3.4872,3.5017,3.631,3.6216,3.6263,3.6405,3.631,3.6358,3.6405,3.6405,3.6405,3.6405,3.6405,3.6405,3.6405,3.6405,3.6405,3.6405,3.6405,3.6405,3.6405,0.0,0.0,0.0,3.6405,3.6405,3.6405,3.6405,3.6405,3.6405,3.6405,3.6405,3.6405,3.6405,3.6452,3.6849,3.8062,4.0118,4.1988,4.313,4.329,4.329,4.329,4.329,4.329,4.329,4.329,4.329,4.329,4.329,4.329,4.329,4.329,4.329,4.329,4.329,4.329,4.329,4.2152,4.1545,4.1587,3.9288,3.754,3.6499,3.6452,3.6405,3.6452,3.7494,3.8017,3.8107,3.8107,3.8738,3.9711,3.8514,3.8017,3.788,3.6803,3.6405,3.6405,3.6405,3.6405,3.6405,0.0,0.0,0.0,0.0,0.0,0.0,0.0,0.0,0.0,0.0,0.0,0.0,0.0,3.0898,3.0898,3.0898,3.0898,3.0898,3.0898,3.1767,3.2301,3.2301,3.3754,3.4295,3.3791,3.466,3.4881,3.447,3.5284,3.5667,3.5667,3.6168,3.6405,3.6358,3.5906,3.5953,3.6405,3.6405,3.6405,3.6405,3.6405,3.6405,3.6405,3.6405,3.6405,3.6405,3.6405,3.6405,3.6405,3.6405,3.6405,3.6405,3.6405,3.6405,3.6405,3.6405,3.6405,3.6405,3.6405,3.6405,3.6405,3.6405,3.6405,3.6405,3.6405,3.6405,3.6405,3.6405,3.6405,3.6756,3.788,3.8801,3.9988,4.1906,4.2193,4.2467,4.321,4.329,4.329,4.329,4.329,4.329,4.329,4.329,4.329,4.329,4.329,4.329,4.329,4.329,4.329,4.329,4.2193,4.1253,4.0532,4.0376,3.9376,3.7494,3.7494,3.7103,3.6405,3.6803,3.7402,3.8107,3.8107,3.8783,3.9782,3.7815,3.7448,3.7971,3.6849,3.6405,3.6405,3.6405,3.6405,3.6405,0.0,0.0,0.0,3.0898,0.0,3.0898,3.0898,3.0898,3.0898,3.0898,0.0,0.0,0.0,0.0,3.1825,3.2322,3.2379,3.2379,3.2379,3.3304,3.3845,3.3845,3.5233,3.5894,3.5604,3.6402,3.6616,3.6158,3.65,3.6581,3.6405,3.6405,3.6405,3.6405,3.6405,3.6405,3.6405,3.6405,3.6405,3.6405,3.6405,3.6405,3.6405,3.6405,3.6405,3.6405,3.6405,3.6405,3.6405,3.6405,3.6405,3.6405,3.6405,3.6405,3.6405,3.6405,3.6405,3.6405,3.6405,3.6405,3.6405,3.6405,3.6405,3.6405,3.6405,3.6405,3.6405,3.6405,3.6405,3.6615,3.7356,3.754,3.8289,4.0661,4.1337,4.1864,4.2629,4.3061,4.329,4.329,4.329,4.329,4.329,4.329,4.329,4.329,4.329,0.0,4.329,4.329,4.329,4.329,4.2548,4.1587,4.049,4.1211,4.0632,3.8693,3.8289,3.7723,3.6989,3.6593,3.6803,3.754,3.754,3.8424,3.9782,3.7769,3.7402,3.7971,3.6849,3.6405,3.6405,3.6405,3.6405,3.6405,3.0898,3.0898,3.0898,3.0898,3.0898,3.0898,3.0898,3.0937,3.0937,3.0937,0.0,0.0,0.0,0.0,0.0,3.5178,3.5288,3.5288,3.5288,3.5343,3.5343,3.5343,3.6757,3.7583,3.7583,3.8405,3.8567,3.8015,3.7437,3.6885,3.6405,3.6405,3.6405,3.6405,3.6405,3.6405,3.6405,3.6405,3.6405,3.6405,3.6405,3.6405,3.6405,3.6405,3.6405,3.6405,3.6405,3.6405,3.6405,3.6405,3.6405,3.6405,3.6405,3.6405,3.6405,3.6405,3.6405,3.6405,0.0,0.0,0.0,3.6405,3.6405,3.6405,3.6405,3.6405,3.6405,3.6405,3.6405,3.6405,3.6405,3.6405,3.7176,3.9404,4.0746,4.1504,4.1587,4.2508,4.321,4.329,4.325,4.325,4.329,4.329,4.329,4.329,4.329,4.329,4.329,4.329,4.329,4.329,4.329,4.278,4.167,4.1629,4.1085,3.9956,3.8783,3.8153,3.8062,3.6943,3.6452,3.6405,3.6405,3.7678,3.9738,3.8514,3.8062,3.7971,3.6849,3.6405,3.6405,3.6405,3.6405,3.6405,3.0898,3.0898,3.0898,3.0898,3.0898,3.0898,3.0898,3.1825,3.2473,0.0,0.0,0.0,3.409,3.4459,3.4847,3.5233,3.5288,3.5288,3.5288,3.6325,3.6865,3.6865,3.8295,3.9077,3.9077,3.8516,3.8165,3.8015,3.7061,3.6556,3.6405,3.6405,3.6405,3.6405,3.6405,3.6405,3.6405,3.6405,3.6405,3.6405,3.6405,3.6405,3.6405,3.6405,3.6405,3.6405,3.6405,3.6405,3.6405,3.6405,3.6405,3.6405,3.6405,3.6405,3.6405,3.6405,3.6405,3.6405,3.6405,0.0,0.0,0.0,0.0,0.0,3.6405,3.6405,3.6405,3.6405,3.6405,3.6405,3.6405,3.6405,3.6615,3.7243,3.8334,3.9683,4.1378,4.1169,4.1449,4.313,4.2548,4.2386,4.321,4.329,4.329,0.0,4.329,4.329,4.329,4.329,4.329,4.329,4.329,4.317,4.282,4.282,4.2263,4.1127,4.0802,3.9727,3.8107,3.7769,3.7196,3.6405,3.6405,3.6756,3.7335,3.7036,3.7381,3.7971,3.6849,3.6405,3.6405,3.6405,3.6405,3.6405,3.0898,3.1383,3.1825,3.1825,3.2322,3.2721,3.2721,3.3473,3.4013,0.0,0.0,0.0,3.6162,3.6217,3.6487,3.7103,3.7156,3.7156,3.7156,3.7926,3.84,3.84,3.9233,3.9597,3.9346,3.8718,3.814,3.7663,3.701,3.6631,3.6405,3.6405,3.6405,3.6405,3.6405,3.6405,3.6405,3.6405,3.6405,3.6405,3.6405,3.6405,3.6405,3.6405,3.6405,3.6405,3.6405,3.6405,3.6405,3.6405,3.6405,3.6405,3.6405,3.6405,3.6405,3.6405,3.6405,3.6405,3.6405,3.6405,3.6405,3.6405,0.0,0.0,3.6405,3.6405,3.6405,3.6405,3.6405,3.6405,3.6405,3.6405,3.6405,3.6405,3.6989,3.8017,3.9901,4.0015,4.0361,4.174,4.1711,4.1864,4.2548,4.3021,4.329,4.329,4.329,4.329,4.329,4.329,4.3061,4.2589,4.2589,4.2589,4.2589,4.2589,4.2508,4.2275,4.1864,4.0887,3.9552,3.9094,3.8469,3.7815,3.7335,3.7103,3.7057,3.6593,3.6803,3.7335,3.6662,3.6405,3.6405,3.6405,3.6405,3.6405,0.0,3.2416,3.336,3.336,3.4403,3.5288,3.5288,3.5453,3.5563,0.0,3.5672,3.6271,3.7583,3.7743,3.8295,3.9594,3.9697,3.9697,3.9697,3.9697,3.9697,3.9697,3.9647,3.9371,3.8919,3.8793,3.8191,3.7186,3.7136,3.6883,3.6405,3.6405,3.6405,3.6405,3.6405,3.6405,3.6405,3.6405,3.6405,3.6405,3.6405,3.6405,3.6405,3.6405,3.6405,3.6405,3.6405,3.6405,3.6405,3.6405,3.6405,3.6405,3.6405,3.6405,3.6405,3.6405,3.6405,3.6405,3.6405,3.6405,3.6405,3.6405,3.6405,0.0,3.6405,3.6405,3.6405,3.6405,3.6405,3.6405,3.6405,3.6405,3.6405,3.6405,3.6405,3.6803,3.7926,3.8917,3.9579,3.9869,4.0703,4.1337,4.1587,4.2426,4.3021,4.329,4.329,4.329,4.329,4.329,4.286,4.1794,4.1794,4.1711,4.1587,4.1587,4.2029,4.29,4.1906,4.142,4.1378,4.0361,3.9913,3.9869,3.8783,3.8289,3.8198,3.7057,3.6499,3.6405,3.6405,3.6405,3.6405,3.6405,3.6405,3.6405,3.4403,3.4681,3.4847,3.4847,3.5123,3.5288,3.5288,3.6325,3.7079,3.7079,3.8084,3.8973,3.9258,3.9258,3.9413,3.9697,3.9697,3.9697,3.9697,3.9697,3.9697,3.9697,3.927,3.902,3.8919,3.7965,3.7412,3.7186,3.6782,3.6505,3.6405,3.6405,3.6405,3.6405,3.6405,3.6405,3.6405,3.6405,3.6405,3.6405,3.6405,3.6405,3.6405,3.6405,3.6405,3.6405,3.6405,3.6405,3.6405,3.6405,3.6405,3.6405,3.6405,3.6405,3.6405,3.6405,3.6405,3.6405,3.6405,3.6405,3.6405,3.6405,3.6405,0.0,3.6405,3.6405,3.6405,3.6405,3.6405,3.6405,3.6405,3.6405,3.6405,3.6405,3.6405,3.6803,3.7926,3.7494,3.7769,3.9694,3.9271,3.9508,4.142,4.0958,4.1323,4.317,4.329,4.329,4.329,4.329,4.321,4.2981,4.2981,4.2548,4.1587,4.1587,4.1253,4.0532,4.0318,4.0232,4.0232,3.9972,3.9913,3.9913,3.9623,3.9536,3.9448,3.8243,3.7243,3.6405,3.6405,3.6405,3.6405,3.6405,3.6405,3.6405,3.5288,3.589,3.6379,3.6379,3.6996,3.7477,3.7477,3.8137,3.8582,3.8582,3.9233,3.9697,3.9697,3.9697,3.9697,3.9697,3.9697,3.9697,3.9697,3.9697,3.9697,3.9697,3.917,3.8793,3.8442,3.7613,3.7061,3.6832,3.6531,3.6405,3.6405,3.6405,3.6405,3.6405,3.6405,3.6405,3.6405,3.6405,3.6405,3.6405,3.6405,3.6405,3.6405,3.6405,3.6405,3.6405,3.6405,3.6405,3.6405,3.6405,3.6405,3.6405,3.6405,3.6405,3.6405,3.6405,3.6405,3.6405,3.6405,3.6405,3.6405,3.6405,3.6405,0.0,0.0,3.6405,3.6405,3.6405,3.6405,3.6405,3.6405,3.6405,3.6405,3.6405,3.6405,3.6593,3.715,3.6756,3.6849,3.7997,3.8107,3.8532,3.9727,3.9885,4.0618,4.2316,4.2467,4.267,4.325,4.329,4.3021,4.2467,4.2467,4.1906,4.0746,4.0746,4.0447,3.9913,3.9913,4.0189,4.0746,4.0145,4.049,4.1532,4.0361,4.0232,4.0661,3.9492,3.8289,3.7196,3.6615,3.6405,3.6405,3.6405,3.6405,3.6405,3.6162,3.7103,3.7902,3.7902,3.8921,3.9697,3.9697,3.9697,3.9697,3.9697,3.9697,3.9697,3.9697,3.9697,3.9697,3.9697,3.9697,3.9697,3.9697,3.9597,3.9546,3.9546,3.8894,3.8316,3.7864,3.7312,3.6857,3.6405,3.6405,3.6405,3.6405,3.6405,3.6405,3.6405,3.6405,3.6405,3.6405,3.6405,3.6405,3.6405,3.6405,3.6405,3.6405,3.6405,3.6405,3.6405,3.6405,3.6405,3.6405,3.6405,3.6405,3.6405,3.6405,3.6405,3.6405,3.6405,3.6405,3.6405,3.6405,3.6405,3.6405,3.6405,3.6405,3.6405,0.0,0.0,0.0,3.6405,3.6405,3.6405,3.6405,3.6405,3.6405,3.6405,3.6405,3.6405,3.6405,3.6405,0.0,3.6405,3.7196,3.7861,3.8062,3.9183,4.0275,4.1211,4.1462,4.2111,4.325,4.329,4.29,4.1947,4.1947,4.1378,4.0232,4.0232,4.0102,3.9913,3.9667,4.0145,4.1211,4.0102,4.0703,4.2548,4.0916,4.0618,4.1211,4.0532,3.9536,3.8334,3.7196,3.6593,3.6405,3.6405,3.6405,3.6405,3.9206,3.9362,3.9465,3.9465,3.9594,3.9697,3.9697,3.9697,3.9697,3.9697,3.9697,3.9697,3.9697,3.9697,3.9697,3.9697,3.9697,3.9697,3.9697,3.922,3.902,3.902,3.7939,3.7337,3.7287,3.6782,3.648,3.6405,3.6405,3.6405,3.6405,3.6405,3.6405,3.6405,3.6405,3.6405,3.6405,3.6405,3.6405,3.6405,3.6405,3.6405,3.6405,3.6405,3.6405,3.6405,3.6405,3.6405,3.6405,3.6405,3.6405,3.6405,3.6405,3.6405,3.6405,3.6405,3.6405,3.6405,3.6405,3.6405,3.6405,3.6405,3.6405,3.6405,3.6405,0.0,3.6405,3.6405,0.0,3.6405,3.6405,0.0,0.0,3.6405,3.6405,3.6405,3.6405,3.6405,3.6405,3.6405,3.6499,3.6964,3.7971,3.9183,3.9929,4.0059,4.1042,4.2111,4.325,4.329,4.325,4.313,4.313,4.2548,4.142,4.142,4.0916,3.9913,3.8827,3.8917,4.0059,3.8872,3.905,4.0318,4.1085,4.0916,4.0145,4.1042,4.0746,3.9579,3.8379,3.7289,3.6405,3.6405,3.6405,3.6405,3.9697,3.9697,3.9697,3.9697,3.9697,3.9697,3.9697,3.9697,3.9697,3.9697,3.9697,3.9697,3.9697,3.9697,3.9697,3.9697,3.9697,3.9546,3.9245,3.9045,3.8718,3.8391,3.7613,3.7186,3.7186,3.6681,3.6405,3.6405,3.6405,3.6405,3.6405,3.6405,3.6405,3.6405,3.6405,3.6405,3.6405,3.6405,3.6405,3.6405,3.6405,3.6405,3.6405,3.6405,3.6405,3.6405,3.6405,3.6405,3.6405,3.6405,3.6405,3.6405,3.6405,3.6405,3.6405,3.6405,3.6405,3.6405,3.6405,3.6405,3.6405,3.6405,3.6405,3.6405,3.6405,3.6405,3.6405,3.6405,0.0,0.0,0.0,0.0,0.0,0.0,3.6405,3.6405,3.6405,0.0,3.6405,3.6405,0.0,0.0,3.7057,3.754,3.8134,3.8827,3.9288,4.0376,4.2193,4.2316,4.2629,4.329,4.329,4.278,4.1587,4.1587,4.1042,3.9913,3.8693,3.8738,3.9869,3.8649,3.9112,4.0873,4.0703,4.0703,4.0873,4.0703,3.9929,3.8872,3.905,3.8424,3.7335,3.6615,3.6405,3.6455,3.9697,3.9697,3.9697,3.9697,3.9697,3.9697,3.9697,3.9697,3.9697,3.9697,3.9697,3.9697,3.9697,3.9697,3.9697,3.9697,3.9546,3.9295,3.8944,3.8642,3.8216,3.7789,3.7262,3.696,3.696,3.6606,3.6405,3.6405,3.6405,3.6405,3.6405,3.6405,3.6405,3.6405,3.6405,3.6405,3.6405,3.6405,3.6405,3.6405,3.6405,3.6405,3.6405,3.6405,3.6405,3.6405,3.6405,3.6405,3.6405,3.6405,3.6405,0.0,3.6405,3.6405,3.6405,0.0,0.0,3.6405,3.6405,3.6405,3.6405,3.6405,3.6405,3.6405,3.6405,3.6405,3.6405,3.6405,3.6405,0.0,0.0,0.0,0.0,3.6405,0.0,3.6405,3.6405,3.6405,3.6405,3.6405,3.6405,0.0,0.0,3.6405,3.6896,3.8017,3.8107,3.9112,4.1462,4.1587,4.2199,4.3519,4.3559,4.3256,4.2636,4.2636,4.2218,4.134,4.0178,4.0073,4.0864,3.9311,3.9734,4.1568,4.0382,4.0338,4.1096,4.0558,3.9627,3.8674,3.9895,3.985,3.8922,3.7573,3.689,3.6707,3.9697,3.9697,3.9697,3.9697,3.9697,3.9697,3.9697,3.9697,3.9697,3.9697,3.9697,3.9697,3.9697,3.9697,3.9697,3.9697,3.922,3.8944,3.8919,3.7888,3.7236,3.7211,3.6732,3.643,3.643,3.6405,3.6405,3.6405,3.6405,3.6405,3.6405,3.6405,3.6405,3.6405,3.6405,3.6405,3.6405,3.6405,3.6405,3.6405,3.6405,3.6405,3.6405,3.6405,3.6405,3.6405,3.6405,3.6405,0.0,3.6405,3.6405,0.0,0.0,0.0,0.0,0.0,0.0,0.0,0.0,0.0,0.0,3.6405,0.0,0.0,0.0,3.6405,3.6405,0.0,0.0,0.0,0.0,0.0,0.0,0.0,0.0,0.0,0.0,3.6405,3.6405,3.6405,3.6405,0.0,0.0,3.6405,3.6896,3.8017,3.8107,3.9112,4.1462,4.1587,4.2403,4.4216,4.4287,4.4545,4.5173,4.5173,4.5132,4.509,4.3976,4.3459,4.3415,4.0958,4.0541,4.1734,4.0408,3.9844,4.0053,4.105,4.08,3.987,4.115,4.1653,4.1343,3.9508,3.8136,3.7236,3.9697,3.9697,3.9697,3.9697,3.9697,3.9697,3.9697,3.9697,3.9697,3.9697,3.9697,3.9697,3.9697,3.9371,3.9145,3.9145,3.8642,3.814,3.7789,3.7387,3.701,3.6707,3.6505,3.6405,3.6405,3.6405,3.6405,3.6405,3.6405,3.6405,3.6405,3.6405,3.6405,3.6405,3.6405,3.6405,3.6452,3.7196,3.754,3.754,3.754,3.7997,3.8541,3.6989,3.6405,3.6405,3.6405,3.6405,0.0,3.6405,3.6405,3.6405,3.6405,3.6405,3.6405,3.6405,3.6405,3.6405,0.0,0.0,3.6405,3.6405,0.0,0.0,0.0,0.0,0.0,0.0,0.0,0.0,0.0,0.0,0.0,0.0,0.0,0.0,0.0,3.6405,3.6405,3.6405,3.6405,3.6405,0.0,0.0,3.6546,3.6943,3.6964,3.7632,3.92,4.0392,4.1725,4.3157,4.4335,4.5065,4.5304,4.5304,4.5304,4.5304,4.415,4.3603,4.356,4.2741,4.258,4.2918,4.1617,4.1066,4.0993,3.9707,3.8965,3.87,3.997,3.9944,3.9277,3.9496,3.9323,3.8951,3.9697,3.9697,3.9697,3.9697,3.9697,3.9697,3.9697,3.9697,3.9697,3.9697,3.9697,3.9622,3.9421,3.9094,3.8844,3.8592,3.804,3.7563,3.7211,3.701,3.6782,3.643,3.6405,3.6405,3.6405,3.6405,3.6405,3.6405,3.6405,3.6405,3.6405,3.6405,3.6405,3.6405,3.6405,3.6405,3.6452,3.7632,3.8107,3.8153,3.8559,3.9183,3.9711,3.8225,3.7381,3.7057,0.0,3.7381,3.701,3.701,3.701,3.6943,3.6546,3.6405,3.6405,3.6405,3.6405,3.6405,3.6405,3.6405,0.0,3.6405,3.6405,0.0,3.6405,0.0,3.6405,0.0,0.0,0.0,0.0,0.0,0.0,0.0,0.0,0.0,0.0,3.6405,3.6405,3.6405,3.6405,3.6405,3.6405,3.6405,3.6405,3.6405,3.6405,3.6973,3.8306,3.9924,4.1539,4.32,4.4807,4.5783,4.5992,4.5992,4.5781,4.5325,4.4603,4.4223,4.4223,4.3779,4.3824,4.4179,4.2894,4.2343,4.2205,4.0144,3.9265,3.9363,4.017,3.9976,3.9362,3.9957,4.0009,3.9783,3.98,3.9826,3.9878,3.9878,3.9826,3.98,3.9697,3.98,3.9826,3.975,3.9801,3.9625,3.907,3.8995,3.8742,3.8114,3.756,3.7232,3.7136,3.6707,3.6405,3.6405,3.6405,3.6405,3.6405,3.6405,3.6405,3.6405,3.6405,3.6405,3.6405,3.6405,3.6405,3.6405,3.6405,3.6452,3.6546,3.7723,3.8243,3.8469,3.9536,4.0043,4.0059,4.0043,3.9271,3.8424,3.9492,3.9139,3.8198,3.8198,3.8198,3.7971,3.6896,3.6593,3.6593,3.6593,3.6593,3.6546,3.6499,3.6499,3.6452,3.6405,3.6405,0.0,0.0,0.0,3.6405,0.0,0.0,0.0,0.0,0.0,0.0,0.0,0.0,0.0,0.0,3.6405,3.6405,3.6405,3.6405,3.6405,3.6405,3.6405,3.6405,3.6405,3.6405,3.7079,0.0,4.0078,4.1842,4.4231,4.552,4.648,4.7193,4.7149,4.6506,4.5298,4.5298,4.5298,4.5252,4.4069,4.4163,4.5252,4.3975,4.3456,4.3409,4.2084,4.1541,4.1591,4.1541,4.1518,4.1439,4.0837,4.0229,3.9697,4.0945,4.1887,4.2496,4.2496,4.1739,4.0794,3.9826,4.1319,4.2021,4.0546,4.1201,4.151,4.0918,4.0507,3.9814,3.8747,3.8179,3.7495,3.6653,3.648,3.6405,3.6405,3.6405,3.6405,3.6405,3.6405,3.6405,3.6405,3.6405,3.6405,3.6405,3.6405,3.6405,3.6405,3.6405,3.6896,3.7769,3.8917,4.0447,4.1947,4.1378,4.1699,4.2345,0.0,4.0972,4.0632,4.0102,3.9711,3.9448,3.9448,3.9448,3.9404,3.9094,3.9006,3.9006,3.9006,3.9006,3.881,3.7906,3.7678,3.7448,3.6615,3.6405,3.6405,0.0,0.0,0.0,0.0,0.0,0.0,0.0,0.0,0.0,0.0,0.0,0.0,0.0,3.6405,3.6405,3.6405,3.6405,3.6405,3.6405,3.6405,3.6405,3.6405,3.6405,3.6773,3.7591,0.0,4.1055,4.3072,4.3825,4.4761,4.5869,4.4978,4.4303,4.3975,4.3975,4.3975,4.3975,4.3646,4.3693,4.3929,4.2641,4.2593,4.3313,4.1069,4.0743,4.1518,4.0541,4.016,4.0287,4.1063,4.0665,3.9697,4.1468,4.2641,4.3504,4.3504,4.3141,4.2406,4.1123,4.2118,4.254,4.1167,4.1622,4.1819,4.1231,4.0873,4.0347,3.9429,3.906,3.8379,3.7243,3.715,3.6943,3.6405,3.6405,3.6405,3.6405,3.6405,3.6615,3.715,3.715,3.7428,3.7906,3.7906,3.7906,3.7906,3.7906,3.8315,3.8961,4.0145,4.1657,4.325,4.2589,4.271,0.0,4.2589,4.2345,4.2263,4.1616,4.1042,4.0661,4.0661,4.0661,4.0575,4.0059,3.9913,3.9913,3.9913,3.9913,3.9754,3.905,3.8872,3.8738,3.8088,3.752,3.715,3.715,3.6756,3.6405,0.0,3.6405,3.6405,0.0,0.0,0.0,0.0,0.0,0.0,0.0,3.6405,3.6405,3.6405,3.6405,3.6405,3.6405,3.6405,3.6405,3.6405,3.6631,3.696,0.0,0.0,4.0867,4.2174,4.3026,4.3834,4.4535,4.3882,4.3218,4.2689,4.2689,4.2689,4.2689,4.2689,4.2689,4.2641,4.2496,4.2496,4.2544,4.1119,4.0945,4.1468,4.0211,3.9697,3.98,4.0516,4.0313,3.9697,4.2035,4.3067,4.3864,4.3864,4.4231,4.4117,4.2922,4.2795,4.2582,4.1761,4.1768,4.1653,4.1084,4.1028,4.0789,4.0201,4.0102,3.9623,3.8424,3.8334,3.7906,3.6896,3.6849,3.6849,3.6849,3.6849,3.7335,3.8334,3.8334,3.8872,3.9913,3.9913,3.9913,3.9913,3.9913,3.9972,4.0189,4.1337,4.2386,4.329,4.329,4.329,4.329,4.329,4.329,4.329,4.329,4.267,4.1794,4.1794,4.1794,4.1657,4.0773,4.0501,4.0501,4.0584,4.0612,4.0569,4.0439,4.0396,4.0352,4.0177,3.9356,3.8591,3.8591,3.7681,3.6843,3.6843,3.665,3.6505,0.0,0.0,0.0,0.0,0.0,0.0,3.6405,3.648,3.648,3.6405,3.648,0.0,3.6505,3.6455,3.643,3.6505,3.6958,3.7462,0.0,0.0,4.0864,4.1591,4.2496,4.3074,4.3266,4.3074,4.2447,4.1369,4.1369,4.1369,4.1369,4.1369,4.1369,4.1419,4.2496,4.2447,4.1591,4.1419,4.1369,4.1219,4.0134,3.9697,3.9697,3.9697,3.9697,3.9697,4.4303,4.5299,4.5798,4.5798,4.5408,4.487,4.4128,4.444,4.419,4.2467,4.3135,4.3555,4.2935,4.2847,4.2421,4.1378,4.1295,4.0831,3.9667,3.9579,3.9492,3.9299,3.9299,3.9299,3.9299,3.9299,3.936,3.9579,3.9579,3.9667,3.9913,3.9913,3.9913,3.9913,3.9913,4.0404,4.1378,4.2508,4.313,4.329,4.329,4.329,4.329,4.329,4.329,4.329,4.329,4.317,4.2981,4.2981,4.2981,4.307,4.3401,4.3537,4.3626,4.4199,4.4376,4.4137,4.3243,4.2955,4.2737,4.1708,4.1304,4.1168,4.1168,4.016,3.9297,3.9297,3.813,3.7036,3.7036,0.0,0.0,0.0,0.0,0.0,0.0,3.6807,3.6933,3.6455,3.6807,3.7036,3.7036,3.6681,3.6606,3.7059,3.7136,0.0,0.0,0.0,3.9976,0.0,4.0794,0.0,0.0,0.0,4.0262,4.0032,4.0032,4.0032,4.0032,4.0032,4.0032,4.0032,4.0262,4.0844,4.1492,4.0465,4.0032,4.0032,3.98,3.9697,3.9697,3.9697,3.9697,3.9697,4.5011,4.5582,4.5783,4.5783,4.5244,4.4676,4.4377,4.4287,4.3935,4.3007,4.3415,4.3648,4.3319,4.329,4.3061,4.2548,4.2467,4.1988,4.0873,4.0788,4.0532,3.9956,3.9913,3.9913,3.9913,3.9913,4.0189,4.0788,4.0788,4.1085,4.1657,4.1657,4.1657,4.1657,4.1657,4.1947,4.2508,4.3061,4.329,4.329,4.329,4.329,4.329,4.329,4.329,4.329,4.329,4.329,4.329,4.329,4.3529,4.3898,4.4227,4.4556,4.4885,4.5214,4.5304,4.515,4.4617,4.449,4.4363,4.3748,4.3154,4.2713,4.2713,4.1789,4.0873,4.0873,4.0194,3.938,3.8744,3.7845,0.0,0.0,0.0,0.0,0.0,0.0,3.7513,3.7236,0.0,0.0,3.7613,3.7362,3.7337,3.7588,3.7889,0.0,0.0,0.0,3.9702,0.0,0.0,0.0,4.0592,0.0,3.9697,3.9697,3.9697,3.9697,3.9697,3.9697,3.9697,3.9697,3.9697,4.0032,4.0541,3.9929,3.9697,3.9697,3.9697,3.9697,3.9697,3.9697,3.9697,3.9697,4.5138,4.5185,4.5095,4.5095,4.4556,4.4107,4.4107,4.3618,4.329,4.329,4.329,4.329,4.329,4.329,4.329,4.329,4.329,4.29,4.2029,4.1947,4.1545,4.0661,4.0618,4.0618,4.0618,4.0618,4.1042,4.1947,4.1947,4.2426,4.329,4.329,4.329,4.329,4.329,0.0,0.0,0.0,4.329,4.329,4.329,4.329,4.329,4.329,4.329,4.329,4.329,4.329,4.3319,4.3439,4.3858,4.4347,4.4466,4.4975,4.5544,4.5693,4.5723,4.5723,4.5723,4.5723,4.5723,4.5723,4.506,4.4385,4.4385,4.345,4.2541,4.2541,4.2248,4.1636,4.0482,3.9228,0.0,0.0,0.0,0.0,0.0,0.0,3.814,0.0,0.0,0.0,3.8191,3.8191,3.8241,3.8341,0.0,0.0,3.9044,0.0,0.0,0.0,0.0,3.9697,3.9697,0.0,3.9697,3.9697,3.9697,3.9697,3.9697,3.9697,3.9697,3.9697,3.9697,3.9697,3.9697,3.9697,3.9697,3.9697,3.9697,3.9697,3.9697,3.9697,3.9697,3.9697,4.5424,4.4825,4.4407,4.4407,4.3828,4.3379,4.3379,4.3319,4.329,4.329,4.329,4.329,4.329,4.329,4.329,4.329,4.329,4.325,4.317,4.317,4.3061,4.2981,4.2981,4.2981,4.2981,4.2981,4.3021,4.317,4.317,4.321,4.329,4.329,0.0,0.0,0.0,0.0,0.0,4.329,4.329,4.329,4.329,4.329,4.329,4.329,4.329,4.329,4.329,4.329,4.3379,4.4018,4.4257,4.4407,4.5005,4.5663,4.6352,4.695,4.713,4.713,4.713,4.713,4.713,4.713,4.7013,4.6927,4.6927,4.599,4.508,4.508,4.373,4.2436,4.1763,4.0548,3.9754,0.0,0.0,0.0,0.0,0.0,3.8592,3.8065,0.0,0.0,3.8844,3.8844,3.8994,0.0,3.912,0.0,0.0,0.0,0.0,3.9697,3.9697,3.9697,3.9697,3.9697,3.9697,3.9697,3.9697,3.9697,3.9697,3.9697,3.9697,3.9697,3.9697,3.9697,3.9697,3.9697,3.9697,3.9697,3.9697,3.9697,3.9697,3.9697,3.9697,3.9697,4.4065,4.3858,4.3678,4.3678,4.3469,4.329,4.329,4.329,4.329,4.329,4.329,4.329,4.329,4.329,4.329,4.329,4.329,4.329,4.329,4.329,4.329,4.329,4.329,4.329,4.329,4.329,4.329,0.0,4.329,4.329,4.329,0.0,0.0,0.0,0.0,4.329,4.329,4.329,4.329,4.329,4.329,4.329,4.329,4.329,4.329,4.329,4.329,4.3559,4.3958,4.4227,4.4586,4.5035,4.5693,4.6381,4.695,4.7219,4.7309,4.7309,4.7309,4.7309,4.7309,4.7309,4.7309,4.7309,4.7309,4.6931,4.655,4.655,4.5351,4.4248,4.401,4.2897,4.2052,4.2052,0.0,0.0,0.0,0.0,0.0,4.0171,0.0,3.9371,3.9371,3.9371,3.9446,0.0,0.0,0.0,0.0,0.0,0.0,3.9749,0.0,4.1591,4.0844,4.0844,4.0844,4.0844,4.0083,3.9697,3.9697,3.9697,3.9697,3.9697,3.9697,3.9697,3.9697,3.9697,3.9697,3.9697,3.9697,3.9697,3.9697,3.9697,3.9697,3.9697,4.3547,4.3439,4.329,4.329,4.329,4.329,4.329,4.329,4.329,4.329,4.329,4.329,4.329,4.329,4.329,4.329,4.329,4.329,4.329,4.329,4.329,4.329,4.329,0.0,4.329,4.329,4.329,4.329,4.329,0.0,0.0,0.0,0.0,0.0,4.329,4.329,4.329,4.329,4.329,4.329,4.329,4.329,4.329,4.329,4.329,4.3319,4.3499,4.3888,4.4377,4.4766,4.5214,4.5693,4.613,4.677,4.7309,4.7309,4.7309,4.7309,4.7309,4.7309,4.7309,4.7309,4.7309,4.7309,4.7309,4.7309,4.7309,4.7309,4.6594,4.5958,4.5958,4.4932,4.4069,4.4069,0.0,0.0,0.0,4.2738,0.0,4.164,4.0794,4.0262,4.0262,4.0262,4.0415,0.0,0.0,0.0,0.0,0.0,0.0,0.0,0.0,0.0,4.1591,4.1219,4.1019,4.1019,4.0134,3.9697,3.9697,3.9697,3.9697,3.9697,3.9697,3.9697,3.9697,3.9697,3.9697,3.9697,3.9697,3.9697,3.9697,3.9697,3.9697,3.9697,4.4436,4.3738,4.329,4.329,4.329,4.329,4.329,4.329,4.329,4.329,4.329,4.329,4.329,4.329,4.329,4.329,4.329,4.329,4.329,4.329,4.329,0.0,0.0,4.329,4.329,4.329,4.329,4.329,0.0,0.0,4.329,0.0,4.329,4.329,4.329,4.329,4.329,4.329,4.329,4.329,4.329,4.329,4.329,4.329,4.329,4.3379,4.4077,4.4317,4.4526,4.5801,4.6249,4.6279,4.6279,4.677,4.7309,4.7309,4.7309,4.7309,4.7309,4.7309,4.7309,4.7309,4.7309,4.7309,4.7309,4.7309,4.7309,4.7309,4.7309,4.7266,4.7266,4.6255,4.5389,4.5389,0.0,0.0,0.0,4.3504,0.0,4.1739,4.1591,4.1591,4.1591,4.1591,4.2133,0.0,0.0,0.0,0.0,0.0,0.0,4.3409,4.2279,0.0,4.1591,4.0364,3.9749,3.9749,3.9697,3.9697,3.9697,3.9697,3.9697,3.9697,3.9697,3.9697,3.9697,3.9697,3.9697,3.9697,3.9697,3.9697,3.9697,3.9697,3.9697,3.9697,4.4363,4.4137,4.3828,4.3379,4.329,4.329,4.329,4.329,4.329,4.329,4.329,4.329,4.329,4.329,4.329,4.329,4.329,4.329,0.0,4.329,4.329,4.329,4.329,4.329,4.329,4.329,4.329,4.329,0.0,0.0,0.0,4.329,4.329,4.329,4.329,4.329,4.329,4.329,4.329,4.329,4.329,4.329,4.329,4.329,4.329,4.3379,4.4077,4.4616,4.5125,4.6022,4.6621,4.698,4.698,4.713,4.7309,4.7309,4.7309,4.7309,4.7309,4.7309,4.7309,4.7309,4.7309,4.7309,4.7309,4.7309,4.7309,4.7309,4.7309,4.7309,4.7309,4.6975,4.6682,4.6682,4.6344,0.0,4.6121,0.0,4.3693,4.4116,4.2641,4.1591,4.1591,4.1591,0.0,0.0,0.0,0.0,0.0,0.0,0.0,0.0,4.223,0.0,4.1591,4.1219,4.0969,4.0995,4.0134,3.9697,3.9697,3.9697,3.9697,3.9697,3.9697,3.9697,3.9697,3.9697,3.9697,3.9697,3.9697,3.9697,3.9697,3.9697,3.9697,3.9747,4.5049,4.4676,4.4197,4.3738,4.3469,4.329,4.329,4.329,4.329,4.329,4.329,4.329,4.329,4.329,0.0,4.329,4.329,4.329,4.329,4.329,4.329,4.329,4.329,4.329,4.329,4.329,0.0,4.329,4.329,4.329,4.329,4.329,4.329,4.329,4.329,4.329,4.329,4.329,4.329,4.329,4.329,4.329,4.3319,4.3559,4.3678,4.3798,4.4736,4.5334,4.5783,4.6471,4.695,4.7309,4.7309,4.7309,4.7309,4.7309,4.7309,4.7309,4.7309,4.7309,4.7309,4.7309,4.7309,4.7309,4.7309,4.7309,4.7309,4.7309,4.7309,4.7309,4.7309,4.7309,4.7309,4.7309,4.7309,4.7309,4.7309,0.0,4.5024,0.0,0.0,0.0,0.0,4.2301,4.2181,0.0,0.0,0.0,0.0,0.0,0.0,4.1169,4.223,4.2398,4.1591,4.1119,4.0895,4.0895,4.0083,3.9697,3.9697,3.9697,3.9697,3.9697,3.9697,3.9697,3.9697,3.9697,3.9697,3.9697,3.9697,3.9697,3.9697,3.9697,3.9823,4.0049,4.6279,4.5274,4.4377,4.4317,4.3738,4.329,4.329,4.329,4.329,4.329,4.329,4.329,4.329,4.329,4.329,4.329,0.0,0.0,4.329,4.329,4.329,4.329,4.329,4.329,4.329,4.329,4.329,4.329,4.329,4.329,4.329,4.329,4.329,4.329,4.329,4.329,4.329,4.329,4.329,4.329,4.329,4.3319,4.3439,4.4077,4.4347,4.4556,4.5843,4.6279,4.6369,4.707,4.7309,4.7309,4.7309,4.7309,4.7309,4.7309,4.7309,4.7309,4.7309,4.7309,4.7309,4.7309,4.7309,4.7309,4.7309,4.7309,4.7309,4.7309,4.7309,4.7309,4.7309,4.7309,4.7309,4.7309,4.7309,4.7309,4.7309,4.7222,4.677,0.0,0.0,0.0,4.374,4.3646,4.4069,0.0,0.0,0.0,0.0,0.0,4.2133,4.3218,4.2084,4.1468,4.1468,4.0262,3.9697,3.9697,3.9697,3.9697,3.9697,3.9697,3.9697,3.9697,3.9697,3.9697,3.9697,3.9697,3.9697,3.9697,3.9747,3.9747,3.9747,3.9798,4.0124,4.0576,4.6369,4.5633,4.4915,4.4407,4.3738,4.329,4.329,4.329,4.329,4.329,4.329,4.329,4.329,4.329,4.329,4.329,4.329,4.329,4.329,4.329,4.329,4.329,4.329,4.329,4.329,4.329,4.329,4.329,4.329,4.329,4.329,4.329,4.329,4.329,4.329,4.329,4.329,4.329,4.329,4.329,4.329,4.3589,4.4107,4.4257,4.4616,4.5185,4.6022,4.6279,4.6369,4.707,4.7309,4.7309,4.7309,4.7309,4.7309,4.7309,4.7309,4.7309,4.7309,4.7309,4.7309,4.7309,4.7309,4.7309,4.7309,4.7309,4.7309,4.7309,4.7309,4.7309,4.7309,4.7309,4.7309,4.7309,4.7309,4.7309,4.7309,4.6462,4.6121,0.0,4.5958,4.5252,4.4978,4.4978,4.4674,0.0,0.0,4.3074,4.2133,4.1739,4.1269,4.0592,4.0313,4.0185,4.0185,3.9826,3.9697,3.9697,3.9697,3.9697,3.9697,3.9697,3.9697,3.9697,3.9697,3.9697,3.9697,3.9697,3.9697,3.9747,4.0149,4.0325,4.0375,4.0802,4.0974,4.1204,4.683,4.6232,4.5544,4.4885,4.4227,4.3648,4.3349,4.329,4.329,4.329,4.329,4.329,4.329,4.329,4.329,4.329,4.329,4.329,4.329,4.329,4.329,4.329,4.329,4.329,4.329,4.329,4.329,4.329,4.329,4.329,4.329,4.329,4.329,4.329,4.329,4.329,4.329,4.329,4.329,4.3319,4.3618,4.3988,4.4377,4.5005,4.5454,4.5843,4.6531,4.677,4.683,4.7189,4.7309,4.7309,4.7309,4.7309,4.7309,4.7309,4.7309,4.7309,4.7309,4.7309,4.7309,4.7309,4.7309,4.7309,4.7309,4.7309,4.7309,4.7309,4.7309,4.7309,4.7309,4.7309,4.7309,4.7309,4.7309,4.7309,4.7309,4.6682,4.655,4.7222,4.6682,4.6032,4.5434,4.5389,4.5115,4.4396,4.3834,0.0,4.3361,4.2786,4.1591,3.9749,3.9697,3.9697,3.9697,3.9697,3.9697,3.9697,3.9697,3.9697,3.9697,3.9697,3.9697,3.9697,3.9948,4.0074,4.0099,4.035,4.045,4.0475,4.0777,4.0902,4.0874,4.1175,4.1505,4.1756,4.7309,4.677,4.6142,4.5544,4.4915,4.4227,4.3529,4.3439,4.3409,4.329,4.329,4.329,4.329,4.329,4.329,4.329,4.329,4.329,4.329,4.329,4.329,4.329,4.329,4.329,4.329,4.329,4.329,4.329,4.329,4.329,4.329,4.329,4.329,4.329,4.329,4.3349,4.3439,4.3439,4.3499,4.3648,4.4227,4.4526,4.4736,4.5903,4.6339,4.6561,4.71,4.7309,4.7309,4.7309,4.7309,4.7309,4.7309,4.7309,4.7309,4.7309,4.7309,4.7309,4.7309,4.7309,4.7309,4.7309,4.7309,4.7309,4.7309,4.7309,4.7309,4.7309,4.7309,4.7309,4.7309,4.7309,4.7309,4.7309,4.7309,4.7309,4.7309,0.0,4.7309,4.7309,4.7309,4.6887,4.5779,4.5689,4.5689,4.5689,4.4674,4.4442,4.5343,4.421,4.2398,4.0083,3.9981,3.9878,3.9697,3.9697,3.9697,3.9697,3.9772,3.9823,3.9823,3.9898,3.9948,3.9973,4.0425,4.0651,4.0676,4.11,4.1275,4.13,4.1376,4.1455,4.148,4.1501,4.1882,4.2338,4.7309,4.677,4.6249,4.613,4.5603,4.4915,4.4257,4.4127,4.3958,4.3349,4.329,4.329,4.329,4.329,4.329,4.329,4.329,4.329,4.329,4.329,4.329,4.329,4.329,4.329,4.329,4.329,4.329,4.329,4.329,4.329,4.329,4.329,4.329,4.329,4.329,4.3589,4.4127,4.4127,4.4496,4.5005,4.5095,4.5484,4.598,4.619,4.6681,4.716,4.7279,4.7309,4.7309,4.7309,4.7309,4.7309,4.7309,4.7309,4.7309,4.7309,4.7309,4.7309,4.7309,4.7309,4.7309,4.7309,4.7309,4.7309,4.7309,4.7309,4.7309,4.7309,4.7309,4.7309,4.7309,4.7309,4.7309,4.7309,4.7309,4.7309,4.7309,0.0,4.7309,4.7309,4.7309,4.7222,4.7019,4.7019,4.7019,4.7019,4.6814,4.6344,4.5434,4.421,4.2834,4.1369,4.1319,4.0794,3.9697,3.9697,3.9697,3.9697,4.0174,4.04,4.04,4.0877,4.1025,4.105,4.1125,4.115,4.1175,4.125,4.1275,4.1326,4.1856,4.2087,4.2137,4.2559,4.2785,4.2916,4.7309,4.707,4.6741,4.6339,4.6052,4.5633,4.4945,4.4855,4.4736,4.4436,4.4377,4.4377,4.4377,4.4377,4.4377,4.4377,4.4377,4.4377,4.4377,4.3678,4.329,4.329,4.329,4.329,4.329,4.329,4.329,4.329,4.329,4.329,4.329,4.3648,4.3828,4.3828,4.4227,4.4556,4.4855,4.4855,4.5005,4.5334,4.5693,4.6022,4.6309,4.6711,4.704,4.7309,4.7309,4.7309,4.7309,4.7309,4.7309,4.7309,4.7309,4.7309,4.7309,4.7309,4.7309,4.7309,4.7309,4.7309,4.7309,4.7309,4.7309,4.7309,4.7309,4.7309,4.7309,4.7309,4.7309,4.7309,4.7309,4.7309,4.7309,4.7309,4.7309,0.0,4.7309,4.7309,4.7309,4.7309,4.7309,4.7309,4.7309,4.7309,4.7309,4.7309,4.7309,4.7019,4.6432,4.5207,4.4256,4.3693,4.164,4.0262,3.9697,3.9998,4.0149,4.0149,4.0701,4.0899,4.0924,4.1175,4.1275,4.13,4.1656,4.1781,4.1806,4.2108,4.2233,4.2233,4.2509,4.2665,4.269,4.2886,4.2986,4.2986,4.7309,4.7309,4.716,4.6651,4.6518,4.6322,4.5633,4.5544,4.5484,4.5304,4.5304,4.5304,4.5304,4.5304,4.5304,4.5304,4.5304,4.5304,4.5304,4.4347,4.3738,4.3738,4.3738,4.3738,4.3738,4.3738,4.3738,4.3738,4.3738,4.3738,4.3768,4.4317,4.4556,4.4556,4.5065,4.5394,4.5544,4.5544,4.5633,4.5813,4.6352,4.6518,4.6621,4.71,4.7309,4.7309,4.7309,4.7309,4.7309,4.7309,4.7309,4.7309,4.7309,4.7309,4.7309,4.7309,4.7309,4.7309,4.7309,4.7309,4.7309,4.7309,4.7309,4.7309,4.7309,4.7309,4.7309,4.7309,4.7309,4.7309,4.7309,4.7309,4.7309,4.7309,0.0,4.7309,0.0,4.7309,4.7309,4.7309,4.7309,4.7309,4.7309,4.7309,4.7309,4.7309,4.7019,4.6887,4.6887,4.5343,4.4434,4.4265,4.1702,4.0183,3.9898,4.0425,4.0701,4.0701,4.1279,4.153,4.153,4.1656,4.1731,4.1756,4.2158,4.2414,4.2439,4.2811,4.2986,4.2986,4.2986,4.2986,4.2986,4.2986,4.2986,4.2986,4.7309,4.7309,4.7279,4.7249,4.7249,4.701,4.6309,4.6262,4.6022,4.5364,4.5304,4.5304,4.5304,4.5304,4.5304,4.5304,4.5304,4.5304,4.5304,4.5214,4.5155,4.5155,4.5155,4.5155,4.5155,4.5155,4.5155,4.5155,4.5155,4.5155,4.5155,4.5185,4.5214,4.5214,4.5274,4.5633,4.6262,4.6262,4.6591,4.716,4.7219,4.7249,4.7249,4.7279,4.7309,4.7309,4.7309,4.7309,4.7309,4.7309,4.7309,4.7309,4.7309,4.7309,4.7309,4.7309,4.7309,4.7309,4.7309,4.7309,4.7309,4.7309,4.7309,4.7309,4.7309,4.7309,4.7309,4.7309,4.7309,4.7309,4.7309,4.7309,4.7309,4.7309,0.0,0.0,4.7309,4.7309,4.7309,4.7309,4.7309,4.7309,4.7309,4.7309,4.7309,4.7309,4.6211,4.5553,4.5553,4.3218,4.1555,4.0871,4.1723,4.1621,4.045,4.0949,4.1225,4.1225,4.1831,4.2137,4.2162,4.2635,4.2861,4.2861,4.2911,4.2911,4.2911,4.2961,4.2986,4.2986,4.2986,4.2986,4.2986,4.2986,4.2986,4.2986,4.7309,4.7309,4.7309,4.7309,4.7309,4.7219,4.698,4.692,4.683,4.6561,4.6531,4.6531,4.6531,4.6531,4.6531,4.6531,4.6531,4.6531,4.6531,4.6531,4.6172,4.5334,4.5304,4.5304,4.5304,4.5304,4.5304,4.5304,4.5304,4.5304,4.5304,4.5723,4.5933,4.5963,4.6352,4.6681,4.692,4.692,4.707,4.7309,4.7309,4.7309,4.7309,4.7309,4.7309,4.7309,4.7309,4.7309,4.7309,4.7309,4.7309,4.7309,4.7309,4.7309,4.7309,4.7309,4.7309,4.7309,4.7309,4.7309,4.7309,4.7309,4.7309,4.7309,4.7309,4.7309,4.7309,4.7309,4.7309,4.7309,4.7309,4.7309,4.7309,4.7309,0.0,4.7309,4.7309,4.7309,4.7309,4.7309,4.7309,4.7309,4.7309,4.7309,4.7309,4.7309,4.6844,4.6594,4.6594,4.448,4.2425,4.0553,4.1686,4.1864,4.0974,4.158,4.1856,4.1856,4.2464,4.2715,4.2715,4.2942,4.2986,4.2986,4.2986,4.2986,4.2986,4.2986,4.2986,4.2986,4.2986,4.2986,4.2986,4.2986,4.2986,4.2986,4.677,4.7019,4.7062,4.6255,4.6432,4.6682,4.6682,4.6344,4.6255,4.6638,4.6682,4.6682,4.6682,4.7062,4.7309,4.7309,4.7309,4.7309,4.7309,4.7309,4.689,4.5963,4.5933,4.5933,4.5933,4.5933,4.5933,4.5933,4.5933,4.5933,4.5933,4.6411,4.6621,4.6651,4.71,4.7309,4.7309,4.7309,4.7309,4.7309,4.7309,4.7309,4.7309,4.7309,4.7309,4.7309,4.7309,4.7309,4.7309,4.7309,4.7309,4.7309,4.7309,4.7309,4.7309,4.7309,4.7309,4.7309,4.7309,4.7309,4.7309,4.7309,4.7309,4.7309,4.7309,4.7309,4.7309,4.7309,4.7309,4.7309,4.7309,4.7309,4.7309,4.7309,4.7309,4.7309,4.7309,4.7309,4.7309,4.7309,4.7309,4.7309,4.7309,4.7309,4.7309,4.7309,4.6931,4.6432,4.5797,4.4649,4.311,4.1081,4.181,4.2057,4.1856,4.2233,4.2464,4.2464,4.2785,4.2986,4.2986,4.2986,4.2986,4.2986,4.2986,4.2986,4.2986,4.2986,4.2986,4.2986,4.2986,4.2986,4.2986,4.2986,4.2986,4.2986,4.5644,4.6388,4.6462,4.3929,4.4535,4.5389,4.5389,4.4303,4.3929,4.5207,4.5389,4.5389,4.5389,4.6506,4.7266,4.7266,4.7266,4.7309,4.7309,4.7309,4.7309,4.7309,4.7309,4.7309,4.7309,4.7309,4.7309,4.7309,4.7309,4.7309,4.7309,4.7309,4.7309,4.7309,4.7309,4.7309,4.7309,4.7309,4.7309,4.7309,4.7309,4.7309,4.7309,4.7309,4.7309,4.7309,4.7309,4.7309,4.7309,4.7309,4.7309,4.7309,4.7309,4.7309,4.7309,4.7309,4.7309,4.7309,4.7309,4.7309,4.7309,4.7309,4.7309,4.7309,4.7309,4.7309,4.7309,4.7309,4.7309,4.7309,4.7309,4.7309,4.7309,4.7309,4.7309,4.7309,4.7309,4.7309,4.7309,4.7309,4.7309,4.7309,4.7309,4.7309,4.7309,4.7309,4.6121,4.4537,4.2536,4.3067,4.3049,4.2242,4.2213,4.2489,4.2961,4.2986,4.2986,4.2986,4.2986,4.2986,4.2986,4.2986,4.2986,4.2986,4.2986,4.2986,4.2986,4.2986,4.2986,4.2986,4.2986,4.2986,4.2986,4.2986,4.2986,4.2986,4.5434,4.4978,4.4396,4.3646,4.3834,4.4069,4.4069,4.374,4.3646,4.4022,4.4069,4.4069,4.4069,4.4396,4.4627,4.4627,4.5434,4.6344,4.7266,4.7309,4.7309,4.7309,4.7309,4.7309,4.7309,4.7309,4.7309,4.7309,4.7309,4.7309,4.7309,4.7309,4.7309,4.7309,4.7309,4.7309,4.7309,4.7309,4.7309,4.7309,4.7309,4.7309,4.7309,4.7309,4.7309,4.7309,4.7309,4.7309,4.7309,4.7309,4.7309,4.7309,4.7309,4.7309,4.7309,4.7309,4.7309,4.7309,4.7309,4.7309,4.7309,4.7309,4.7309,4.7309,4.7309,4.7309,4.7309,4.7309,4.7309,4.7309,4.7309,4.7309,4.7309,4.7309,4.7309,4.7309,4.7309,4.7309,4.7309,4.7309,4.7309,4.7309,4.7309,4.7309,4.7489,4.7967,4.8075,4.7478,4.5994,4.6441,4.5816,4.3675,4.3958,4.3782,4.3042,4.2986,4.2986,4.2986,4.2986,4.2986,4.2986,4.2986,4.2986,4.2986,4.2986,4.2986,4.2986,4.2986,4.2986,4.2986,4.2986,4.2986,4.2986,4.2986,4.2986,4.2986,4.4069,4.3693,4.317,4.2181,4.2398,4.2738,4.2738,4.2301,4.2181,4.2689,4.2738,4.2738,4.2738,4.3218,4.3504,4.3504,4.421,4.5207,4.6462,4.655,4.677,4.7266,4.7309,4.7309,4.7309,4.7309,4.7309,4.7309,4.7309,4.7309,4.7309,4.7309,4.7309,4.7309,4.7309,4.7309,4.7309,4.7309,4.7309,4.7309,4.7309,4.7309,4.7309,4.7309,4.7309,4.7309,4.7309,4.7309,4.7309,4.7309,4.7309,4.7309,4.7309,4.7309,4.7309,4.7309,4.7309,4.7309,4.7309,4.7309,4.7309,4.7309,4.7309,4.7309,4.7309,4.7309,4.7309,4.7309,4.7309,4.7309,4.7309,4.7309,4.7309,4.7309,4.7309,4.7309,4.7309,4.7309,4.7309,4.7309,4.7549,4.7698,4.7698,4.7938,4.8237,4.87,4.9284,4.885,4.7011,4.7433,4.6491,4.3799,4.4028,4.3797,4.3042,4.2986,4.2986,4.2986,4.2986,4.2986,4.2986,4.2986,4.2986,4.2986,4.2986,4.2986,4.2986,4.2986,4.2986,4.2986,4.2986,4.2986,4.2986,4.2986,4.2986,4.2986,4.2084,4.2447,4.2398,4.0083,4.0642,4.1419,4.1419,4.0465,4.0134,4.1269,4.1419,4.1419,4.1419,4.2447,4.317,4.317,4.3266,4.3882,4.5161,4.5207,4.5734,4.6931,4.7062,4.7106,4.7106,4.7266,4.7309,4.7309,4.7309,4.7309,4.7309,4.7309,4.7309,4.7309,4.7309,4.7309,4.7309,4.7309,4.7309,4.7309,4.7309,4.7309,4.7309,4.7309,4.7309,4.7309,4.7309,4.7309,4.7309,4.7309,4.7309,4.7309,4.7309,4.7309,4.7309,4.7309,4.7309,4.7309,4.7309,4.7309,4.7309,4.7309,4.7309,4.7309,4.7309,4.7309,4.7309,4.7309,4.7309,4.7309,4.7309,4.7309,4.7309,4.7309,4.7369,4.7399,4.7399,4.7429,4.7489,4.7489,4.7997,4.8386,4.8386,4.8865,4.9163,4.8997,4.9545,4.8806,4.6344,4.6739,4.5925,4.324,4.3184,4.3129,4.2986,4.2986,4.2986,4.2986,4.2986,4.2986,4.2986,4.2986,4.2986,4.2986,4.2986,4.2986,4.2986,4.2986,4.2986,4.2986,4.2986,4.2986,4.2986,4.2986,4.2986,4.2986,4.169,4.1019,4.0364,3.98,3.9929,4.0134,4.0134,3.9878,3.98,4.0083,4.0134,4.0134,4.0134,4.0364,4.0516,4.0516,4.1468,4.2544,4.3834,4.3929,4.4022,4.4303,4.5252,4.5824,4.5824,4.677,4.7309,4.7309,4.7309,4.7309,4.7309,4.7309,4.7309,4.7309,4.7309,4.7309,4.7309,4.7309,4.7309,4.7309,4.7309,4.7309,4.7309,4.7309,4.7309,4.7309,4.7309,4.7309,4.7309,4.7309,4.7309,4.7309,4.7309,4.7309,4.7309,4.7309,4.7309,4.7309,4.7309,4.7309,4.7309,4.7309,4.7309,4.7309,4.7309,4.7309,4.7309,4.7309,4.7309,4.7309,4.7309,4.7309,4.7309,4.7309,4.7728,4.8087,4.8087,4.8506,4.888,4.888,4.9,4.909,4.909,4.8681,4.7961,4.6862,4.7375,4.7511,4.6901,4.7039,4.6317,4.4643,4.4589,4.4071,4.3042,4.2986,4.2986,4.2986,4.2986,4.2986,4.2986,4.2986,4.2986,4.2986,4.2986,4.2986,4.2986,4.2986,4.2986,4.2986,4.2986,4.2986,4.2986,4.2986,4.2986,4.2986,4.0794,4.0185,3.9697,3.9697,3.9697,3.9697,3.9697,3.9697,3.9697,3.9697,3.9697,3.9697,3.9697,3.9697,3.9697,3.9697,4.0313,4.1219,4.2496,4.2593,4.2882,4.3456,4.4116,4.4489,4.4489,4.5161,4.6077,4.7309,4.7309,4.7309,4.7309,4.7309,4.7309,4.7309,4.7309,4.7309,4.7309,4.7309,4.7309,4.7309,4.7309,4.7309,4.7309,4.7309,4.7309,4.7309,4.7309,4.7309,4.7309,4.7309,4.7309,4.7309,4.7309,4.7309,4.7309,4.7309,4.7309,4.7309,4.7309,4.7309,4.7309,4.7309,4.7309,4.7309,4.7309,4.7309,4.7309,4.7309,4.7309,4.7399,4.7728,4.7788,4.7878,4.8177,4.8536,4.879,4.879,4.909,4.9299,4.9299,4.9523,4.9594,4.9304,4.8325,4.7381,4.6625,4.6929,4.6785,4.6135,4.6135,4.5449,4.4071,4.4071,4.3713,4.3042,4.2986,4.2986,4.2986,4.2986,4.2986,4.2986,4.2986,4.2986,4.2986,4.2986,4.2986,4.2986,4.2986,4.2986,4.2986,4.2986,4.2986,4.2986,4.2986,4.2986,4.2986,3.9929,3.9697,3.9697,3.9697,3.9697,3.9697,3.9697,3.9697,3.9697,3.9697,3.9697,3.9697,3.9697,3.9697,3.9697,3.9697,3.9697,4.0185,4.1219,4.1269,4.1739,4.2786,4.3074,4.317,4.317,4.3409,4.4535,4.6638,4.6887,4.6887,4.6638,4.6887,4.6887,4.6638,4.6887,4.6975,4.6975,4.7222,4.7309,4.7309,4.7309,4.7309,4.7309,4.7309,4.7309,4.7309,4.7309,4.7309,4.7309,4.7309,4.7309,4.7309,4.7309,4.7309,4.7309,4.7309,4.7309,4.7309,4.7309,4.7309,4.7309,4.7309,4.7399,4.7489,4.7489,4.7399,4.7339,4.7459,4.7489,4.7668,4.8327,4.8446,4.8626,4.9209,4.9419,4.9434,4.9434,4.9569,4.9629,4.9629,4.9878,4.9698,4.8907,4.7554,4.663,4.6422,4.637,4.5872,4.4725,4.4671,4.418,4.3042,4.2986,4.2986,4.2986,4.2986,4.2986,4.2986,4.2986,4.2986,4.2986,4.2986,4.2986,4.2986,4.2986,4.2986,4.2986,4.2986,4.2986,4.2986,4.2986,4.2986,4.2986,4.2986,4.2986,4.2986,3.9929,3.9697,3.9697,3.9697,3.9697,3.9697,3.9697,3.9697,3.9697,3.9697,3.9697,3.9697,3.9697,3.9697,3.9697,3.9697,3.9697,3.98,3.9929,3.9981,4.0032,4.0211,4.1269,4.1838,4.1838,4.293,4.3693,4.4022,4.5115,4.507,4.4022,4.5161,4.507,4.4069,4.5161,4.5644,4.5734,4.6814,4.7309,4.7309,4.7309,4.7309,4.7309,4.7309,4.7309,4.7309,4.7309,4.7309,4.7309,4.7309,4.7309,4.7309,4.7309,4.7309,4.7309,4.7309,4.7309,4.7309,4.7309,4.7309,4.7309,4.7309,4.7728,4.8147,4.8147,4.7728,4.7459,4.8027,4.8147,4.8356,4.906,4.9179,4.9209,4.9299,4.9733,5.0076,5.0076,5.0601,5.096,5.096,5.0015,4.88,4.7503,4.6135,4.4779,4.3657,4.3547,4.3436,4.3295,4.3295,4.3184,4.3042,4.2986,4.2986,4.2986,4.2986,4.2986,4.2986,4.2986,4.2986,4.2986,4.2986,4.2986,4.2986,4.2986,4.2986,4.2986,4.2986,4.2986,4.2986,4.2986,4.2986,4.2986,4.2986,4.2986,4.2986,3.9929,3.9697,3.9697,3.9697,3.9697,3.9697,3.9697,3.9697,3.9697,3.9697,3.9697,3.9697,3.9697,3.9697,3.9697,3.9697,3.9697,3.9697,3.9697,3.9697,3.9697,3.9697,4.0211,4.0567,4.0567,4.1069,4.1369,4.1369,4.3361,4.4069,4.3504,4.4069,4.4022,4.3504,4.4069,4.4349,4.4396,4.5689,4.6255,4.6299,4.7019,4.6887,4.6255,4.6255,4.5779,4.5161,4.5161,4.5644,4.6314,4.6665,4.7289,4.7908,4.8297,4.8386,4.8386,4.8386,4.8386,4.8386,4.8386,4.8386,4.8386,4.8386,4.8626,4.888,4.888,4.864,4.8476,4.882,4.888,4.9045,4.9703,4.9793,4.9942,5.0301,5.0601,5.0734,5.0734,5.0973,5.0917,5.0191,4.8189,4.6578,4.5978,4.4671,4.3657,4.3042,4.2986,4.2986,4.2986,4.2986,4.2986,4.2986,4.2986,4.2986,4.2986,4.2986,4.2986,4.2986,4.2986,4.2986,4.2986,4.2986,4.2986,4.2986,4.2986,4.2986,4.2986,4.2986,4.2986,4.2986,4.2986,4.2986,4.2986,4.2986,4.2986,4.2986]}]]